[[{"header":{"parameterUnit":"m.s-1","parameterCategory":1,"la1":30.6,"la2":29.2853,"lo1":-89.7004,"lo2":-87.6739,"dy":0.0162,"dx":0.0183,"nx":112,"ny":82,"refTime":"2024-04-12T06:00:00:Z","depth":0,"parameterNumber":2,"parameterNumberName":"U-component_of_WINDS"},"data":[0.0,0.0,0.0,0.0,0.0,0.0,0.0,0.0,0.0,0.0,0.0,0.0,0.0,0.0,0.0,0.0,0.0,0.0,0.0,0.0,0.0,0.0,0.0,0.0,0.0,0.0,0.0,0.0,0.0,0.0,0.0,0.0,0.0,0.0,0.0,0.0,0.0,0.0,0.0,0.0,0.0,0.0,0.0,0.0,0.0,0.0,0.0,0.0,0.0,0.0,0.0,0.0,0.0,0.0,0.0,0.0,0.0,0.0,0.0,0.0,0.0,0.0,0.0,0.0,0.0,0.0,0.0,0.0,0.0,0.0,0.0,0.0,0.0,0.0,0.0,0.0,0.0,0.0,0.0,0.0,0.0,0.0,0.0,0.0,0.0,0.0,0.0,0.0,0.0,0.0,-3.1601,-3.6289,-4.25,-4.5586,-4.3867,-4.2539,-3.9414,-3.375,0.0,0.0,0.0,0.0,0.0,0.0,0.0,0.0,0.0,0.0,0.0,0.0,0.0,0.0,0.0,0.0,0.0,0.0,0.0,0.0,0.0,0.0,0.0,0.0,0.0,0.0,0.0,0.0,0.0,0.0,0.0,0.0,0.0,0.0,0.0,0.0,0.0,0.0,0.0,0.0,0.0,0.0,0.0,0.0,0.0,0.0,0.0,0.0,0.0,0.0,0.0,0.0,0.0,0.0,0.0,0.0,0.0,0.0,0.0,0.0,0.0,0.0,0.0,0.0,0.0,0.0,0.0,0.0,0.0,0.0,0.0,0.0,0.0,0.0,0.0,0.0,0.0,0.0,0.0,0.0,0.0,0.0,0.0,0.0,0.0,0.0,0.0,0.0,0.0,0.0,0.0,0.0,0.0,0.0,0.0,0.0,0.0,0.0,0.0,0.0,0.0,0.0,0.0,0.0,-3.3203,-3.9726,-4.3945,-4.5586,-4.3867,-4.0937,-3.7539,-3.3633,0.0,0.0,0.0,0.0,0.0,0.0,0.0,0.0,0.0,0.0,0.0,0.0,0.0,0.0,0.0,0.0,0.0,0.0,0.0,0.0,0.0,0.0,0.0,0.0,0.0,0.0,0.0,0.0,0.0,0.0,0.0,0.0,0.0,0.0,0.0,0.0,0.0,0.0,0.0,0.0,0.0,0.0,0.0,0.0,0.0,0.0,0.0,0.0,0.0,0.0,0.0,0.0,0.0,0.0,0.0,0.0,0.0,0.0,0.0,0.0,0.0,0.0,0.0,0.0,0.0,0.0,0.0,0.0,0.0,0.0,0.0,0.0,0.0,0.0,0.0,0.0,0.0,0.0,0.0,0.0,0.0,0.0,0.0,0.0,0.0,0.0,0.0,0.0,0.0,0.0,0.0,0.0,0.0,0.0,0.0,0.0,0.0,0.0,0.0,0.0,0.0,0.0,0.0,-3.2109,-3.5781,-4.125,-4.4101,-4.4883,-4.3125,-3.9844,-3.6406,-3.2969,-3.1052,0.0,0.0,0.0,0.0,0.0,0.0,0.0,0.0,0.0,0.0,0.0,0.0,0.0,0.0,0.0,0.0,0.0,0.0,0.0,0.0,0.0,0.0,0.0,0.0,0.0,0.0,0.0,0.0,0.0,0.0,0.0,0.0,0.0,0.0,0.0,0.0,0.0,0.0,0.0,0.0,0.0,0.0,0.0,0.0,0.0,0.0,0.0,0.0,0.0,0.0,0.0,0.0,0.0,0.0,0.0,0.0,0.0,0.0,0.0,0.0,0.0,0.0,0.0,0.0,0.0,0.0,0.0,0.0,0.0,0.0,0.0,0.0,0.0,0.0,0.0,0.0,0.0,0.0,0.0,0.0,0.0,0.0,0.0,0.0,0.0,0.0,0.0,0.0,0.0,0.0,0.0,0.0,0.0,0.0,0.0,0.0,0.0,0.0,0.0,0.0,0.0,0.0,-3.5117,-3.7851,-4.1953,-4.3945,-4.4219,-4.2266,-3.8984,-3.5625,-3.2382,-2.9481,0.0,0.0,0.0,0.0,0.0,0.0,0.0,0.0,0.0,0.0,0.0,0.0,0.0,0.0,0.0,0.0,0.0,0.0,0.0,0.0,0.0,0.0,0.0,0.0,0.0,0.0,0.0,0.0,0.0,0.0,0.0,0.0,0.0,0.0,0.0,0.0,0.0,0.0,0.0,0.0,0.0,0.0,0.0,0.0,0.0,0.0,0.0,0.0,0.0,0.0,0.0,0.0,0.0,0.0,0.0,0.0,0.0,0.0,0.0,0.0,0.0,0.0,0.0,0.0,0.0,0.0,0.0,0.0,0.0,0.0,0.0,0.0,0.0,0.0,0.0,0.0,0.0,0.0,0.0,0.0,0.0,0.0,0.0,0.0,0.0,0.0,0.0,0.0,0.0,0.0,0.0,0.0,0.0,0.0,0.0,0.0,0.0,0.0,0.0,0.0,0.0,0.0,-3.5625,-3.8555,-4.2031,-4.3945,-4.3984,-4.1484,-3.8086,-3.496,-3.229,-2.8886,0.0,0.0,0.0,0.0,0.0,0.0,0.0,0.0,0.0,0.0,0.0,0.0,0.0,0.0,0.0,0.0,0.0,0.0,0.0,0.0,0.0,0.0,0.0,0.0,0.0,0.0,0.0,0.0,0.0,0.0,0.0,0.0,0.0,0.0,0.0,0.0,0.0,0.0,0.0,0.0,0.0,0.0,0.0,0.0,0.0,0.0,0.0,0.0,0.0,0.0,0.0,0.0,0.0,0.0,0.0,0.0,0.0,0.0,0.0,0.0,0.0,0.0,0.0,0.0,0.0,0.0,0.0,0.0,0.0,0.0,0.0,0.0,0.0,0.0,0.0,0.0,0.0,0.0,0.0,0.0,0.0,0.0,0.0,0.0,0.0,0.0,0.0,0.0,0.0,0.0,0.0,0.0,0.0,0.0,0.0,0.0,0.0,0.0,0.0,0.0,0.0,0.0,-3.5195,-3.8008,0.0,-4.2539,-4.1797,-3.9766,-3.6367,-3.3241,-3.0646,0.0,0.0,0.0,0.0,0.0,0.0,0.0,0.0,0.0,0.0,0.0,0.0,0.0,0.0,0.0,0.0,0.0,0.0,0.0,0.0,0.0,0.0,0.0,0.0,0.0,0.0,0.0,0.0,0.0,0.0,0.0,0.0,0.0,0.0,0.0,0.0,0.0,0.0,0.0,0.0,0.0,0.0,0.0,0.0,0.0,0.0,0.0,0.0,0.0,0.0,0.0,0.0,0.0,0.0,0.0,0.0,0.0,0.0,0.0,0.0,0.0,0.0,0.0,0.0,0.0,0.0,0.0,0.0,0.0,0.0,0.0,0.0,0.0,0.0,0.0,0.0,0.0,0.0,0.0,0.0,0.0,0.0,0.0,0.0,0.0,0.0,0.0,0.0,0.0,0.0,0.0,0.0,0.0,0.0,0.0,0.0,0.0,0.0,0.0,0.0,0.0,0.0,-3.2891,-3.5156,-3.7851,0.0,-4.1523,-4.0391,-3.8359,-3.5,-3.1991,-2.9668,0.0,0.0,0.0,0.0,0.0,0.0,0.0,0.0,0.0,0.0,0.0,0.0,0.0,0.0,0.0,0.0,0.0,0.0,0.0,0.0,0.0,0.0,0.0,0.0,0.0,0.0,0.0,0.0,0.0,0.0,0.0,0.0,0.0,0.0,0.0,0.0,0.0,0.0,0.0,0.0,0.0,0.0,0.0,0.0,0.0,0.0,0.0,0.0,0.0,0.0,0.0,0.0,0.0,0.0,0.0,0.0,0.0,0.0,0.0,0.0,0.0,0.0,0.0,0.0,0.0,0.0,0.0,0.0,0.0,0.0,0.0,0.0,0.0,0.0,0.0,0.0,0.0,0.0,0.0,0.0,0.0,0.0,0.0,0.0,0.0,0.0,0.0,0.0,0.0,0.0,0.0,0.0,0.0,0.0,0.0,0.0,0.0,0.0,0.0,0.0,0.0,0.0,-3.2969,-3.5664,-3.8281,-4.0898,-4.1172,-4.0117,-3.75,-3.4141,-3.1405,0.0,0.0,0.0,0.0,0.0,0.0,0.0,0.0,0.0,0.0,0.0,0.0,0.0,0.0,0.0,0.0,0.0,0.0,0.0,0.0,0.0,0.0,0.0,0.0,0.0,0.0,0.0,0.0,0.0,0.0,0.0,0.0,0.0,0.0,0.0,0.0,0.0,0.0,0.0,0.0,0.0,0.0,0.0,0.0,0.0,0.0,0.0,0.0,0.0,0.0,0.0,0.0,0.0,0.0,0.0,0.0,0.0,0.0,0.0,0.0,0.0,0.0,0.0,0.0,0.0,0.0,0.0,0.0,0.0,0.0,0.0,0.0,0.0,0.0,0.0,0.0,0.0,0.0,0.0,0.0,0.0,0.0,0.0,0.0,0.0,0.0,0.0,0.0,0.0,0.0,0.0,0.0,0.0,0.0,0.0,0.0,0.0,0.0,0.0,0.0,0.0,0.0,0.0,-3.2969,-3.5156,-3.7148,-3.9141,-3.9375,-3.832,-3.5703,-3.2891,-3.0506,-2.8691,0.0,0.0,0.0,0.0,0.0,0.0,0.0,0.0,0.0,0.0,0.0,0.0,0.0,0.0,0.0,0.0,0.0,0.0,0.0,0.0,0.0,0.0,0.0,0.0,0.0,0.0,0.0,0.0,0.0,0.0,0.0,0.0,0.0,0.0,0.0,0.0,0.0,0.0,0.0,0.0,0.0,0.0,0.0,0.0,0.0,0.0,0.0,0.0,0.0,0.0,0.0,0.0,0.0,0.0,0.0,0.0,0.0,0.0,0.0,0.0,0.0,0.0,0.0,0.0,0.0,0.0,0.0,0.0,0.0,0.0,0.0,0.0,0.0,0.0,0.0,0.0,0.0,0.0,0.0,0.0,0.0,0.0,0.0,0.0,0.0,0.0,0.0,0.0,0.0,0.0,0.0,0.0,0.0,0.0,0.0,0.0,0.0,0.0,0.0,0.0,0.0,0.0,-3.2969,-3.4922,-3.664,-3.8355,-3.851,-3.7453,-3.4825,-3.2247,-3.0013,-2.8273,0.0,0.0,0.0,0.0,0.0,0.0,0.0,0.0,0.0,0.0,0.0,0.0,0.0,0.0,0.0,0.0,0.0,0.0,0.0,0.0,0.0,0.0,0.0,0.0,0.0,0.0,0.0,0.0,0.0,0.0,0.0,0.0,0.0,0.0,0.0,0.0,0.0,0.0,0.0,0.0,0.0,0.0,0.0,0.0,0.0,0.0,0.0,0.0,0.0,0.0,0.0,0.0,0.0,0.0,0.0,0.0,0.0,0.0,0.0,0.0,0.0,0.0,0.0,0.0,0.0,0.0,0.0,0.0,0.0,0.0,0.0,0.0,0.0,0.0,0.0,0.0,0.0,0.0,0.0,0.0,0.0,0.0,0.0,0.0,0.0,0.0,0.0,0.0,0.0,0.0,0.0,0.0,0.0,0.0,0.0,0.0,0.0,0.0,0.0,0.0,0.0,0.0,-3.2968,-3.4843,-3.6441,-3.7973,-3.8165,-3.7132,-3.4571,-3.199,-2.9805,-2.821,0.0,0.0,0.0,0.0,0.0,0.0,0.0,0.0,0.0,0.0,0.0,0.0,0.0,0.0,0.0,0.0,0.0,0.0,0.0,0.0,0.0,0.0,0.0,0.0,0.0,0.0,0.0,0.0,0.0,0.0,0.0,0.0,0.0,0.0,0.0,0.0,0.0,0.0,0.0,0.0,0.0,0.0,0.0,0.0,0.0,0.0,0.0,0.0,0.0,0.0,0.0,0.0,0.0,0.0,0.0,0.0,0.0,0.0,0.0,0.0,-3.4083,0.0,0.0,0.0,0.0,0.0,0.0,0.0,0.0,0.0,0.0,0.0,0.0,0.0,0.0,0.0,0.0,0.0,0.0,0.0,0.0,0.0,0.0,0.0,0.0,0.0,0.0,0.0,0.0,0.0,0.0,0.0,0.0,0.0,0.0,0.0,0.0,0.0,0.0,0.0,0.0,0.0,-3.2871,-3.4234,-3.5235,-3.6189,-3.6306,-3.5563,-3.3628,-3.1134,-2.9227,-2.8171,-2.6392,0.0,0.0,0.0,0.0,0.0,0.0,0.0,0.0,0.0,0.0,0.0,0.0,0.0,0.0,0.0,0.0,0.0,0.0,0.0,0.0,0.0,0.0,0.0,0.0,0.0,0.0,0.0,0.0,0.0,0.0,0.0,0.0,0.0,0.0,0.0,0.0,0.0,0.0,0.0,0.0,0.0,0.0,0.0,0.0,0.0,0.0,0.0,0.0,0.0,0.0,0.0,0.0,0.0,0.0,0.0,0.0,0.0,0.0,0.0,0.0,-3.5545,0.0,0.0,0.0,0.0,0.0,0.0,0.0,0.0,0.0,0.0,0.0,0.0,0.0,0.0,0.0,0.0,0.0,0.0,0.0,0.0,0.0,0.0,0.0,0.0,0.0,0.0,0.0,0.0,0.0,0.0,0.0,0.0,0.0,0.0,0.0,0.0,0.0,0.0,0.0,0.0,-3.2934,-3.4045,-3.482,-3.5585,-3.5663,-3.4986,-3.3204,-3.0725,-2.8904,-2.8043,-2.633,0.0,0.0,0.0,0.0,0.0,0.0,0.0,0.0,0.0,0.0,0.0,0.0,0.0,0.0,0.0,0.0,0.0,0.0,0.0,0.0,0.0,0.0,0.0,0.0,0.0,0.0,0.0,0.0,0.0,0.0,0.0,0.0,0.0,0.0,0.0,0.0,0.0,0.0,0.0,0.0,0.0,0.0,0.0,0.0,0.0,0.0,0.0,0.0,0.0,0.0,0.0,0.0,0.0,-4.3008,-4.3355,-4.3739,-4.3008,-4.2615,-4.2354,-4.0239,-3.8507,-3.7161,0.0,0.0,0.0,0.0,0.0,0.0,0.0,0.0,0.0,0.0,0.0,0.0,0.0,0.0,0.0,0.0,0.0,0.0,0.0,0.0,0.0,0.0,0.0,0.0,0.0,-3.3891,-3.3853,0.0,0.0,0.0,0.0,0.0,0.0,0.0,0.0,0.0,0.0,0.0,0.0,-3.3137,-3.4068,-3.4808,-3.5681,-3.5372,-3.4522,-3.3019,-3.0435,-2.8626,-2.7934,-2.6269,-2.5308,0.0,0.0,0.0,0.0,0.0,0.0,0.0,0.0,0.0,0.0,0.0,0.0,0.0,0.0,0.0,0.0,0.0,0.0,0.0,0.0,0.0,0.0,0.0,0.0,0.0,0.0,0.0,0.0,0.0,0.0,0.0,0.0,-3.87,-3.8084,0.0,0.0,0.0,0.0,0.0,0.0,0.0,0.0,0.0,0.0,0.0,0.0,0.0,-4.1931,-4.3624,-4.5124,-4.6009,-4.6231,-4.7702,-4.7702,-4.6394,-4.6269,-4.5817,-4.5094,-4.4748,0.0,-3.8892,-3.8123,0.0,0.0,0.0,0.0,0.0,0.0,0.0,0.0,0.0,0.0,0.0,0.0,0.0,0.0,0.0,0.0,0.0,0.0,0.0,0.0,0.0,0.0,-3.5154,-3.5154,-3.5231,-3.5231,0.0,-3.3224,-3.1729,-3.1652,0.0,0.0,0.0,0.0,0.0,0.0,0.0,0.0,-3.3847,-3.425,-3.4886,-3.6401,-3.4584,-3.3153,-3.2929,-2.9929,-2.8011,-2.7895,-2.6269,-2.5308,-2.5308,-2.5308,0.0,0.0,0.0,0.0,0.0,0.0,0.0,0.0,0.0,0.0,0.0,0.0,0.0,0.0,0.0,0.0,0.0,0.0,0.0,0.0,0.0,0.0,0.0,0.0,0.0,0.0,0.0,0.0,0.0,-3.8507,-3.9323,-3.94,-3.9746,-3.9977,0.0,0.0,0.0,0.0,0.0,0.0,0.0,0.0,0.0,-4.4739,-4.5124,-4.6394,-4.8548,-4.9308,-5.0192,-5.1164,-5.1433,-5.1395,-5.1125,-5.0154,-4.95,-4.9086,-4.8125,-4.6394,-4.4085,-4.1816,-3.9815,-3.8123,0.0,0.0,0.0,0.0,0.0,-3.77,-3.8161,0.0,0.0,0.0,0.0,0.0,0.0,0.0,0.0,0.0,0.0,0.0,0.0,0.0,0.0,-3.7623,-3.7969,-3.8315,-3.8315,-3.6331,-3.4299,0.0,-3.2518,-3.1817,-3.146,0.0,0.0,0.0,0.0,-3.1991,-3.4027,-3.4268,-3.4693,-3.5892,-3.416,-3.2891,-3.2891,-3.0237,-2.8396,-2.7934,-2.6736,-2.5808,-2.5308,-2.5308,-2.5308,0.0,0.0,0.0,0.0,0.0,0.0,0.0,0.0,0.0,0.0,0.0,0.0,0.0,0.0,0.0,0.0,0.0,0.0,0.0,0.0,0.0,0.0,0.0,0.0,0.0,0.0,0.0,0.0,-3.9277,-4.0085,-4.0477,-4.1093,-4.1285,0.0,0.0,0.0,0.0,0.0,0.0,-4.4624,-4.547,-4.7009,-4.9317,-4.9625,-5.0856,-5.3203,-5.3203,-5.3857,-5.5126,-5.4472,-5.428,-5.4472,-5.3164,-5.2423,-5.2154,-5.0664,-4.9548,-4.8509,-4.4893,-4.2162,-4.0246,-3.9785,-3.9207,-3.87,-3.9361,-3.9631,-3.9708,-4.0285,-4.0092,-3.9554,-3.9123,0.0,-3.7392,-3.5937,0.0,0.0,0.0,0.0,-3.5738,-3.6846,0.0,-4.0008,-4.02,-4.0746,-4.117,-4.117,-3.9315,-3.7123,0.0,-3.4017,-3.3318,-3.3318,0.0,0.0,0.0,0.0,-3.3285,-3.4743,-3.4886,-3.5161,-3.6038,-3.4199,-3.2891,-3.2891,-3.055,-2.8742,-2.7934,-2.7082,-2.6192,-2.5346,-2.5308,-2.5308,-2.5308,0.0,0.0,0.0,0.0,0.0,0.0,0.0,0.0,0.0,0.0,0.0,0.0,0.0,0.0,0.0,0.0,0.0,0.0,0.0,0.0,0.0,0.0,0.0,0.0,0.0,0.0,0.0,0.0,0.0,-4.0593,-4.2632,0.0,0.0,0.0,0.0,-4.521,-4.5364,-4.6479,-4.8933,-4.9904,-5.1164,-5.2895,-5.3741,-5.5011,-5.6714,-5.6753,-5.6791,-5.6868,-5.683,-5.6022,-5.4511,-5.4395,-5.3933,-5.3087,-5.2154,-5.1318,-5.025,-4.597,-4.3701,-4.2739,-4.1093,-4.04,-4.04,-4.0439,-4.0439,-4.0439,-4.0477,-4.0477,-4.0554,-4.1354,-4.1008,-4.0169,-3.9284,-3.843,0.0,0.0,-3.9053,-3.9431,-4.1046,-4.1577,-4.1893,-4.2701,-4.2931,-4.297,-4.297,-4.1585,-3.9592,0.0,-3.5244,-3.4135,-3.4135,0.0,-3.28,-3.2916,-3.4289,-3.5629,-3.6476,-3.6584,-3.693,-3.7777,-3.4891,-3.2891,-3.2891,-3.055,-2.8742,-2.7934,-2.7082,-2.6192,-2.5346,-2.5308,-2.5308,-2.5308,-2.5308,0.0,0.0,0.0,0.0,0.0,0.0,0.0,0.0,0.0,0.0,0.0,0.0,0.0,0.0,0.0,0.0,0.0,0.0,0.0,0.0,0.0,0.0,0.0,0.0,0.0,0.0,0.0,0.0,-4.3748,-4.6009,0.0,-4.674,-4.6971,-4.7625,-4.8788,-4.9356,-5.0317,-5.1779,-5.3164,-5.4703,-5.6434,-5.728,-5.828,-5.9435,-5.9435,-5.9435,-5.9435,-5.8357,-5.7511,-5.6896,-5.578,-5.5088,-5.4741,-5.3356,-5.2587,-5.2049,-4.8894,-4.6778,-4.547,-4.4855,-4.4278,-4.3786,-4.3786,-4.3786,-4.3786,-4.3786,-4.3401,-4.2816,-4.2047,-4.12,-4.0439,-4.0169,-3.9861,-3.9777,-4.0662,-4.0893,-4.12,-4.2354,-4.3008,-4.3508,-4.3816,-4.3855,-4.3855,-4.3855,-4.297,-4.1893,-4.1008,-3.8123,-3.6007,-3.6546,-3.5507,-3.493,-3.6007,-3.6238,-3.6385,-3.6654,-3.6692,-3.6615,-3.6423,-3.4814,-3.3506,-3.2968,-3.1083,-2.9352,-2.8011,-2.7082,-2.6192,-2.5346,-2.5308,-2.5308,-2.5308,-2.5308,-2.5307,0.0,0.0,0.0,0.0,0.0,0.0,0.0,0.0,0.0,0.0,0.0,0.0,0.0,0.0,0.0,0.0,0.0,0.0,0.0,0.0,0.0,0.0,0.0,0.0,0.0,0.0,-4.6009,-4.7172,-4.9548,-5.1125,-5.1125,-5.0856,-5.1395,-5.3126,-5.3203,-5.3933,-5.5665,-5.6819,-5.7934,-5.9127,-5.9935,-6.0512,-6.0781,-6.0781,-6.0666,-6.0319,-5.8973,-5.8165,-5.7819,-5.6357,-5.5703,-5.5626,-5.4241,-5.3472,-5.3049,-5.1048,-4.9433,-4.8086,-4.724,-4.6547,-4.6009,-4.571,-4.5594,-4.5594,-4.5594,-4.521,-4.4547,-4.3431,-4.247,-4.1785,-4.1785,-4.1593,-4.1546,-4.2393,-4.2624,-4.2854,-4.3701,-4.4355,-4.4739,-4.4739,-4.4739,-4.4739,-4.4739,-4.4085,-4.3508,-4.3508,-4.0508,-3.8161,-3.8738,-3.7469,-3.6738,-3.7815,-3.7777,-3.7584,-3.7584,-3.7315,-3.6923,-3.6385,-3.5045,-3.3859,-3.2968,-3.1891,-3.0275,-2.8049,-2.7621,-2.6813,-2.5346,-2.5577,-2.5731,-2.5731,-2.6038,-2.6063,-2.5824,0.0,0.0,0.0,0.0,0.0,0.0,0.0,0.0,0.0,0.0,0.0,0.0,0.0,0.0,0.0,0.0,0.0,0.0,0.0,0.0,0.0,0.0,0.0,-4.4432,-4.6624,-4.8933,-5.0712,-5.3126,-5.4664,-5.4741,-5.3972,-5.4857,-5.8204,-5.6896,-5.7396,-6.0704,-6.0858,-6.0819,-6.0819,-6.1639,-6.1639,-6.0819,-6.0781,-6.0358,-5.9511,-5.8704,-5.7857,-5.7022,-5.6088,-5.5703,-5.5665,-5.4818,-5.3972,-5.3126,-5.2231,-5.1395,-5.0442,-4.7971,-4.7,-4.6932,-4.6047,-4.571,-4.5633,-4.5633,-4.5633,-4.5594,-4.5594,-4.5017,-4.4355,-4.4355,-4.3816,-4.3355,-4.4124,-4.4355,-4.4547,-4.5364,-4.5594,-4.5594,-4.5594,-4.5594,-4.5594,-4.5594,-4.494,-4.4355,-4.4355,-4.2324,-4.0554,-4.0554,-3.9161,-3.8084,-3.8084,-3.8815,0.0,-3.9284,-3.8546,-3.8007,-3.8007,-3.5776,-3.3898,-3.3006,-3.2929,-3.1468,-2.8165,-2.8626,-2.789,-2.5423,-2.6115,-2.6582,-2.6621,-2.7428,-2.7489,-2.675,0.0,0.0,0.0,0.0,0.0,0.0,0.0,0.0,0.0,0.0,0.0,0.0,0.0,0.0,0.0,0.0,0.0,0.0,0.0,0.0,0.0,-4.5547,-4.7048,-4.7048,-4.9779,-5.2664,-5.4983,-5.6973,-5.8627,-5.9908,-5.9781,-6.0281,-6.182,-6.1473,-6.1627,-6.2551,-6.205,-6.1755,-6.1755,-6.1358,-6.105,-6.0781,-6.0781,-6.0666,-6.0435,-5.8973,-5.8165,-5.7896,-5.6395,-5.5703,-5.5626,-5.4164,-5.3433,-5.3087,-5.1625,-5.0894,-5.0635,-4.9933,-4.9663,-4.9548,-4.8663,-4.7586,-4.6547,-4.6547,-4.6124,-4.5594,-4.5594,-4.5441,-4.5248,-4.5248,-4.5094,-4.4979,-4.5171,-4.5248,-4.5287,-4.5556,-4.5594,-4.5594,-4.5594,-4.5594,-4.5594,-4.5594,-4.5402,-4.5248,-4.5248,-4.3701,-4.2162,-4.1546,-4.0546,-3.9823,-3.9823,-4.0015,0.0,-3.94,-3.8546,-3.8007,-3.8007,-3.6815,-3.543,-3.3975,-3.3276,-3.1737,-2.8934,-2.7852,-2.6967,-2.6269,-2.5885,-2.5962,-2.6582,-2.6851,-2.7181,0.0,0.0,0.0,0.0,0.0,0.0,0.0,0.0,0.0,0.0,0.0,0.0,0.0,0.0,0.0,0.0,0.0,0.0,0.0,0.0,0.0,0.0,-4.8355,-5.0625,-5.1692,-5.3549,-5.5742,-5.8292,-5.9781,-6.1243,-6.2974,-6.282,-6.3089,-6.432,-6.3705,-6.3308,-6.3308,-6.2858,-6.2281,-6.1601,-6.1396,-6.1166,-6.0781,-6.0781,-6.0781,-6.0781,-5.9088,-5.8319,-5.8242,-5.6472,-5.5703,0.0,-5.4664,-5.4049,-5.3626,-5.2279,-5.151,0.0,0.0,0.0,0.0,0.0,-4.824,-4.7346,-4.7,-4.6586,-4.6086,-4.571,-4.5594,-4.5594,-4.5594,-4.5594,-4.5594,-4.5594,-4.5594,-4.5594,-4.5594,-4.5594,-4.5594,-4.5594,-4.5594,-4.5594,-4.5594,-4.5594,-4.5594,-4.5594,0.0,0.0,-4.2508,-4.1316,-4.0516,-4.0516,-4.0516,-4.0323,0.0,-3.8738,-3.8007,-3.8007,-3.6584,-3.5122,-3.3776,-3.3199,0.0,0.0,0.0,-2.8044,-2.7659,-2.7159,0.0,0.0,0.0,-2.8273,0.0,0.0,0.0,0.0,-2.9721,-2.9805,0.0,0.0,0.0,0.0,0.0,0.0,0.0,0.0,0.0,0.0,0.0,0.0,0.0,0.0,0.0,0.0,-5.1395,-5.4472,-5.6923,-5.7434,-5.8446,-6.0781,-6.187,-6.3012,-6.4589,-6.4051,-6.4243,-6.5782,-6.4474,-6.3551,-6.3474,0.0,0.0,0.0,0.0,-6.1601,-6.0819,-6.0781,-6.0781,-6.0781,-5.9204,-5.8396,-5.8242,-5.6588,-5.578,-5.5703,-5.5588,-5.5164,-5.4434,-5.3549,-5.2692,-5.1731,-5.0164,-4.9548,-4.9433,-4.8663,-4.8317,0.0,0.0,0.0,0.0,-4.6009,-4.5748,-4.5748,-4.5633,-4.5594,-4.5594,-4.5594,-4.5594,-4.5594,-4.5594,-4.5594,-4.5594,-4.5594,-4.5594,-4.5594,-4.5594,-4.5594,-4.5594,-4.5594,-4.4816,-4.3932,-4.3201,-4.1739,-4.0631,-4.0516,-4.0516,0.0,-4.0516,-3.9046,-3.8046,-3.8123,0.0,0.0,-3.3122,-3.3045,-3.1968,-2.9396,-2.989,-2.989,-2.9011,-2.8973,-2.9011,-2.9088,-2.9852,-2.9929,-2.9242,-3.0149,-3.0583,-3.0589,-3.0027,-3.0156,0.0,0.0,0.0,0.0,0.0,0.0,0.0,0.0,0.0,0.0,0.0,0.0,0.0,0.0,0.0,-5.0731,-5.4049,-5.6896,-5.8781,-6.0242,-6.155,-6.2666,-6.3589,-6.4512,-6.5551,-6.5513,-6.5551,-6.5859,-6.559,-6.5089,-6.4397,-6.3666,0.0,-6.187,-6.132,-6.0973,-6.0781,-6.0781,-6.0781,-6.0781,0.0,0.0,-5.828,-5.7203,-5.6368,-5.5665,-5.5011,-5.4626,-5.4434,-5.3549,-5.2692,-5.1808,-5.0818,-5.0442,-5.0442,-5.025,-4.974,-4.9125,-4.8971,-4.8471,-4.774,-4.6932,-4.6663,-4.6509,-4.5825,-4.5594,0.0,-4.5594,-4.5594,-4.5594,-4.5594,-4.5594,-4.5594,-4.5594,-4.5594,-4.5594,-4.5594,-4.5594,-4.5594,-4.5594,-4.4355,-4.3278,-4.3124,-4.2239,-4.1316,-4.0593,-4.0516,-4.0516,-4.0516,-3.9046,-3.8277,-3.8969,-3.7353,-3.5584,-3.409,-3.3936,-3.2852,-3.0308,-2.966,-2.8973,-2.8165,-2.8126,-2.8434,-2.9088,-2.928,-2.9621,-3.0154,-3.0455,-3.0583,-3.0589,-3.0614,-3.0742,0.0,0.0,0.0,0.0,0.0,0.0,0.0,0.0,0.0,0.0,0.0,-4.4201,-4.5932,0.0,-5.151,-5.4038,-5.6588,-5.8704,-5.9973,-6.1293,-6.2255,-6.2666,-6.3435,-6.4282,-6.5166,-6.5243,-6.5436,-6.5859,-6.5897,-6.532,-6.4012,-6.3538,-6.2743,-6.1473,-6.1012,-6.0781,-6.0781,-6.0781,-6.0781,-6.0781,-5.9935,-5.9281,-5.8858,-5.7599,-5.6753,-5.6291,-5.5472,-5.5088,-5.5049,-5.4203,-5.3087,-5.1846,-5.1471,-5.1048,-5.0712,-5.0712,-5.0442,-4.9933,-4.9048,-4.874,-4.8471,-4.6778,-4.6547,-4.674,-4.5855,-4.5594,-4.5594,-4.5594,-4.5594,-4.5594,-4.5594,-4.5594,-4.5594,-4.5594,-4.5594,-4.5594,-4.5594,-4.5594,-4.5594,-4.5594,-4.494,-4.4201,-4.3778,-4.3355,-4.247,-4.0746,-4.0516,-4.0516,-4.0516,-3.9046,-3.8161,-3.8584,-3.6738,-3.493,-3.366,-3.2776,-3.1775,-3.0462,-3.0,-2.9583,-2.9159,-2.9159,-2.9352,-2.9737,-2.9737,-2.9962,-3.0385,-3.0518,-3.0584,-3.0586,-3.0755,-3.0857,0.0,0.0,0.0,0.0,0.0,0.0,0.0,-4.2047,-4.2777,-4.3662,-4.5316,-4.7287,-4.9471,-5.2125,-5.4664,-5.6885,-5.8665,-6.0012,-6.0704,-6.155,-6.2062,-6.187,-6.2704,-6.3589,-6.4282,-6.4512,-6.4897,-6.559,-6.5782,-6.5205,-6.3628,-6.3397,-6.2627,-6.1089,-6.0896,-6.0781,-6.0781,-6.0627,-6.0627,-6.0781,-5.9742,-5.9281,-5.9204,-5.7703,-5.6907,-5.6714,-5.6011,-5.5703,-5.5665,-5.5011,-5.3703,-5.2154,-5.2154,-5.1548,-5.0712,-5.0712,-5.0712,-5.0519,-4.9086,-4.8933,-4.9009,-4.6817,-4.6471,-4.674,-4.5855,-4.5594,-4.5594,-4.5594,-4.5594,-4.5594,-4.5594,-4.5594,-4.5594,-4.5594,-4.5594,-4.5594,-4.5594,-4.5594,-4.5594,-4.5594,-4.5479,-4.5133,-4.4432,-4.4162,-4.3316,-4.1093,-4.0746,-4.0708,-4.0516,-3.9046,-3.8007,-3.8007,-3.5853,-3.4045,-3.3006,-3.15,-3.0577,-3.0423,-3.0385,-3.0385,-3.0385,-3.0385,-3.0385,-3.0385,-3.0577,-3.0654,-3.0654,-3.0728,-3.0797,-3.0834,-3.0728,-3.077,-4.0746,-4.0516,-4.0862,-4.2431,-4.2316,-4.2354,0.0,0.0,-4.5432,-4.6317,-4.8432,-5.0433,-5.1423,-5.4357,-5.6934,-5.7973,-5.955,-6.0704,-6.0781,-6.155,-6.1831,-6.105,-6.2358,-6.3346,-6.3435,-6.4166,-6.4628,-6.4743,-6.5474,-6.5474,-6.4512,-6.3743,-6.2897,-6.1985,-6.1204,-6.0781,-6.0781,-6.0012,-6.0012,-6.0781,-5.9204,-5.8434,-5.8396,-5.7434,-5.6599,-5.5818,-5.5742,-5.5703,-5.5703,-5.5588,-5.4587,-5.3049,-5.3049,-5.2087,-5.0712,-5.0712,-5.0712,-5.0673,-5.0481,-4.9971,-4.924,-4.8163,-4.7394,-4.674,-4.5855,-4.5594,-4.5594,-4.5594,-4.5594,-4.5594,-4.5594,-4.5594,-4.5594,-4.5594,-4.5594,-4.5594,-4.5594,-4.5594,-4.5594,-4.5594,-4.4979,-4.4393,-4.4316,-4.3701,-4.2854,-4.1816,-4.1662,-4.1354,-4.0593,-3.9046,-3.8007,-3.8007,-3.643,-3.4692,-3.3045,-3.2083,-3.1231,-3.0462,-3.0385,-3.0385,-3.0385,-3.0385,-3.0385,-3.0385,-3.1154,-3.1545,-3.1545,-3.1617,-3.1645,-3.1663,-3.1018,-3.077,-4.0746,-4.1247,-4.22,-4.2931,-4.3932,-4.5047,-4.6124,-4.7124,-4.8048,-4.8933,-5.1125,-5.3318,-5.4626,-5.6819,-5.8742,0.0,-6.0319,-6.0781,-6.0781,-6.0281,-5.9742,-5.9396,-5.9511,-6.0435,-6.2397,-6.2474,-6.2781,-6.3782,-6.4166,-6.4012,-6.3205,-6.2781,-6.2204,-6.1358,-6.0973,-6.055,-6.005,-5.9665,-5.9435,-5.9358,-5.8627,-5.8319,-5.828,-5.7396,-5.6522,-5.5703,-5.5703,-5.5703,-5.5665,-5.5203,-5.428,-5.3164,-5.2654,-5.1741,-5.0712,-5.0712,-5.0712,-5.0635,-5.0125,-4.9702,-4.9163,-4.7855,-4.7154,-4.674,-4.5855,-4.5594,-4.5594,-4.5594,-4.5594,-4.5594,-4.5594,-4.5594,-4.5594,-4.5594,-4.5594,-4.5594,-4.5594,-4.5594,-4.5594,-4.5594,-4.5325,-4.5056,-4.5056,-4.4786,-4.4239,-4.3393,-4.2431,-4.1662,-4.1316,-3.9777,-3.8354,-3.7353,-3.5738,-3.4468,-3.3699,-3.2468,-3.1737,-3.1852,-3.1423,-3.1385,-3.1852,-3.1852,-3.1852,-3.1852,-3.2199,-3.2391,-3.2391,-3.2419,-3.2447,-3.2484,-3.2253,-3.2218,-4.0969,-4.197,-4.3278,-4.397,-4.5701,-4.7423,-4.8115,-4.9394,-5.0702,-5.1548,-5.3587,-5.5549,-5.6791,-5.8204,-5.9435,-6.0281,-6.0435,-6.0435,-6.0435,-5.9204,-5.8127,-5.7627,-5.6819,-5.7368,-6.0062,-6.0627,-6.1281,-6.2512,-6.3051,-6.3051,-6.2474,-6.2216,-6.1831,-6.1166,-6.0935,-6.0396,-5.9511,-5.9281,-5.8896,-5.828,-5.7819,-5.7703,-5.7896,-5.7049,-5.6291,-5.5703,-5.5472,-5.5357,-5.5318,-5.4472,-5.3626,-5.2779,-5.2154,-5.1395,-5.0712,-5.0712,-5.0712,-5.0596,-4.9702,-4.924,-4.8817,-4.7355,-4.674,-4.6432,-4.5787,-4.5594,-4.5594,-4.5594,-4.5594,-4.5594,-4.5594,-4.5594,-4.5594,-4.5594,-4.5594,-4.5594,-4.5594,-4.5594,-4.5594,-4.5594,-4.5594,-4.5594,-4.5594,-4.5594,-4.5402,-4.4739,-4.3431,-4.2316,-4.1846,-4.0354,-3.8623,-3.6885,-3.5622,-3.4699,-3.4244,-3.3083,-3.2545,-3.2891,-3.2352,-3.2275,-3.2891,-3.2891,-3.2891,-3.2891,-3.3122,-3.3276,-3.3276,-3.3276,-3.3293,-3.3318,-3.325,-3.322,-4.1546,-4.2431,-4.3701,-4.6163,-4.7432,-4.8702,-5.1192,-5.2423,-5.3318,-5.4203,-5.5752,-5.6945,-5.6983,-5.7742,-5.8588,-5.9396,-5.955,-5.955,-5.955,-5.8819,-5.7665,-5.5972,-5.5049,-5.4934,0.0,-5.8858,-6.0819,-6.0858,-6.2397,-6.3269,-6.3281,-6.2512,-6.2101,-6.2062,-6.1243,-6.0396,-5.9511,-5.8742,-5.8319,-5.828,-5.6588,-5.6203,-5.7022,-5.6126,-5.5742,-5.5665,-5.4895,-5.4549,-5.4472,-5.3587,-5.2741,-5.1923,-5.1923,-5.1395,-5.0712,-5.0712,-5.0712,-5.0596,-4.9702,-4.8856,-4.8009,-4.7154,-4.6317,-4.5633,-4.5594,-4.5594,-4.5594,-4.5594,-4.5594,-4.5594,-4.5594,-4.5594,-4.5594,-4.5594,-4.5594,-4.5594,-4.5594,-4.5594,-4.5594,-4.5594,-4.5594,-4.5594,-4.5594,-4.5594,-4.5594,-4.5556,-4.4778,-4.3624,-4.2,-4.0354,-3.8623,-3.6885,-3.6654,-3.5968,-3.4359,-3.4167,-3.3782,-3.2968,-3.2891,-3.2852,-3.2891,-3.2891,-3.2891,-3.2891,-3.3744,-3.4167,-3.4167,-3.4167,-3.4167,-3.4141,-3.349,-3.3197,-4.2931,-4.4509,-4.624,-4.8779,-5.0471,-5.1856,-5.3318,-5.4241,-5.478,-5.4549,-5.4934,-5.5164,-5.4587,-5.5203,-5.6242,-5.7627,-5.8319,-5.8896,-5.9435,-5.8819,-5.7473,-5.5164,-5.4664,0.0,0.0,0.0,0.0,-5.9819,-6.0473,-6.105,-6.1627,-6.1358,-6.1243,-6.1243,-6.0396,-5.955,-5.8704,-5.7857,-5.7165,-5.6549,-5.5972,-5.5857,-5.6126,-5.5818,-5.5395,-5.4895,-5.4626,-5.4164,-5.3587,-5.2692,-5.2154,-5.1846,-5.1318,-5.0587,-4.9894,-5.0481,-5.0327,-4.9894,-5.0164,-4.9317,-4.8048,-4.7778,-4.674,-4.5594,-4.5594,-4.5594,-4.5594,-4.5594,-4.5594,-4.5594,-4.5594,-4.5594,-4.5594,-4.5594,-4.5594,-4.5594,-4.5594,-4.5594,-4.5594,-4.5594,-4.5594,-4.5594,-4.5594,-4.5594,-4.5402,-4.4816,-4.4047,-4.3085,-4.1962,-4.0354,-3.9092,-3.8469,-3.7392,-3.6462,-3.593,-3.4853,-3.4314,-3.4615,-3.4083,-3.4007,-3.4615,-3.4615,-3.4615,-3.4615,-3.4923,-3.5045,-3.5045,-3.5045,-3.5045,-3.5045,-3.4874,-3.4804,-4.4624,-4.6701,-4.8779,-5.101,-5.2626,-5.3818,-5.4357,-5.4664,-5.4587,-5.3741,-5.3087,-5.251,-5.1933,-5.2049,-5.2779,-5.4483,-5.5203,-5.6165,-5.7896,-5.7165,-5.6088,-5.5049,-5.4664,-5.428,0.0,0.0,0.0,-5.8473,-5.9165,-5.9742,-6.0319,-6.0627,-6.0781,-6.0781,-6.0242,-5.9588,-5.8742,-5.7896,-5.6857,-5.5703,-5.5703,-5.5703,-5.5703,-5.5703,-5.5241,-5.4472,-5.4164,-5.3549,-5.2664,-5.1818,-5.1471,-5.1433,-5.0894,-5.0173,-4.9471,-5.001,-4.9663,-4.9009,-4.9586,-4.9048,-4.8009,-4.7394,-4.6471,-4.5594,-4.5594,-4.5594,-4.5594,-4.5594,-4.5594,-4.5594,-4.5594,-4.5594,-4.5594,-4.5594,-4.5594,-4.5594,-4.5594,-4.5594,-4.5594,-4.5594,-4.5594,-4.5594,-4.5594,-4.5594,-4.5402,-4.4855,-4.4047,-4.3124,-4.1962,-4.0854,-3.9969,-3.9361,-3.8007,-3.7038,-3.6731,-3.5468,-3.4891,-3.5462,-3.4968,-3.493,-3.5462,-3.55,-3.55,-3.55,-3.55,-3.55,-3.55,-3.55,-3.55,-3.5507,-3.556,-3.5636,-4.6663,-4.8971,-5.1289,-5.2972,-5.3972,-5.4549,-5.4434,-5.3741,-5.2818,-5.1885,-5.0356,-4.9202,0.0,0.0,-4.8586,-5.0404,-5.0827,-5.2058,-5.5357,-5.4549,-5.4126,0.0,0.0,0.0,0.0,0.0,0.0,-5.7022,0.0,-5.9473,-5.955,-6.0358,-6.0781,-6.0781,-6.0742,-6.0319,-5.9511,-5.8665,-5.7396,-5.5703,-5.5703,-5.5703,-5.5703,-5.5703,-5.5241,-5.4434,-5.3587,-5.2692,-5.1846,-5.101,-5.0712,-5.0712,-5.0712,-5.0125,-4.9356,-4.9394,-4.8817,-4.8048,-4.8048,-4.8086,-4.7817,-4.6201,-4.5671,-4.5671,-4.5594,-4.5594,-4.5594,-4.5594,-4.5594,-4.5594,-4.5594,-4.5594,-4.5594,-4.5594,-4.5594,-4.5594,-4.5594,-4.5594,-4.5594,-4.5594,-4.5594,-4.5594,-4.5594,-4.5594,-4.5594,-4.5594,-4.4893,-4.3778,-4.2077,-4.1808,-4.1162,-3.9554,-3.8584,-3.77,-3.6846,-3.6038,-3.5538,-3.55,-3.55,-3.55,-3.55,-3.55,-3.55,-3.55,-3.55,-3.55,-3.55,-3.55,-3.55,-3.5507,-3.5554,-3.5581,-4.9654,-5.2049,-5.3933,-5.5588,-5.5703,-5.5049,-5.3818,-5.2395,-5.0894,-4.9394,-4.774,-4.6364,-4.5701,-4.5932,0.0,-5.0212,-5.2279,0.0,-5.7242,-5.8357,0.0,-5.683,0.0,-5.7088,-5.6445,-5.656,0.0,0.0,-5.8357,-5.9165,-6.0396,-6.0666,-6.0781,-6.0781,-6.0165,-5.9704,-5.9511,-5.805,-5.678,-5.5703,-5.5703,-5.5703,-5.5703,-5.5703,-5.5241,-5.4434,-5.3587,-5.2692,-5.1846,-5.101,-5.0712,-5.0712,-5.0712,-4.9779,-4.8509,-4.9163,-4.8471,-4.7192,-4.7192,-4.7586,-4.7932,-4.6894,-4.6586,-4.6432,-4.5787,-4.5594,-4.5594,-4.5594,-4.5594,-4.5594,-4.5594,-4.5594,-4.5594,-4.5594,-4.5594,-4.5594,-4.5594,-4.5594,-4.5594,-4.5594,-4.5594,-4.5594,-4.5594,-4.5594,-4.5594,-4.5594,-4.5402,-4.4662,-4.297,-4.22,-4.1393,-4.0323,-3.9477,-3.8623,-3.7738,-3.6885,-3.6154,-3.5538,-3.55,-3.55,-3.55,-3.55,-3.55,-3.55,-3.55,-3.55,-3.55,-3.55,-3.55,-3.55,-3.5509,-3.5558,-5.2279,-5.4587,-5.628,-5.6868,-5.6329,-5.5049,-5.2664,-5.0779,-4.8971,-4.6855,-4.5086,-4.3778,-4.3278,-4.3585,-4.4816,0.0,0.0,0.0,-5.6126,-5.7434,-5.805,0.0,-5.8511,0.0,-5.7665,-5.7896,-5.828,0.0,-5.8819,-5.9242,-6.0165,-6.0589,-6.0781,-6.0781,-6.0319,-5.9896,-5.9511,-5.8204,-5.7126,-5.6291,-5.5857,-5.5703,-5.5703,-5.5703,-5.5241,-5.4434,0.0,-5.2692,-5.1846,-5.101,-5.0712,-5.0673,-5.0289,-4.951,-4.8663,-4.8779,-4.8009,-4.6885,-4.6885,-4.7201,-4.7432,-4.6586,-4.6317,-4.6317,-4.6201,-4.6163,-4.6163,-4.6163,-4.6163,-4.6086,-4.571,-4.5594,-4.5594,-4.5594,-4.5594,-4.5594,-4.5594,-4.5594,-4.5594,-4.5594,-4.5594,-4.5594,-4.5594,-4.5594,-4.5594,-4.5594,-4.5594,-4.5133,-4.3816,-4.2893,-4.2047,-4.1162,-4.0008,-3.8938,-3.8084,-3.7199,-3.65,-3.6077,-3.5692,-3.5654,-3.6,-3.5692,-3.55,-3.55,-3.55,-3.55,-3.55,-3.55,-3.55,-3.55,-3.55,-3.5515,-5.4587,-5.6626,-5.8242,-5.7396,-5.6357,-5.4664,-5.1289,-4.9009,-4.6894,-4.447,-4.2739,-4.1623,-4.1623,-4.1731,-4.247,-4.447,0.0,-4.9048,-5.428,-5.5011,-5.6165,-5.9319,-5.9665,-5.9396,-5.8704,-5.9281,-5.9665,-5.9665,-5.9665,-5.9665,-5.9665,-6.0396,-6.0781,-6.0781,-6.0781,-6.0319,-5.9358,-5.8665,-5.778,-5.683,-5.6049,-5.5703,-5.5703,-5.5703,-5.5318,-5.4587,0.0,0.0,-5.2,-5.1087,-5.0712,-5.0596,-4.974,-4.9394,-4.9279,-4.8317,-4.7586,-4.7038,-4.6923,-4.6885,-4.6778,-4.5893,-4.5671,-4.5893,-4.6547,-4.6817,-4.6885,-4.6778,-4.6817,-4.674,-4.597,-4.5787,-4.5787,-4.5787,-4.5864,-4.5902,-4.5787,-4.5864,-4.5941,-4.5941,-4.5941,-4.5902,-4.5787,-4.5787,-4.5748,-4.5633,-4.5594,-4.5325,-4.4586,-4.3778,-4.2893,-4.1885,-4.0508,-3.9238,-3.8277,-3.7469,-3.7,-3.6885,-3.6231,-3.6154,-3.6846,-3.6192,-3.5846,-3.5846,-3.5731,-3.5654,-3.5654,-3.5538,-3.55,-3.55,-3.55,-3.55,-5.6165,-5.7896,-5.9088,-5.828,-5.6395,-5.3818,-5.0394,-4.7201,-4.4432,-4.2624,-4.1431,-4.0746,-4.0746,-4.1316,-4.3038,-4.6817,-4.8317,-5.101,-5.6819,-5.7627,-5.8357,0.0,-6.055,-6.0512,-6.0358,-6.0473,0.0,0.0,0.0,-6.055,-6.055,-6.0704,-6.0781,-6.0781,-6.0781,-6.005,-5.8511,-5.8357,-5.7511,-5.5934,-5.578,-5.5703,-5.5703,-5.5703,-5.5626,-5.5395,0.0,0.0,-5.2856,-5.1318,-5.0712,-5.0596,-4.974,-4.9394,-4.9202,-4.7663,-4.7432,-4.7817,-4.7115,-4.6885,-4.6778,-4.5893,-4.6086,-4.6586,-4.6009,-4.6317,-4.674,-4.6009,-4.6355,-4.6885,-4.6701,-4.6663,-4.6663,-4.6663,-4.7201,-4.7471,-4.6817,-4.7201,-4.7663,-4.7663,-4.7663,-4.7471,-4.6778,-4.6663,-4.6432,-4.571,-4.5594,-4.5556,-4.5402,-4.4624,-4.3508,-4.1962,-4.1538,-4.0739,-3.9207,-3.8938,-3.8546,-3.7815,-3.7623,-3.7623,-3.7777,-3.7623,-3.7584,-3.7584,-3.6846,-3.65,-3.65,-3.5808,-3.55,-3.55,-3.55,-3.55,-5.7319,-5.8896,-5.9858,-5.8627,-5.6395,-5.3472,-4.9625,-4.6432,-4.3701,-4.1546,-4.0785,-4.0516,-4.0516,-4.1585,-4.3278,-4.574,-4.724,-4.9856,-5.4934,-5.6049,-5.728,-5.9819,-6.0512,-6.0781,-6.0781,-6.0781,-6.0781,0.0,0.0,-6.0781,-6.0781,-6.0781,-6.0589,-6.0127,-6.0127,-5.955,-5.8319,-5.7857,-5.7203,-5.6368,-5.5934,-5.5703,-5.5703,-5.5703,-5.5703,-5.5588,-5.3933,0.0,-5.3087,-5.1395,-5.0712,-5.0596,-4.974,-4.9663,-4.9933,-4.8663,-4.8432,-4.8702,-4.8317,-4.7625,-4.6808,-4.6394,-4.624,-4.624,-4.6278,-4.6586,-4.6817,-4.6394,-4.6894,-4.7432,-4.7,-4.7192,-4.7509,-4.7509,-4.7817,-4.8009,-4.7625,-4.7817,-4.8086,-4.8086,-4.7778,-4.7355,-4.6962,-4.6509,-4.6086,-4.5671,-4.5594,-4.5594,-4.5594,-4.5248,-4.447,-4.3239,-4.2316,-4.1277,-4.0015,-3.9554,-3.9284,-3.9315,-3.8469,-3.8392,-3.9238,-3.8469,-3.8007,-3.8007,-3.7161,-3.6692,-3.6692,-3.5885,-3.55,-3.55,-3.55,-3.55,-5.805,-5.9511,-6.0358,-5.8473,-5.5972,-5.2856,-4.8779,-4.574,-4.3124,-4.0939,-4.0516,-4.0516,-4.0516,-4.1777,-4.3201,-4.4393,-4.574,-4.8163,-5.2587,-5.3933,-5.5665,-5.8858,-6.0165,0.0,-6.0781,-6.0781,0.0,0.0,0.0,0.0,-6.0781,-6.0627,-6.0204,-5.9511,-5.9319,-5.8858,-5.805,-5.7319,-5.6907,-5.6714,-5.6011,-5.5703,-5.5703,-5.5703,-5.5703,-5.5588,-5.3933,0.0,0.0,-5.1395,-5.0712,-5.0596,-4.974,-4.9933,-5.0558,-4.951,-4.9356,-4.9663,-4.9471,-4.8548,-4.7432,-4.7432,-4.6586,-4.5748,-4.6394,-4.674,-4.6885,-4.6885,-4.7471,-4.8009,-4.7548,-4.7894,-4.8432,-4.8625,-4.8509,-4.8432,-4.8625,-4.8663,-4.8663,-4.8663,-4.8163,-4.7586,-4.7231,-4.674,-4.6249,-4.5671,-4.5748,-4.5825,-4.5633,-4.5594,-4.5325,-4.4662,-4.3239,-4.2008,-4.1131,-4.0477,-4.04,-4.1016,-3.9815,-3.9585,-4.0746,-3.9508,-3.8738,-3.8546,-3.77,-3.7276,-3.7276,-3.6423,-3.6038,-3.6038,-3.6038,-3.6038,-5.805,-5.9511,-6.0204,-5.7753,-5.4626,-5.1231,-4.7769,-4.4423,-4.1739,-4.0708,-4.0516,-4.0516,-4.0516,-4.1277,-4.2701,-4.5094,-4.5594,-4.7471,-5.251,-5.3933,-5.5472,-5.8088,0.0,0.0,-6.0781,-6.0781,0.0,0.0,0.0,0.0,-6.0781,-6.005,-5.9588,-5.9511,-5.8781,-5.7973,-5.7137,-5.706,-5.6599,-5.5818,-5.5742,-5.5703,-5.5703,-5.5703,-5.5703,-5.5588,0.0,0.0,0.0,-5.1395,-5.0712,-5.0596,-4.974,-4.9933,-5.0519,-4.8817,-4.9202,-5.0481,-4.9663,-4.9317,-4.9163,-4.9163,-4.7548,-4.5594,-4.571,-4.6278,-4.6885,-4.6885,-4.7471,-4.8279,-4.8971,-4.924,-4.9471,-5.0289,-4.9856,-4.951,-5.0289,-5.0481,-5.0481,-5.0481,-5.0404,-4.9856,-4.8279,-4.8586,-4.8279,-4.5941,-4.6278,-4.6509,-4.571,-4.5594,-4.5556,-4.5479,-4.4624,-4.3739,-4.2931,-4.2777,-4.2777,-4.2854,-4.2701,-4.2354,-4.17,-4.1538,-4.1085,-4.0285,-3.9477,-3.9053,-3.9053,-3.82,-3.7777,-3.7777,-3.7777,-3.7777,-5.6857,-5.8742,-5.9511,-5.7511,-5.4087,-5.0433,-4.7548,-4.4231,-4.1546,-4.0669,-4.0516,-4.0516,-4.0516,-4.12,-4.2316,-4.3855,-4.4085,0.0,-4.9548,-5.0433,-5.2164,-5.6242,-5.778,0.0,0.0,0.0,0.0,0.0,0.0,0.0,-6.0781,-5.9973,-5.9281,-5.8781,-5.7973,-5.7088,-5.6252,-5.6214,-5.6049,-5.5703,-5.5703,-5.5703,-5.5703,-5.5703,-5.5703,-5.5626,0.0,0.0,0.0,-5.1895,-5.1125,-5.0673,-5.0327,-5.0404,-5.0635,-4.9933,-5.0087,-5.0635,-5.0289,-4.9817,-4.9394,-4.9394,-4.8355,-4.7009,-4.6547,-4.6624,-4.6885,-4.6885,-4.7471,-4.8317,-4.9163,-4.9779,-5.0289,-5.0635,-5.0442,-5.0125,-4.9971,-5.0327,-5.0558,-5.001,-4.9933,-4.9702,-4.9009,-4.874,-4.8125,-4.6624,-4.6701,-4.6586,-4.571,-4.5594,-4.5594,-4.5594,-4.4816,-4.4162,-4.3855,-4.3393,-4.3316,-4.3778,-4.3355,-4.3162,-4.3316,-4.2854,-4.2162,-4.1316,-4.0439,-3.9785,-3.9284,-3.843,-3.8007,-3.8007,-3.8007,-3.8007,-5.4703,-5.6896,-5.7896,-5.5962,-5.2702,-4.924,-4.6701,-4.3701,-4.1239,-4.0631,-4.0516,-4.0516,-4.0516,-4.1431,-4.2393,-4.3008,0.0,-4.4739,-4.7394,-4.8163,-4.9894,-5.3741,0.0,-5.6857,0.0,0.0,0.0,0.0,0.0,0.0,0.0,-5.9627,-5.8896,-5.8319,-5.7203,-5.6329,-5.5703,-5.5703,-5.5703,-5.5703,-5.5703,-5.5703,-5.5703,-5.5703,-5.5703,-5.5665,0.0,0.0,0.0,-5.2269,-5.1433,-5.0712,-5.0712,-5.0712,-5.0712,-5.0712,-5.0712,-5.0712,-5.0712,-5.0289,-4.9779,-4.9779,-4.9356,-4.8702,-4.7894,-4.7471,-4.7317,-4.7586,-4.824,-4.9009,-4.9625,-5.025,-5.0712,-5.0712,-5.0712,-5.0519,-4.9933,-5.0289,-5.0519,-4.9894,-4.9779,-4.9702,-4.9433,-4.9086,-4.8509,-4.7432,-4.7231,-4.6971,-4.6086,-4.5748,-4.5594,-4.5594,-4.5056,-4.4662,-4.4662,-4.4162,-4.4085,-4.4662,-4.4162,-4.397,-4.4278,-4.3547,-4.2701,-4.1808,-4.0931,-4.0208,-3.9669,-3.9046,-3.8738,-3.8738,-3.8738,-3.8738,-5.15,-5.3818,-5.5126,-5.2577,-5.0,-4.7471,-4.4893,-4.2362,-4.0516,-4.0516,-4.0516,-4.0516,-4.0516,-4.1931,-4.3085,-4.3085,-4.447,0.0,-4.6778,-4.8355,-4.974,0.0,0.0,-5.4241,0.0,0.0,0.0,0.0,0.0,0.0,0.0,-5.8742,-5.8319,-5.8319,-5.6626,-5.5703,-5.5703,-5.5703,-5.5703,-5.5703,-5.5703,-5.5703,-5.5703,-5.5703,-5.5703,0.0,0.0,0.0,0.0,-5.2269,-5.1433,-5.0712,-5.0712,-5.0712,-5.0712,-5.0712,-5.0712,-5.0712,-5.0712,-5.0712,-5.0712,-5.0712,-5.0673,-5.0519,-4.9625,-4.8779,-4.8279,-4.9125,-5.001,-5.0673,-5.0673,-5.0712,-5.0712,-5.0712,-5.0712,-5.0712,-5.0712,-5.0712,-5.0712,-5.0712,-5.0712,-5.0404,-4.9548,-5.0087,-5.0087,-4.8355,-4.8086,-4.7817,-4.7,-4.6124,-4.5594,-4.5594,-4.5594,-4.5594,-4.5594,-4.5594,-4.5594,-4.5594,-4.5594,-4.521,-4.4355,-4.3547,-4.2701,-4.1808,-4.0931,-4.0516,-4.0477,-4.0477,-4.0477,-4.0477,-4.0477,-4.0477,-4.7692,-4.9471,-5.0317,-4.951,-4.7394,-4.5163,-4.3778,-4.1931,-4.0516,-4.0516,-4.0516,-4.0516,-4.0516,-4.0939,-4.17,-4.2893,-4.3547,0.0,0.0,0.0,0.0,-5.2087,-5.5934,-5.8704,0.0,0.0,0.0,0.0,0.0,0.0,0.0,-5.8742,-5.805,-5.7434,-5.628,-5.5703,-5.5703,-5.5703,-5.5703,-5.5703,-5.5703,-5.5703,-5.5703,-5.5703,0.0,0.0,0.0,0.0,0.0,-5.2269,-5.1433,-5.0712,-5.0712,-5.0712,-5.0712,-5.0712,-5.0712,-5.0712,-5.0712,-5.0712,-5.0712,-5.0712,-5.0712,-5.0635,-5.0366,-4.9663,-4.9048,-4.9317,-5.001,-5.0712,-5.0712,-5.0712,-5.0712,-5.0712,-5.0712,-5.0558,-4.9933,-5.0289,-5.0519,-4.9933,-5.0289,-5.0596,-5.0327,-5.0519,-5.0327,-4.9163,-4.8971,-4.8471,-4.7077,-4.6663,-4.6278,-4.5671,-4.5594,-4.5594,-4.5594,-4.5594,-4.5594,-4.5594,-4.5594,-4.5479,-4.521,-4.494,-4.4393,-4.3547,-4.2701,-4.197,-4.1393,-4.0785,-4.0516,-4.0516,-4.0516,-4.0516,-4.3962,-4.6047,-4.7086,-4.674,-4.524,-4.3624,-4.2816,-4.1508,-4.0516,-4.0516,-4.0516,-4.0516,-4.0516,-4.0785,-4.1431,-4.2854,-4.3355,-4.4047,0.0,0.0,0.0,-5.2346,0.0,0.0,0.0,0.0,0.0,0.0,0.0,0.0,0.0,-5.8088,-5.7396,-5.656,-5.5972,-5.5703,-5.5703,-5.5703,-5.5703,-5.5703,-5.5703,-5.5703,-5.5703,-5.5395,0.0,0.0,0.0,0.0,0.0,-5.2269,-5.1433,-5.0712,-5.0712,-5.0712,-5.0712,-5.0712,-5.0894,-5.1125,-5.0827,-5.0894,-5.1087,-5.0789,-5.0712,-5.0712,-5.0712,-5.0327,-4.9894,-4.9894,-5.0289,-5.0712,-5.0712,-5.0712,-5.0712,-5.0712,-5.0712,-5.0558,-5.001,-5.0327,-5.0558,-5.001,-5.0327,-5.0712,-5.0712,-5.0712,-5.0519,-4.9971,-4.9625,-4.9009,-4.7971,-4.7548,-4.7048,-4.6163,-4.6086,-4.597,-4.5633,-4.5594,-4.5594,-4.5594,-4.5594,-4.5594,-4.5594,-4.5287,-4.4855,-4.4316,-4.3508,-4.2816,-4.2277,-4.1431,-4.0823,-4.0516,-4.0516,-4.0516,0.0,-4.3162,-4.4786,-4.4047,-4.3355,-4.2624,-4.1816,-4.1046,0.0,-4.0516,-4.0516,-4.0516,-4.0593,-4.1239,-4.2085,-4.3047,-4.3816,-4.4586,0.0,-4.724,0.0,0.0,0.0,0.0,0.0,0.0,0.0,0.0,0.0,0.0,0.0,0.0,-5.6599,-5.5742,-5.5703,-5.5703,-5.5703,-5.5703,-5.5703,-5.5703,-5.5703,-5.5665,-5.5588,-5.4857,0.0,0.0,0.0,0.0,0.0,-5.2192,-5.1395,-5.0789,-5.0712,-5.0712,-5.0712,-5.075,-5.1202,-5.1731,-5.101,-5.1241,-5.1692,-5.0933,-5.0712,-5.0712,-5.0712,-5.0712,-5.0712,-5.0712,-5.0712,-5.0712,-5.0712,-5.0712,-5.0712,-5.0712,-5.0712,-5.0712,-5.0712,-5.0712,-5.0712,-5.0712,-5.075,-5.0789,-5.0712,-5.075,-5.0789,-5.0712,-5.001,-4.9471,-4.9394,-4.8702,-4.7894,-4.7077,-4.7,-4.6624,-4.5787,-4.5633,-4.5594,-4.5594,-4.5594,-4.5594,-4.5594,-4.4816,-4.4393,-4.4393,-4.3585,-4.3162,-4.3085,-4.2277,-4.147,-4.0669,-4.0669,-4.0669,-3.7615,0.0,-3.8892,-3.9354,-3.9854,-4.0123,0.0,-4.0208,-4.0516,-4.0516,-4.0516,-4.0708,-4.1354,-4.1662,-4.2277,-4.3778,-4.4162,-4.4586,-4.5479,0.0,0.0,-5.4587,0.0,0.0,0.0,0.0,0.0,0.0,0.0,0.0,0.0,0.0,-5.6599,-5.5742,-5.5703,-5.5703,-5.5703,-5.5703,-5.5703,-5.5703,-5.5703,-5.5395,-5.478,-5.4587,0.0,0.0,0.0,0.0,-5.3087,-5.1587,-5.1241,-5.1548,-5.0933,-5.0712,-5.0789,-5.1395,-5.1356,-5.1048,-5.1471,-5.1356,-5.0933,-5.075,-5.0712,-5.0712,-5.0712,-5.0712,-5.0712,-5.0712,-5.0712,-5.0712,-5.0712,-5.0712,-5.0712,-5.0712,-5.0712,-5.0712,-5.0712,-5.0712,-5.0712,-5.0712,-5.1202,-5.1433,-5.0827,-5.1202,-5.1395,-5.0789,-5.0519,-5.0164,-4.9471,-4.9202,-4.8779,-4.7932,-4.7817,-4.7509,-4.6663,-4.597,-4.5594,-4.5594,-4.5594,-4.5594,-4.5594,-4.5402,-4.5287,-4.5287,-4.4432,-4.3701,-4.3085,-4.2893,-4.2701,-4.247,-4.247,-4.2124,-3.5983,-3.6903,-3.8007,-3.8469,-3.9246,-3.9861,-3.9861,-4.0208,-4.0516,-4.0516,-4.0516,-4.0785,-4.1662,-4.147,-4.1893,-4.397,-4.397,0.0,0.0,0.0,-5.2972,-5.5395,0.0,0.0,0.0,0.0,0.0,0.0,0.0,0.0,0.0,0.0,-5.6214,-5.5703,-5.5703,-5.5703,-5.5703,-5.5318,-5.5318,-5.5703,-5.5318,-5.4934,-5.4472,-5.4087,0.0,0.0,0.0,0.0,-5.3087,-5.1395,-5.0971,-5.1318,-5.0856,-5.0712,-5.075,-5.1202,-5.1318,-5.1279,-5.1318,-5.1048,-5.0712,-5.0712,-5.0712,-5.0712,-5.0712,-5.0712,-5.0712,-5.0712,-5.1241,-5.1664,-5.0904,-5.0971,-5.1164,-5.0789,-5.0712,-5.0712,-5.0712,-5.0712,-5.0712,-5.0712,-5.1356,-5.1769,-5.1318,-5.1933,-5.2356,-5.1895,-5.151,-5.1087,-5.0625,-5.0202,-4.9663,-4.8779,-4.8702,-4.8202,-4.7,-4.6471,-4.6009,-4.5633,-4.5594,-4.5594,-4.5594,-4.5594,-4.5594,-4.5594,-4.5133,-4.447,-4.3662,-4.3662,-4.347,-4.3085,-4.3085,-4.2854,-3.5238,-3.7247,-3.9246,-3.8977,-3.9631,-4.0323,-4.0323,-4.04,-4.0516,-4.0516,-4.0593,-4.0931,0.0,-4.1393,0.0,0.0,0.0,0.0,-4.8586,-5.0433,-5.2559,0.0,0.0,0.0,0.0,0.0,0.0,0.0,0.0,0.0,0.0,0.0,0.0,-5.5703,-5.5703,-5.5626,-5.5511,-5.4857,-5.4895,-5.5703,-5.4895,-5.4434,-5.428,-5.3549,-5.3472,0.0,0.0,0.0,-5.2895,-5.1318,-5.0789,-5.0856,-5.075,-5.0712,-5.0712,-5.0827,-5.1318,-5.1808,-5.1125,-5.0789,-5.0712,-5.0712,-5.0712,-5.0712,-5.0712,-5.0789,-5.0894,-5.0894,-5.1895,-5.2664,-5.1087,-5.1318,-5.1692,-5.0894,-5.0712,-5.0712,-5.0712,-5.0712,-5.0712,-5.0712,-5.1356,-5.1885,-5.1885,-5.2615,-5.3203,-5.3203,-5.2577,-5.2038,-5.1923,-5.1318,-5.0548,-4.9702,-4.9586,-4.8971,-4.7432,-4.7163,-4.674,-4.5864,-4.5671,-4.5594,-4.5594,-4.5594,-4.5594,-4.5594,-4.5594,-4.5248,-4.4509,-4.4509,-4.4162,-4.347,-4.347,-4.3393,-3.5933,-3.7669,-3.8938,-3.7469,-3.8315,-3.9477,-3.9477,-4.0015,-4.0516,0.0,0.0,0.0,0.0,-4.2854,-4.3855,0.0,0.0,-4.8779,0.0,0.0,0.0,0.0,0.0,0.0,0.0,0.0,0.0,0.0,0.0,0.0,0.0,0.0,0.0,-5.5703,-5.5703,-5.5357,-5.4703,-5.4549,-5.4895,-5.5703,-5.4895,-5.4126,-5.3395,-5.328,-5.251,0.0,0.0,-5.1241,-5.2038,-5.1087,-5.1087,-5.1654,-5.0971,-5.0712,-5.0789,-5.1471,-5.1769,-5.1885,-5.1769,-5.1279,-5.0712,-5.0712,-5.0712,-5.0712,-5.0712,-5.1164,-5.1731,-5.1731,-5.1885,-5.1885,-5.0933,-5.1318,-5.1692,-5.0894,-5.0712,-5.0712,-5.0712,-5.0712,-5.0712,-5.0712,-5.1356,-5.1885,-5.1885,-5.2615,-5.3203,-5.3203,-5.3087,-5.2731,-5.2,-5.1769,-5.1395,-5.0596,-5.0519,-5.0087,-4.9086,-4.8355,-4.7586,-4.674,-4.6009,-4.5594,-4.5594,-4.5594,-4.5594,-4.5594,-4.5594,-4.5518,-4.5402,-4.5402,-4.5325,-4.521,-4.521,-4.4816,-3.5704,-3.7212,-3.8416,-3.7726,-3.9002,-4.0292,-4.0023,-4.0112,-4.0445,-4.1061,0.0,0.0,0.0,0.0,-4.4739,-4.6124,0.0,0.0,0.0,0.0,0.0,0.0,0.0,0.0,0.0,0.0,0.0,0.0,0.0,0.0,0.0,0.0,0.0,0.0,-5.5049,-5.4664,-5.3818,-5.3318,-5.351,-5.4357,-5.351,-5.2895,-5.25,-5.25,-5.2087,-5.1318,0.0,-5.1164,-5.1846,-5.101,-5.0933,-5.1202,-5.0818,-5.0712,-5.0789,-5.1587,-5.2192,-5.2538,-5.2038,-5.1654,-5.1279,-5.0827,-5.0712,-5.0712,-5.0712,-5.0971,-5.1356,-5.1769,-5.2577,-5.3126,-5.2279,-5.2318,-5.2395,-5.1548,-5.101,-5.0712,-5.0712,-5.0712,-5.0712,-5.0712,-5.1356,-5.2038,-5.25,-5.3318,-5.4049,-5.4472,-5.4164,-5.378,-5.3356,-5.2895,-5.2279,-5.1433,-5.1356,-5.0818,-4.951,-4.9048,-4.8048,-4.6317,-4.5825,-4.5594,-4.5594,-4.5594,-4.5594,-4.5594,-4.5594,-4.5594,-4.5594,-4.5594,-4.5594,-4.5594,-4.5594,-4.5402,-3.5613,-3.6904,-3.812,-3.8272,-3.9741,-4.1054,-4.0756,-4.0764,-4.1102,-4.2168,0.0,0.0,0.0,-4.4624,0.0,-4.8279,0.0,0.0,0.0,0.0,0.0,0.0,0.0,0.0,0.0,0.0,0.0,0.0,0.0,0.0,0.0,0.0,0.0,0.0,-5.4203,-5.378,-5.2895,-5.2231,-5.2346,-5.3203,-5.2308,-5.1885,-5.1885,-5.1885,-5.1808,-5.1587,-5.0971,-5.1048,-5.1587,-5.0933,-5.0712,-5.0712,-5.0712,-5.0827,-5.1087,-5.1895,-5.2615,-5.3087,-5.2423,-5.2077,-5.1769,-5.0971,-5.0712,-5.075,-5.0933,-5.0971,-5.1202,-5.2241,-5.3472,-5.428,-5.3433,-5.3356,-5.328,-5.2423,-5.1741,-5.1241,-5.101,-5.0971,-5.0933,-5.075,-5.1202,-5.1895,-5.2741,-5.3433,-5.4241,-5.5241,-5.4895,-5.4511,-5.4511,-5.3933,-5.3164,-5.2308,-5.2,-5.1231,-4.9548,-4.9202,-4.824,-4.6317,-4.5825,-4.5594,-4.5594,-4.5594,-4.5594,-4.5594,-4.5594,-4.5594,-4.5594,-4.5594,-4.5594,-4.5594,-4.5594,-4.5594,-3.6385,-3.7474,-3.8364,-3.8406,-3.9481,-4.0674,-4.1122,-4.2076,-4.3107,-4.397,0.0,0.0,0.0,-4.5624,-4.7548,-5.0096,0.0,0.0,0.0,0.0,0.0,0.0,0.0,0.0,0.0,0.0,0.0,0.0,0.0,0.0,0.0,0.0,0.0,0.0,0.0,-5.2895,-5.2,-5.1923,-5.2346,-5.3203,-5.2308,-5.1885,-5.1885,-5.1885,-5.151,-5.0789,-5.075,-5.075,-5.0789,-5.0712,-5.0712,-5.0712,-5.0712,-5.1164,-5.1923,-5.2779,-5.3164,-5.3203,-5.3126,-5.2577,-5.1769,-5.0971,-5.0712,-5.0827,-5.1587,-5.1808,-5.2154,-5.3857,-5.4395,-5.428,-5.3433,-5.3818,-5.4203,-5.3318,-5.3049,-5.2818,-5.2,-5.1808,-5.1587,-5.0818,-5.075,-5.1048,-5.1846,-5.2038,-5.2654,-5.4318,-5.4549,-5.4511,-5.4511,-5.4434,-5.4087,-5.3203,-5.2385,-5.1231,-4.9548,-4.8663,-4.8125,-4.7932,-4.6471,-4.5594,-4.5594,-4.5594,-4.5594,-4.5594,-4.5594,-4.5594,-4.5594,-4.5594,-4.5594,-4.5594,-4.5594,-4.5594,-3.7026,-3.8127,-3.9011,-3.8681,-4.0193,-4.1801,-4.2067,-4.3101,-4.426,-4.4956,-4.6624,0.0,0.0,0.0,-4.9125,0.0,0.0,0.0,0.0,0.0,0.0,0.0,0.0,0.0,0.0,0.0,0.0,0.0,0.0,0.0,0.0,0.0,0.0,0.0,0.0,-5.201,-5.1164,-5.1164,-5.1318,-5.1625,-5.1318,-5.1164,-5.1164,-5.1164,-5.0971,-5.0712,-5.0712,-5.0712,-5.0712,-5.0712,-5.0712,-5.0712,-5.0712,-5.151,-5.2731,-5.3087,-5.3857,-5.4664,-5.4164,-5.3433,-5.2587,-5.1741,-5.1471,-5.151,-5.1808,-5.2269,-5.2972,-5.4164,-5.4511,-5.4549,-5.4703,-5.4626,-5.4434,-5.4087,-5.3587,-5.3126,-5.2779,-5.2269,-5.1962,-5.2202,-5.1818,-5.1741,-5.2549,-5.3164,-5.3741,-5.4395,-5.4934,-5.5241,-5.5241,-5.5241,-5.4934,-5.4087,-5.2731,-5.1433,-5.0279,-4.9394,-4.8663,-4.8125,-4.6509,-4.5825,-4.6394,-4.5893,-4.5594,-4.5594,-4.5594,-4.5594,-4.5594,-4.5594,-4.5594,-4.5594,-4.5594,-4.5594,-3.6705,-3.759,-3.8488,-3.8469,-4.0375,-4.2538,-4.3703,-4.4785,-4.5847,-4.6975,-4.8492,-4.9514,-4.9255,0.0,0.0,0.0,0.0,0.0,0.0,0.0,0.0,0.0,0.0,0.0,0.0,0.0,0.0,0.0,0.0,0.0,0.0,0.0,0.0,0.0,0.0,-5.1279,-5.0712,-5.0712,-5.0712,-5.0712,-5.0712,-5.0712,-5.0712,-5.0712,-5.0712,-5.0712,-5.0712,-5.0712,-5.0712,-5.0712,-5.0712,-5.0712,-5.0712,-5.1702,-5.3203,-5.3203,-5.4241,-5.5588,-5.478,-5.3933,-5.3049,-5.2192,-5.1885,-5.1962,-5.2231,-5.2933,-5.378,-5.4626,-5.4895,-5.5011,-5.5549,-5.528,-5.4895,-5.4895,-5.4434,-5.3933,-5.3664,-5.3126,-5.2818,-5.3126,-5.25,-5.2192,-5.3049,-5.3472,-5.3857,-5.4434,-5.4972,-5.5318,-5.5318,-5.5549,-5.528,-5.4203,-5.301,-5.1856,-5.0789,-4.9894,-4.924,-4.8933,-4.7317,-4.6547,-4.6885,-4.6317,-4.6009,-4.6009,-4.5748,-4.5594,-4.5594,-4.5594,-4.5594,-4.5594,-4.5594,-4.5594,-3.5261,-3.5679,-3.6601,-3.7726,-3.9842,-4.2576,-4.6177,-4.7239,-4.8099,-5.0296,-5.0358,-4.9759,-4.8983,-4.9882,0.0,0.0,0.0,0.0,0.0,0.0,0.0,0.0,0.0,0.0,0.0,0.0,0.0,0.0,0.0,0.0,0.0,0.0,0.0,0.0,0.0,0.0,-5.0712,-5.0673,-5.0673,-5.0712,-5.0712,-5.0712,-5.0712,-5.0712,-5.0712,-5.0712,-5.0712,-5.0712,-5.0712,-5.0712,-5.0712,-5.0712,-5.0712,-5.1702,-5.3203,-5.3203,-5.4241,-5.5549,-5.478,-5.3933,-5.3049,-5.2192,-5.1923,-5.2077,-5.2933,-5.3818,-5.4664,-5.5472,-5.5703,-5.5703,-5.5703,-5.5703,-5.5703,-5.5703,-5.5703,-5.5472,-5.4664,-5.4511,-5.4241,-5.3395,-5.25,-5.2192,-5.3049,-5.25,-5.25,-5.4241,-5.4511,-5.4511,-5.4511,-5.5203,-5.5049,-5.3356,-5.3203,-5.251,-5.0827,-4.9894,-4.9779,-5.0635,-4.9086,-4.7778,-4.6962,-4.6885,-4.6885,-4.6885,-4.6047,-4.5594,-4.5594,-4.5594,-4.5594,-4.5594,-4.5594,-4.5594,-3.6964,-3.7505,-3.8507,-3.9466,-4.1645,-4.4102,-4.6105,-4.6902,0.0,0.0,-5.1599,-5.1129,-5.2145,0.0,0.0,0.0,0.0,0.0,0.0,0.0,0.0,0.0,0.0,0.0,0.0,0.0,0.0,0.0,0.0,0.0,0.0,0.0,0.0,0.0,0.0,0.0,-5.0712,-4.9471,-4.9163,-4.9779,-4.9779,-5.0087,-5.0712,-5.0712,-5.0712,-5.0712,-5.0712,-5.0712,-5.0712,-5.0712,-5.0712,-5.0712,-5.0712,-5.1356,-5.2269,-5.2269,-5.301,-5.401,-5.4357,-5.3549,-5.2346,-5.2692,-5.2818,-5.2741,-5.2385,-5.3741,-5.528,-5.4934,-5.5241,-5.5703,-5.5703,-5.5703,-5.5703,-5.5703,-5.5703,-5.5626,-5.5395,-5.4895,-5.4587,-5.4895,-5.428,-5.3818,-5.4087,-5.4357,-5.4549,-5.4511,-5.4972,-5.5126,-5.4549,-5.4703,-5.4203,-5.2462,-5.2818,-5.251,-5.0827,-5.0481,-5.0164,-4.9817,-4.9894,-4.9279,-4.7817,-4.7192,-4.6624,-4.6009,-4.5748,-4.5594,-4.5594,-4.5594,-4.5594,-4.5594,-4.5594,-4.5594,-3.6796,-3.7654,-3.9032,-4.0662,-4.3021,-4.5388,-4.701,0.0,0.0,0.0,-5.2526,-5.2281,-5.3348,0.0,0.0,0.0,0.0,0.0,0.0,0.0,0.0,0.0,0.0,0.0,0.0,0.0,0.0,0.0,0.0,0.0,0.0,0.0,0.0,0.0,0.0,0.0,-4.9663,-4.8625,-4.8355,-4.8894,-4.8894,-4.9163,-4.9663,-5.001,-5.0366,-5.0712,-5.0712,-5.0712,-5.0712,-5.0712,-5.0712,-5.0712,-5.0712,-5.1202,-5.1885,-5.1885,-5.2462,-5.3318,-5.4203,-5.3356,-5.2038,-5.2933,-5.2972,-5.2654,-5.2462,-5.3741,-5.5203,-5.5011,-5.5318,-5.5703,-5.5703,-5.5703,-5.5703,-5.5703,-5.5703,-5.5703,-5.5703,-5.5318,-5.5011,-5.5203,-5.4818,-5.4395,-5.4049,-5.4664,-5.4934,-5.4126,-5.4087,-5.428,-5.4472,-5.4203,-5.3587,-5.2538,-5.3203,-5.3164,-5.1818,-5.1395,-5.0933,-5.0433,-5.0587,-5.0048,-4.8663,-4.7817,-4.7124,-4.6586,-4.5941,-4.5594,-4.5594,-4.5594,-4.5594,-4.5594,-4.5594,-4.5594,-3.5715,-3.6895,-3.8715,-4.1594,-4.4282,-4.6703,-4.8712,-5.1282,-5.3167,-5.3115,0.0,-5.3349,-5.3418,0.0,0.0,0.0,0.0,0.0,0.0,0.0,0.0,0.0,0.0,0.0,0.0,0.0,0.0,0.0,0.0,0.0,0.0,0.0,0.0,0.0,0.0,0.0,-4.8125,-4.7971,-4.7894,0.0,-4.8009,-4.8009,-4.8009,-4.8894,-4.974,-5.0596,-5.0596,-5.0635,-5.0712,-5.0712,-5.0712,-5.0712,-5.0712,-5.1164,-5.1769,-5.1769,-5.2269,-5.3126,-5.4049,-5.328,-5.2038,-5.2933,-5.2731,-5.2269,-5.2895,-5.3818,-5.4741,-5.5395,-5.5626,-5.5703,-5.5703,-5.5703,-5.5703,-5.5703,-5.5703,-5.5703,-5.5703,-5.5703,-5.5472,-5.4664,-5.4511,-5.4203,-5.3356,-5.3857,-5.4126,-5.3318,-5.2538,-5.2538,-5.4087,-5.3626,-5.3164,-5.3087,-5.3933,-5.4164,-5.328,-5.2385,-5.1885,-5.1885,-5.1125,-5.0327,-4.9548,-4.8625,-4.8086,-4.8009,-4.6432,-4.5594,-4.5594,-4.5594,-4.5594,-4.5594,-4.5594,-4.5594,-3.8146,-3.8352,-3.9232,-4.3089,-4.663,-4.9534,-5.0985,-5.2296,-5.3041,-5.238,-5.3795,-5.5169,0.0,0.0,0.0,0.0,0.0,0.0,0.0,0.0,0.0,0.0,0.0,0.0,0.0,0.0,0.0,0.0,0.0,0.0,0.0,0.0,0.0,0.0,0.0,-4.7663,-4.8086,-4.6817,-4.6471,0.0,-4.7154,-4.7154,-4.7192,-4.8009,-4.8856,-4.9663,-4.9663,-5.0048,-5.0712,-5.0712,-5.0712,-5.0712,-5.0712,-5.0827,-5.0971,-5.0971,-5.1087,-5.1433,-5.2972,-5.2779,-5.2038,-5.2933,-5.3549,-5.3703,-5.2538,-5.3703,-5.5357,-5.4895,-5.5203,-5.5703,-5.5703,-5.5703,-5.5703,-5.5703,-5.5703,-5.5703,-5.5703,-5.5703,-5.5472,-5.4664,-5.4511,-5.4203,-5.3356,-5.3356,-5.3433,-5.3241,-5.3049,-5.2818,-5.25,-5.2895,-5.2933,-5.2231,-5.3587,-5.4164,-5.328,-5.2385,-5.1885,-5.1885,-5.1125,-5.0635,-5.0442,-4.8933,-4.7817,-4.7154,-4.6124,-4.5594,-4.5594,-4.5594,-4.5594,-4.5594,-4.5594,-4.5594,-3.8282,-3.8951,-4.0453,-4.4965,0.0,-4.9621,-5.1083,-5.1756,-5.194,-5.1499,-5.2921,0.0,0.0,0.0,0.0,0.0,0.0,0.0,0.0,0.0,0.0,0.0,0.0,0.0,0.0,0.0,0.0,0.0,0.0,0.0,0.0,0.0,0.0,0.0,-4.7115,-4.6894,-4.6894,-4.6056,-4.5825,-4.6278,-4.6278,-4.6278,-4.6317,-4.7548,-4.8125,-4.824,-4.9048,-4.9663,-5.0087,-5.0519,-5.0712,-5.0712,-5.0712,-5.0712,-5.0712,-5.0712,-5.0933,-5.1395,-5.2279,-5.2269,-5.1962,-5.2423,-5.2626,-5.2664,-5.2549,-5.3472,-5.4587,-5.4972,-5.5395,-5.5703,-5.5703,-5.5703,-5.5703,-5.5703,-5.5703,-5.5703,-5.5703,-5.5703,-5.5318,-5.4126,-5.4203,-5.3972,-5.2279,-5.2318,-5.2731,-5.3126,-5.2856,-5.2423,-5.1962,-5.2654,-5.2856,-5.2,-5.3472,-5.4164,-5.328,-5.2385,-5.1885,-5.1885,-5.1125,-5.0712,-5.0712,-4.9433,-4.8317,-4.7509,-4.624,-4.5594,-4.5594,-4.5594,-4.5594,-4.5594,-4.5594,-4.5594,-3.7673,-3.933,-4.1828,-4.6015,-4.7681,0.0,-5.0068,-5.0582,-5.0802,-5.0802,0.0,0.0,0.0,0.0,0.0,0.0,0.0,0.0,0.0,0.0,0.0,0.0,0.0,0.0,0.0,0.0,0.0,0.0,0.0,0.0,0.0,0.0,-4.6513,-4.6599,-4.6599,-4.6271,-4.5594,-4.5594,-4.5594,-4.5594,-4.5594,-4.5594,-4.5633,-4.7048,-4.7394,-4.6962,-4.8355,-4.9125,-4.9471,-5.0164,-5.0558,-5.0712,-5.0712,-5.0712,-5.0712,-5.0866,-5.1318,-5.1923,-5.2077,-5.2115,-5.2115,-5.2115,-5.1664,-5.1433,-5.2972,-5.3433,-5.3741,-5.528,-5.5703,-5.5703,-5.5703,-5.5703,-5.5703,-5.5703,-5.5703,-5.5703,-5.5703,-5.5703,-5.5203,-5.3549,-5.3549,-5.3164,-5.1058,-5.1356,-5.2115,-5.2664,-5.2269,-5.1885,-5.1885,-5.2654,-5.2933,-5.2192,-5.3549,-5.4164,-5.328,-5.2385,-5.1885,-5.1885,-5.1125,-5.0712,-5.0712,-4.9856,-4.9048,-4.8355,-4.6817,-4.5979,-4.5825,-4.5825,-4.5748,-4.5594,-4.5594,-4.5594,-3.7849,0.0,-4.2783,0.0,-4.6387,-4.8379,0.0,0.0,-5.0802,0.0,0.0,0.0,0.0,0.0,0.0,0.0,0.0,0.0,0.0,0.0,0.0,0.0,0.0,0.0,0.0,0.0,0.0,0.0,0.0,0.0,0.0,-4.4953,-4.5024,-4.5322,-4.5322,-4.5408,-4.5594,-4.5594,-4.5594,-4.5594,-4.5594,-4.5594,-4.5594,-4.5825,-4.6278,-4.6923,-4.7163,-4.8048,-4.9394,-4.951,-5.001,-5.0712,-5.0712,-5.0712,-5.0789,-5.1471,-5.1808,-5.2,-5.2769,-5.3049,-5.3049,-5.3049,-5.2972,-5.3049,-5.401,-5.4318,-5.4511,-5.5434,-5.5703,-5.5703,-5.5703,-5.5703,-5.5703,-5.5703,-5.5703,-5.5703,-5.5703,-5.5703,-5.5203,-5.3549,-5.2125,-5.1097,-5.075,-5.1356,-5.1692,-5.1125,-5.1548,-5.1885,-5.1885,-5.2654,-5.3164,-5.3049,-5.3895,-5.4164,-5.328,-5.2385,-5.1885,-5.1885,-5.1125,-5.0712,-5.0712,-4.9856,-4.9356,-4.924,-4.8279,-4.7432,-4.674,-4.674,-4.6355,-4.5594,-4.5594,-4.5594,-3.8227,-3.9416,-4.1006,0.0,-4.4682,-4.5957,-4.7296,0.0,-4.8196,0.0,0.0,0.0,0.0,0.0,0.0,0.0,0.0,0.0,0.0,0.0,0.0,0.0,0.0,0.0,0.0,0.0,0.0,0.0,0.0,0.0,-4.4261,-4.4455,-4.4676,-4.4825,-4.4988,-4.518,-4.5303,-4.5523,-4.5594,-4.5594,-4.5594,-4.5594,-4.5594,-4.5594,-4.5825,-4.6201,-4.6701,-4.7586,-4.8702,-4.9202,-4.9894,-5.0712,-5.0712,-5.0712,-5.075,-5.1087,-5.151,-5.1885,-5.1818,-5.2087,-5.2395,-5.1933,-5.1779,-5.2049,-5.3356,-5.378,-5.4049,-5.5318,-5.5703,-5.5703,-5.5703,-5.5703,-5.5703,-5.5703,-5.5703,-5.5703,-5.5703,-5.5703,-5.5203,-5.3549,-5.1856,-5.0712,-5.0712,-5.1356,-5.1625,-5.0827,-5.1395,-5.1885,-5.1885,-5.2654,-5.3203,-5.3203,-5.3972,-5.3933,-5.2577,-5.2115,-5.1692,-5.1279,-5.0894,-5.0712,-5.0712,-5.0327,-5.0125,-5.0125,-4.8779,-4.7932,-4.7586,-4.7115,-4.6701,-4.6317,-4.5825,-4.5594,-3.7808,0.0,-3.9019,-4.1625,-4.291,-4.3975,0.0,0.0,0.0,0.0,0.0,0.0,0.0,0.0,0.0,0.0,0.0,0.0,0.0,0.0,0.0,0.0,0.0,0.0,0.0,0.0,0.0,0.0,0.0,0.0,-4.3881,-4.4169,-4.4383,-4.4428,-4.4676,-4.4884,-4.4966,-4.5293,-4.5532,-4.5594,-4.5594,-4.5594,-4.5594,-4.5594,-4.5594,-4.5633,-4.6278,-4.7163,-4.8163,-4.8817,-4.9702,-5.0712,-5.0712,-5.0712,-5.0712,-5.0933,-5.1395,-5.1808,-5.1202,-5.1395,-5.1808,-5.1202,-5.0856,-5.1058,-5.2933,-5.3395,-5.3549,-5.5241,-5.5703,-5.5703,-5.5703,-5.5703,-5.5703,-5.5703,-5.5703,-5.5703,-5.5703,-5.5549,-5.4972,-5.351,-5.201,-5.0933,-5.075,-5.1202,-5.1471,-5.1048,-5.1356,-5.1818,-5.2462,-5.2933,-5.328,-5.351,-5.4126,-5.3895,-5.2346,-5.2038,-5.1654,-5.1048,-5.0827,-5.0712,-5.0712,-5.0712,-5.0712,-5.0712,-4.9433,-4.8663,-4.8432,-4.7817,-4.7317,-4.6885,-4.624,-4.5825,0.0,-3.6978,0.0,-3.8726,-4.1222,-4.3551,0.0,0.0,0.0,0.0,0.0,0.0,0.0,0.0,0.0,0.0,0.0,0.0,0.0,0.0,0.0,0.0,0.0,0.0,0.0,0.0,0.0,0.0,0.0,0.0,-4.3549,-4.3566,-4.3693,-4.4013,-4.4043,-4.4233,-4.4637,-4.4954,-4.5273,-4.5594,-4.5594,-4.5594,-4.5594,-4.5594,-4.5594,-4.5594,-4.5633,-4.6586,-4.8086,-4.8163,-4.9163,-5.0712,-5.0712,-5.0712,-5.0789,-5.1548,-5.1846,-5.1885,-5.1846,-5.1846,-5.1885,-5.1846,-5.1318,-5.1174,-5.3664,-5.3857,-5.3549,-5.5241,-5.5703,-5.5703,-5.5703,-5.5703,-5.5703,-5.5703,-5.5703,-5.5703,-5.5703,-5.5088,-5.428,-5.3395,-5.2462,-5.1587,-5.0827,-5.075,-5.101,-5.1731,-5.1202,-5.1625,-5.4049,-5.3664,-5.351,-5.4357,-5.4472,-5.4126,-5.3203,-5.2385,-5.1885,-5.1846,-5.1125,-5.0712,-5.0712,-5.0712,-5.0712,-5.0712,-5.0596,-5.0164,-4.9317,-4.9279,-4.8432,-4.6885,-4.6846,-4.6394,0.0,0.0,0.0,-3.8615,-3.9937,-4.1442,-4.247,0.0,0.0,0.0,0.0,0.0,0.0,0.0,0.0,0.0,0.0,0.0,0.0,0.0,0.0,0.0,0.0,0.0,0.0,0.0,0.0,0.0,0.0,0.0,-4.3515,-4.3515,-4.3546,-4.366,-4.3896,-4.419,-4.4612,-4.4726,-4.4943,-4.5273,-4.5273,-4.54,-4.5594,-4.5594,-4.5594,-4.5594,-4.5594,-4.624,-4.7355,-4.7894,-4.8817,-4.9933,-5.0481,-5.0712,-5.075,-5.101,-5.1125,-5.1125,-5.1125,-5.1125,-5.1125,-5.1125,-5.0933,-5.1058,-5.3049,-5.3433,-5.3549,-5.5241,-5.5318,-5.5049,-5.5549,-5.5318,-5.5049,-5.5588,-5.5318,-5.4934,-5.4934,-5.4241,-5.3395,-5.2538,-5.1702,-5.1202,-5.1433,-5.1471,-5.1587,-5.1846,-5.1654,-5.201,-5.3472,-5.3395,-5.3741,-5.5126,-5.528,-5.4934,-5.4087,-5.3741,-5.3087,-5.1962,-5.1625,-5.1241,-5.0712,-5.0712,-5.0712,-5.0712,-5.0712,-5.0558,-5.025,-4.9663,-4.8817,-4.7663,-4.7663,-4.724,-3.6523,0.0,0.0,0.0,-3.9313,-4.0157,-4.1258,0.0,0.0,0.0,0.0,0.0,0.0,0.0,0.0,0.0,0.0,0.0,0.0,0.0,0.0,0.0,0.0,0.0,0.0,0.0,0.0,0.0,0.0,0.0,-4.3515,-4.3515,-4.3515,-4.3515,-4.371,-4.4035,-4.4387,-4.4387,-4.4561,-4.4931,-4.4931,-4.5033,-4.5263,-4.5263,-4.5313,-4.5429,-4.5429,-4.5975,-4.6962,-4.7778,-4.8625,-4.9471,-5.0366,-5.0712,-5.0712,-5.0712,-5.0712,-5.0712,-5.0712,-5.0712,-5.0712,-5.0712,-5.0712,-5.102,-5.2702,-5.3203,-5.351,-5.4895,-5.4895,-5.4626,-5.5164,-5.5088,-5.5049,-5.5549,-5.5088,-5.4511,-5.4511,-5.3818,-5.2933,-5.2077,-5.1702,-5.1625,-5.1846,-5.1885,-5.2,-5.2269,-5.1856,-5.201,-5.3433,-5.3395,-5.3857,-5.5511,-5.5703,-5.5472,-5.4934,-5.4664,-5.3895,-5.2423,-5.2038,-5.1548,-5.075,-5.0712,-5.0712,-5.0712,-5.0712,-5.0712,-5.0712,-5.0125,-4.924,-4.8125,-4.8394,-4.8086,0.0,0.0,0.0,0.0,0.0,0.0,-3.9863,0.0,0.0,0.0,0.0,0.0,0.0,0.0,0.0,0.0,0.0,0.0,0.0,0.0,0.0,0.0,0.0,0.0,0.0,0.0,0.0,0.0,0.0,-4.3515,-4.3515,-4.3515,-4.3515,-4.3515,-4.3515,-4.3681,-4.3967,-4.3967,-4.4175,-4.4599,-4.4599,-4.4599,-4.4612,-4.4612,-4.4788,-4.5105,-4.5105,-4.576,-4.6914,-4.7731,-4.8586,-4.9433,-5.0327,-5.0673,-5.0712,-5.0712,-5.0712,-5.0712,-5.0712,-5.0712,-5.0712,-5.0712,-5.0712,-5.102,-5.2664,-5.3164,-5.3356,-5.4203,-5.4434,-5.4434,-5.4434,-5.5088,-5.5703,-5.5703,-5.5049,-5.4472,-5.4472,-5.3818,-5.2933,-5.2115,-5.2577,-5.2895,-5.2077,-5.1923,-5.2192,-5.3049,-5.1779,-5.1635,-5.4126,-5.3703,-5.3857,-5.5511,-5.5703,-5.5703,-5.5703,-5.4972,-5.4164,-5.328,-5.2423,-5.1587,-5.0789,-5.0712,-5.0712,-5.0712,-5.0712,-5.0712,-5.0712,-5.0712,-4.9817,-4.8163,-4.9009,-4.8933,-3.7713,0.0,0.0,0.0,0.0,0.0,-3.8909,-3.8762,0.0,0.0,0.0,0.0,0.0,0.0,0.0,0.0,0.0,0.0,0.0,0.0,0.0,0.0,0.0,0.0,0.0,0.0,0.0,0.0,-4.3515,-4.3515,-4.3515,-4.3515,-4.3515,-4.3515,-4.3515,-4.3529,-4.3647,-4.3647,-4.3839,-4.4161,-4.4161,-4.4304,-4.4612,-4.4612,-4.4663,-4.4751,-4.4751,-4.5083,-4.5674,-4.6781,-4.774,-4.8548,-4.9433,-5.0125,-5.0712,-5.0712,-5.0712,-5.0712,-5.0712,-5.0712,-5.0712,-5.0712,-5.0712,-5.0904,-5.1933,-5.2269,-5.2423,-5.3318,-5.3126,-5.2769,-5.3395,-5.4626,-5.5703,-5.5703,-5.4587,-5.3741,-5.4357,-5.3318,-5.2385,-5.2769,-5.2538,-5.2385,-5.2779,-5.2308,-5.1962,-5.2231,-5.1846,-5.2049,-5.3395,-5.3356,-5.3857,-5.5511,-5.5703,-5.5703,-5.5703,-5.5511,-5.5011,-5.4203,-5.3318,-5.2472,-5.1587,-5.101,-5.0712,-5.0712,-5.0712,-5.0712,-5.0712,-5.0712,-5.0125,-4.9048,-4.9279,-4.9279,-3.946,-4.0267,0.0,0.0,0.0,0.0,-3.8175,-3.7603,-3.7162,0.0,0.0,0.0,0.0,0.0,0.0,0.0,0.0,0.0,0.0,0.0,0.0,0.0,0.0,0.0,0.0,0.0,0.0,0.0,-4.3167,-4.313,-4.3478,-4.3515,-4.3515,-4.3515,-4.3515,-4.3515,-4.3515,-4.3515,-4.3597,-4.377,-4.377,-4.3912,-4.414,-4.414,-4.4227,-4.4346,-4.4346,-4.4548,-4.4946,-4.566,-4.6779,-4.8202,-4.9048,-4.9933,-5.0712,-5.0712,-5.0712,-5.0712,-5.0712,-5.0712,-5.0712,-5.0712,-5.0712,-5.0856,-5.1654,-5.2154,-5.2462,-5.2615,-5.2269,-5.2115,-5.2972,-5.4203,-5.5203,-5.5203,-5.4164,-5.3356,-5.3857,-5.3164,-5.2577,-5.3087,-5.3087,-5.3164,-5.3664,-5.3318,-5.2856,-5.25,-5.2115,-5.2077,-5.2577,-5.2972,-5.3703,-5.5049,-5.5511,-5.5703,-5.5703,-5.5703,-5.5357,-5.4549,-5.401,-5.3356,-5.2462,-5.1625,-5.1202,-5.1202,-5.0856,-5.0712,-5.0712,-5.0712,-5.0442,-4.9933,-4.9202,-4.924,-4.1279,-4.1682,-4.2103,0.0,-3.99,0.0,-3.7713,-3.6868,-3.6083,0.0,0.0,0.0,0.0,0.0,0.0,0.0,0.0,0.0,0.0,0.0,0.0,0.0,0.0,0.0,0.0,0.0,-4.247,-4.3167,-4.2653,-4.2616,-4.3331,-4.3441,-4.3515,-4.3515,-4.3515,-4.3515,-4.3515,-4.3515,-4.3515,-4.3515,-4.3515,-4.3515,-4.3515,-4.3515,-4.3644,-4.3921,-4.3921,-4.4161,-4.4508,-4.4508,-4.5905,-4.8126,-4.8894,-4.9798,-5.0712,-5.0712,-5.0654,-5.0634,-5.0702,-5.0654,-5.0634,-5.0702,-5.0712,-5.0827,-5.1548,-5.2318,-5.2779,-5.1962,-5.1846,-5.2077,-5.2856,-5.378,-5.4511,-5.4511,-5.3818,-5.3241,-5.3318,-5.3203,-5.3126,-5.3318,-5.3972,-5.4511,-5.4511,-5.4434,-5.4087,-5.3318,-5.2538,-5.2038,-5.2038,-5.2818,-5.3626,-5.4434,-5.5203,-5.5703,-5.5703,-5.5703,-5.5395,-5.4664,-5.4549,-5.4164,-5.3395,-5.25,-5.2,-5.1885,-5.1125,-5.0712,-5.0712,-5.0712,-5.0712,-5.0673,-4.9125,-4.9202,0.0,0.0,0.0,0.0,0.0,0.0,-3.7823,-3.6868,-3.6266,0.0,0.0,0.0,0.0,0.0,0.0,0.0,0.0,0.0,0.0,0.0,0.0,0.0,0.0,0.0,0.0,0.0,-4.1389,-4.1552,-4.2029,-4.2359,-4.2543,-4.313,-4.3515,-4.3515,-4.3515,-4.3515,-4.3515,-4.3515,-4.3515,-4.3515,-4.3515,-4.3515,-4.3515,-4.3515,-4.3549,-4.3597,-4.3597,-4.3807,-4.4117,-4.4117,-4.5517,-4.7707,-4.7859,-4.9071,-5.0712,-5.0712,-5.0493,-5.0241,-5.0594,-5.0483,-5.0291,-5.0604,-5.0712,-5.075,-5.0894,-5.1048,-5.1164,-5.0971,-5.1395,-5.1923,-5.2115,-5.3318,-5.4511,-5.4511,-5.3818,-5.3395,-5.4087,-5.3126,-5.2577,-5.3972,-5.4395,-5.4511,-5.4511,-5.3933,-5.3395,-5.3241,-5.3049,-5.2972,-5.2972,-5.3703,-5.4318,-5.4472,-5.5203,-5.5703,-5.5703,-5.5703,-5.5626,-5.5472,-5.4857,-5.4434,-5.4241,-5.3395,-5.2615,-5.1923,-5.1125,-5.0712,-5.0712,-5.0712,-5.0712,-5.0712,-5.0366,-5.0366,0.0,0.0,0.0,-4.1405,0.0,0.0,0.0,-3.6817,-3.5899,0.0,0.0,0.0,0.0,0.0,0.0,0.0,0.0,0.0,0.0,0.0,0.0,0.0,0.0,0.0,0.0,0.0,-4.0487,-4.0487,-4.1625,-4.2286,-4.2286,-4.3057,-4.3515,-4.3515,-4.3515,-4.3515,-4.3515,-4.3515,-4.3515,-4.3515,-4.3515,-4.3515,-4.3515,-4.3515,-4.3515,-4.3515,-4.3515,-4.3597,-4.3758,-4.3758,-4.5058,-4.7095,-4.7462,-4.8482,-4.9876,-5.047,-5.0462,-5.0135,-5.0336,-5.0147,-4.9872,-5.0291,-5.038,-5.0451,-5.0634,-5.0712,-5.0789,-5.1202,-5.1318,-5.151,-5.2318,-5.2856,-5.3318,-5.3741,-5.3203,-5.2654,-5.3126,-5.2856,-5.2933,-5.4241,-5.4818,-5.5088,-5.5088,-5.4741,-5.4318,-5.3895,-5.3857,-5.3549,-5.2654,-5.3318,-5.3857,-5.3857,-5.4587,-5.5241,-5.5665,-5.5703,-5.5703,-5.5703,-5.5318,-5.5088,-5.5088,-5.3895,-5.2587,-5.1318,-5.0894,-5.0712,-5.0712,-5.0712,-5.0712,-5.0712,-5.0712,-5.0712,0.0,0.0,0.0,0.0,0.0,-4.001,0.0,0.0,0.0,0.0,0.0,0.0,0.0,0.0,0.0,0.0,0.0,0.0,0.0,0.0,0.0,0.0,0.0,0.0,0.0,0.0,-3.968,-3.968,-4.1001,-4.1919,-4.2066,-4.2837,-4.3314,-4.3515,-4.3515,-4.3515,-4.3515,-4.3515,-4.3515,-4.3515,-4.3515,-4.3515,-4.3515,-4.3515,-4.3515,-4.3515,-4.3515,-4.3515,-4.3515,-4.3515,-4.4563,-4.6233,-4.7046,-4.8047,-4.9122,-5.0117,-5.0206,-4.9885,-4.9962,-4.9714,-4.9445,-4.9859,-5.0024,-5.0171,-5.0584,-5.0712,-5.0827,-5.151,-5.1202,-5.102,-5.2356,-5.2433,-5.2308,-5.3049,-5.2779,-5.2385,-5.2385,-5.2818,-5.3472,-5.4318,-5.5011,-5.5511,-5.5665,-5.5703,-5.5472,-5.4818,-5.4587,-5.3933,-5.2346,-5.2769,-5.3126,-5.2972,-5.3895,-5.4741,-5.5395,-5.5588,-5.5703,-5.5703,-5.5703,-5.5703,-5.5703,-5.4241,-5.2741,-5.1202,-5.101,-5.0856,-5.0712,-5.0712,-5.0712,-5.0712,-5.0712,-5.0712,0.0,0.0,0.0,0.0,-4.1662,0.0,0.0,0.0,0.0,0.0,0.0,0.0,0.0,0.0,0.0,0.0,0.0,0.0,0.0,0.0,0.0,0.0,0.0,0.0,0.0,0.0,0.0,-3.8836,-3.968,-4.0487,-4.1205,-4.1992,-4.2763,-4.3478,-4.3515,-4.3515,-4.3515,-4.3515,-4.3515,-4.3515,-4.3515,-4.3515,-4.3515,-4.3515,-4.3515,-4.3515,-4.3515,-4.3515,-4.3515,-4.3515,-4.4046,-4.5033,-4.618,-4.7777,-4.9462,-4.958,-4.9386,-4.9092,-4.9445,-4.9311,-4.9027,-4.9431,-4.9819,-5.0171,-5.0584,-5.0712,-5.0712,-5.0827,-5.0789,-5.075,-5.0943,-5.201,-5.3087,-5.3164,-5.3703,-5.4203,-5.4203,-5.3664,-5.3472,-5.4318,-5.4549,-5.4857,-5.5588,-5.5703,-5.5665,-5.5588,-5.4972,-5.4164,-5.3164,-5.3126,-5.2895,-5.2115,-5.351,-5.4549,-5.4626,-5.528,-5.5703,-5.5703,-5.5703,-5.5703,-5.5703,-5.4818,-5.3895,-5.2933,-5.2164,-5.1395,-5.0712,-5.0712,-5.0712,-5.0712,-5.0712,-5.0712,0.0,0.0,0.0,0.0,0.0,0.0,-3.9328,0.0,-3.8065,0.0,0.0,0.0,0.0,0.0,0.0,0.0,0.0,0.0,0.0,0.0,0.0,0.0,0.0,0.0,0.0,0.0,0.0,0.0,0.0,-4.0047,-4.0377,-4.1625,-4.2433,-4.28,-4.324,-4.3515,-4.3515,-4.3515,-4.3515,-4.3515,-4.3515,-4.3515,-4.3515,-4.3515,-4.3515,-4.3515,-4.3515,-4.3515,-4.3515,-4.3515,-4.3975,-4.4763,-4.5267,-4.6397,-4.7875,-4.9077,-4.8949,-4.8278,-4.8942,-4.8898,-4.8622,-4.9011,-4.9431,-4.9846,-5.0218,-5.0347,-5.038,-5.0624,-5.0712,-5.0827,-5.1279,-5.1587,-5.1856,-5.2318,-5.2356,-5.2549,-5.3549,-5.3472,-5.3587,-5.4934,-5.5203,-5.528,-5.5626,-5.5703,-5.5703,-5.5703,-5.5011,-5.4203,-5.3318,-5.3203,-5.3049,-5.2692,-5.378,-5.4703,-5.5164,-5.5511,-5.5703,-5.5703,-5.5703,-5.5241,-5.428,-5.4395,-5.3857,-5.2462,-5.2577,-5.251,-5.2164,-5.2164,-5.2164,-5.2125,-5.1164,-5.0933,-4.3277,0.0,0.0,0.0,0.0,0.0,0.0,0.0,0.0,0.0,0.0,0.0,0.0,0.0,0.0,0.0,0.0,0.0,0.0,0.0,0.0,0.0,0.0,0.0,0.0,0.0,0.0,0.0,0.0,0.0,-3.99,-4.1222,-4.2066,-4.2286,-4.3057,-4.3515,-4.3515,-4.3515,-4.3515,-4.3515,-4.3515,-4.3515,-4.3515,-4.3515,-4.3515,-4.3515,-4.3515,-4.3515,-4.3515,-4.3515,-4.3975,-4.4728,-4.4966,-4.5434,-4.6252,-4.8124,-4.8306,-4.765,-4.8467,-4.8532,-4.8382,-4.8761,-4.9092,-4.9416,-4.9794,-4.9936,-5.0012,-5.0402,-5.0525,-5.0689,-5.1375,-5.1318,-5.1164,-5.1769,-5.1818,-5.2049,-5.328,-5.3741,-5.4241,-5.5472,-5.5703,-5.5703,-5.5703,-5.5703,-5.5703,-5.5703,-5.5011,-5.428,-5.3626,-5.3356,-5.3203,-5.3203,-5.3972,-5.4741,-5.5318,-5.5549,-5.5703,-5.5703,-5.5703,-5.5164,-5.3933,-5.4472,-5.4126,-5.2654,-5.3241,-5.3433,-5.3203,-5.3203,-5.3203,-5.3164,-5.1702,-5.1356,0.0,0.0,0.0,-4.2506,0.0,0.0,0.0,0.0,-3.9827,0.0,0.0,0.0,0.0,0.0,0.0,-3.8799,0.0,0.0,0.0,0.0,0.0,0.0,0.0,0.0,0.0,0.0,0.0,0.0,0.0,0.0,-3.9863,-4.0708,-4.1515,-4.2286,-4.3057,-4.3515,-4.3515,-4.3515,-4.3515,-4.3515,-4.3515,-4.3515,-4.3515,-4.3515,-4.3515,-4.3515,-4.3515,-4.3515,-4.3515,-4.3515,-4.3975,-4.4764,-4.5553,-4.5406,-4.4947,-4.6562,-4.715,-4.7241,-4.8031,-4.8306,-4.8382,-4.8761,-4.8895,-4.8978,-4.9401,-4.9518,-4.9589,-4.9999,-5.0123,-5.0206,-5.0642,-5.1318,-5.1885,-5.1885,-5.3164,-5.4395,-5.4434,-5.5049,-5.5626,-5.5703,-5.5703,-5.5703,-5.5703,-5.5703,-5.5703,-5.5703,-5.5011,-5.4472,-5.4472,-5.3703,-5.3203,-5.3203,-5.3972,-5.4511,-5.4549,-5.5241,-5.5703,-5.5703,-5.5703,-5.5665,-5.5626,-5.5665,-5.528,-5.4434,-5.4434,-5.4049,-5.3203,-5.3203,-5.3203,-5.3164,-5.2269,-5.1885,0.0,0.0,-4.3314,-4.2506,0.0,0.0,0.0,0.0,0.0,0.0,0.0,0.0,0.0,0.0,-4.0451,-3.9606,-3.9056,0.0,0.0,0.0,0.0,0.0,0.0,0.0,0.0,0.0,0.0,0.0,0.0,0.0,0.0,-3.9863,-4.0671,-4.1462,-4.2286,-4.2947,-4.3515,-4.3515,-4.3515,-4.3515,-4.3515,-4.3515,-4.3515,-4.3515,-4.3515,-4.3515,-4.3515,-4.3515,-4.3515,-4.3515,-4.3975,-4.4728,-4.5002,-4.5259,-4.57,-4.7315,-4.7241,-4.6507,-4.7829,-4.8306,-4.8325,-4.8458,-4.8477,-4.8568,-4.8961,-4.9092,-4.9249,-4.9924,-5.0111,-5.0183,-5.0604,-5.0894,-5.1241,-5.1769,-5.2346,-5.3087,-5.4241,-5.4703,-5.5049,-5.5588,-5.5703,-5.5703,-5.5703,-5.5703,-5.5703,-5.5703,-5.5011,-5.4511,-5.4511,-5.4241,-5.4049,-5.4049,-5.478,-5.528,-5.528,-5.5549,-5.5703,-5.5703,-5.5703,-5.5472,-5.4934,-5.5434,-5.5318,-5.4511,-5.5011,-5.5164,-5.4857,-5.4857,-5.4857,-5.4818,-5.401,-5.3318,-4.3515,-4.3515,0.0,-4.2873,-4.2506,0.0,-4.1662,0.0,0.0,0.0,0.0,0.0,0.0,0.0,0.0,-4.0084,-3.946,0.0,0.0,-3.6486,0.0,0.0,0.0,0.0,0.0,0.0,0.0,0.0,0.0,0.0,0.0,0.0,-4.0267,-4.1058,-4.1882,-4.269,-4.3515,-4.3515,-4.3515,-4.3515,-4.3515,-4.3515,-4.3515,-4.3515,-4.3515,-4.3515,-4.3515,-4.3515,-4.3515,-4.3791,-4.4232,-4.4764,-4.5315,-4.57,-4.6067,-4.7388,-4.7388,-4.6911,-4.7939,-4.8306,-4.8306,-4.8306,-4.8306,-4.8363,-4.8622,-4.8674,-4.879,-4.9267,-4.967,-4.9923,-5.0189,-5.0664,-5.1202,-5.1433,-5.1933,-5.2654,-5.3818,-5.428,-5.4741,-5.5549,-5.5703,-5.5703,-5.5703,-5.5703,-5.5703,-5.5703,-5.5241,-5.4934,-5.4934,-5.4934,-5.4934,-5.4934,-5.5395,-5.5703,-5.5703,-5.5703,-5.5703,-5.5703,-5.5703,-5.5472,-5.4934,-5.5434,-5.5588,-5.5395,-5.5588,-5.5857,-5.6165,-5.5857,-5.5703,-5.5665,-5.4857,-5.4049]},{"header":{"parameterUnit":"m.s-1","parameterCategory":1,"la1":30.6,"la2":29.2853,"lo1":-89.7004,"lo2":-87.6739,"dy":0.0162,"dx":0.0183,"nx":112,"ny":82,"refTime":"2024-04-12T06:00:00:Z","depth":0,"parameterNumber":3,"parameterNumberName":"V-component_of_WINDS"},"data":[0.0,0.0,0.0,0.0,0.0,0.0,0.0,0.0,0.0,0.0,0.0,0.0,0.0,0.0,0.0,0.0,0.0,0.0,0.0,0.0,0.0,0.0,0.0,0.0,0.0,0.0,0.0,0.0,0.0,0.0,0.0,0.0,0.0,0.0,0.0,0.0,0.0,0.0,0.0,0.0,0.0,0.0,0.0,0.0,0.0,0.0,0.0,0.0,0.0,0.0,0.0,0.0,0.0,0.0,0.0,0.0,0.0,0.0,0.0,0.0,0.0,0.0,0.0,0.0,0.0,0.0,0.0,0.0,0.0,0.0,0.0,0.0,0.0,0.0,0.0,0.0,0.0,0.0,0.0,0.0,0.0,0.0,0.0,0.0,0.0,0.0,0.0,0.0,0.0,0.0,0.0,0.0,0.0,0.0,0.0,0.0,0.0,0.0,0.0,0.0,0.0,0.0,0.0,0.0,0.0,0.0,0.0,0.0,0.0,0.0,0.0,0.0,0.0,0.0,0.0,0.0,0.0,0.0,0.0,0.0,0.0,0.0,0.0,0.0,0.0,0.0,0.0,0.0,0.0,0.0,0.0,0.0,0.0,0.0,0.0,0.0,0.0,0.0,0.0,0.0,0.0,0.0,0.0,0.0,0.0,0.0,0.0,0.0,0.0,0.0,0.0,0.0,0.0,0.0,0.0,0.0,0.0,0.0,0.0,0.0,0.0,0.0,0.0,0.0,0.0,0.0,0.0,0.0,0.0,0.0,0.0,0.0,0.0,0.0,0.0,0.0,0.0,0.0,0.0,0.0,0.0,0.0,0.0,0.0,0.0,0.0,0.0,0.0,0.0,0.0,0.0,0.0,0.0,0.0,0.0,0.0,0.0,0.0,0.0,0.0,0.0,0.0,0.0,0.0,0.0,0.0,0.0,0.0,0.0,0.0,0.0,0.0,0.0,0.0,0.0,0.0,0.0,0.0,0.0,0.0,0.0,0.0,0.0,0.0,0.0,0.0,0.0,0.0,0.0,0.0,0.0,0.0,0.0,0.0,0.0,0.0,0.0,0.0,0.0,0.0,0.0,0.0,0.0,0.0,0.0,0.0,0.0,0.0,0.0,0.0,0.0,0.0,0.0,0.0,0.0,0.0,0.0,0.0,0.0,0.0,0.0,0.0,0.0,0.0,0.0,0.0,0.0,0.0,0.0,0.0,0.0,0.0,0.0,0.0,0.0,0.0,0.0,0.0,0.0,0.0,0.0,0.0,0.0,0.0,0.0,0.0,0.0,0.0,0.0,0.0,0.0,0.0,0.0,0.0,0.0,0.0,0.0,0.0,0.0,0.0,0.0,0.0,0.0,0.0,0.0,0.0,0.0,0.0,0.0,0.0,0.0,0.0,0.0,0.0,0.0,0.0,0.0,0.0,0.0,0.0,0.0,0.0,0.0373,0.0,0.0,0.0,0.0,0.0,0.0,0.0,0.0,0.0,0.0,0.0,0.0,0.0,0.0,0.0,0.0,0.0,0.0,0.0,0.0,0.0,0.0,0.0,0.0,0.0,0.0,0.0,0.0,0.0,0.0,0.0,0.0,0.0,0.0,0.0,0.0,0.0,0.0,0.0,0.0,0.0,0.0,0.0,0.0,0.0,0.0,0.0,0.0,0.0,0.0,0.0,0.0,0.0,0.0,0.0,0.0,0.0,0.0,0.0,0.0,0.0,0.0,0.0,0.0,0.0,0.0,0.0,0.0,0.0,0.0,0.0,0.0,0.0,0.0,0.0,0.0,0.0,0.0,0.0,0.0,0.0,0.0,0.0,0.0,0.0,0.0,0.0,0.0,0.0,0.0,0.0,0.0,0.0,0.0,0.0,0.0,0.0,0.0,0.0,0.0,0.0,0.0,0.0,0.0,0.0,0.0,0.0,0.0,0.0,0.0078,0.0247,0.0804,0.0,0.0,0.0,0.0,0.0,0.0,0.0,0.0,0.0,0.0,0.0,0.0,0.0,0.0,0.0,0.0,0.0,0.0,0.0,0.0,0.0,0.0,0.0,0.0,0.0,0.0,0.0,0.0,0.0,0.0,0.0,0.0,0.0,0.0,0.0,0.0,0.0,0.0,0.0,0.0,0.0,0.0,0.0,0.0,0.0,0.0,0.0,0.0,0.0,0.0,0.0,0.0,0.0,0.0,0.0,0.0,0.0,0.0,0.0,0.0,0.0,0.0,0.0,0.0,0.0,0.0,0.0,0.0,0.0,0.0,0.0,0.0,0.0,0.0,0.0,0.0,0.0,0.0,0.0,0.0,0.0,0.0,0.0,0.0,0.0,0.0,0.0,0.0,0.0,0.0,0.0,0.0,0.0,0.0,0.0,0.0,0.0,0.0,0.0,0.0,0.0,0.0,0.0,0.0,0.0,0.0,0.0,0.0,0.0,0.0305,0.0987,0.1072,0.0,0.0,0.0,0.0,0.0,0.0,0.0,0.0,0.0,0.0,0.0,0.0,0.0,0.0,0.0,0.0,0.0,0.0,0.0,0.0,0.0,0.0,0.0,0.0,0.0,0.0,0.0,0.0,0.0,0.0,0.0,0.0,0.0,0.0,0.0,0.0,0.0,0.0,0.0,0.0,0.0,0.0,0.0,0.0,0.0,0.0,0.0,0.0,0.0,0.0,0.0,0.0,0.0,0.0,0.0,0.0,0.0,0.0,0.0,0.0,0.0,0.0,0.0,0.0,0.0,0.0,0.0,0.0,0.0,0.0,0.0,0.0,0.0,0.0,0.0,0.0,0.0,0.0,0.0,0.0,0.0,0.0,0.0,0.0,0.0,0.0,0.0,0.0,0.0,0.0,0.0,0.0,0.0,0.0,0.0,0.0,0.0,0.0,0.0,0.0,0.0,0.0,0.0,0.0,0.0,0.0,0.0,0.0,0.0,0.0326,0.1037,0.0,0.0,0.0,0.0,0.0,0.0,0.0,0.0,0.0,0.0,0.0,0.0,0.0,0.0,0.0,0.0,0.0,0.0,0.0,0.0,0.0,0.0,0.0,0.0,0.0,0.0,0.0,0.0,0.0,0.0,0.0,0.0,0.0,0.0,0.0,0.0,0.0,0.0,0.0,0.0,0.0,0.0,0.0,0.0,0.0,0.0,0.0,0.0,0.0,0.0,0.0,0.0,0.0,0.0,0.0,0.0,0.0,0.0,0.0,0.0,0.0,0.0,0.0,0.0,0.0,0.0,0.0,0.0,0.0,0.0,0.0,0.0,0.0,0.0,0.0,0.0,0.0,0.0,0.0,0.0,0.0,0.0,0.0,0.0,0.0,0.0,0.0,0.0,0.0,0.0,0.0,0.0,0.0,0.0,0.0,0.0,0.0,0.0,0.0,0.0,0.0,0.0,0.0,0.0,0.0,0.0,0.0,0.0,0.0,0.0,0.0314,0.1068,0.0,0.0,0.0,0.0,0.0,0.0,0.0,0.0,0.0,0.0,0.0,0.0,0.0,0.0,0.0,0.0,0.0,0.0,0.0,0.0,0.0,0.0,0.0,0.0,0.0,0.0,0.0,0.0,0.0,0.0,0.0,0.0,0.0,0.0,0.0,0.0,0.0,0.0,0.0,0.0,0.0,0.0,0.0,0.0,0.0,0.0,0.0,0.0,0.0,0.0,0.0,0.0,0.0,0.0,0.0,0.0,0.0,0.0,0.0,0.0,0.0,0.0,0.0,0.0,0.0,0.0,0.0,0.0,0.0,0.0,0.0,0.0,0.0,0.0,0.0,0.0,0.0,0.0,0.0,0.0,0.0,0.0,0.0,0.0,0.0,0.0,0.0,0.0,0.0,0.0,0.0,0.0,0.0,0.0,0.0,0.0,0.0,0.0,0.0,0.0,0.0,0.0,0.0,0.0,0.0,0.0,0.0,0.0,0.0,0.0,0.0308,0.0,0.0,0.0,0.0,0.0,0.0,0.0,0.0,0.0,0.0,0.0,0.0,0.0,0.0,0.0,0.0,0.0,0.0,0.0,0.0,0.0,0.0,0.0,0.0,0.0,0.0,0.0,0.0,0.0,0.0,0.0,0.0,0.0,0.0,0.0,0.0,0.0,0.0,0.0,0.0,0.0,0.0,0.0,0.0,0.0,0.0,0.0,0.0,0.0,0.0,0.0,0.0,0.0,0.0,0.0,0.0,0.0,0.0,0.0,0.0,0.0,0.0,0.0,0.0,0.0,0.0,0.0,0.0,0.0,0.0,0.0,0.0,0.0,0.0,0.0,0.0,0.0,0.0,0.0,0.0,0.0,0.0,0.0,0.0,0.0,0.0,0.0,0.0,0.0,0.0,0.0,0.0,0.0,0.0,0.0,0.0,0.0,0.0,0.0,0.0,0.0,0.0,0.0,0.0,0.0,0.0,0.0,0.0,0.0,0.0,0.0,0.03,0.1065,0.0,0.0,0.0,0.0,0.0,0.0,0.0,0.0,0.0,0.0,0.0,0.0,0.0,0.0,0.0,0.0,0.0,0.0,0.0,0.0,0.0,0.0,0.0,0.0,0.0,0.0,0.0,0.0,0.0,0.0,0.0,0.0,0.0,0.0,0.0,0.0,0.0,0.0,0.0,0.0,0.0,0.0,0.0,0.0,0.0,0.0,0.0,0.0,0.0,0.0,0.0,0.0,0.0,0.0,0.0,0.0,0.0,0.0,0.0,0.0,0.0,0.0,0.0,0.0,0.0,0.0,0.0,0.0,0.0,0.0,0.0,0.0,0.0,0.0,0.0,0.0,0.0,0.0,0.0,0.0,0.0,0.0,0.0,0.0,0.0,0.0,0.0,0.0,0.0,0.0,0.0,0.0,0.0,0.0,0.0,0.0,0.0,0.0,0.0,0.0,0.0,0.0,0.0,0.0,0.016,0.0586,0.063,0.0776,0.114,0.1091,0.1245,0.1636,0.0,0.0,0.0,0.0,0.0,0.0,0.0,0.0,0.0,0.0,0.0,0.0,0.0,0.0,0.0,0.0,0.0,0.0,0.0,0.0,0.0,0.0,0.0,0.0,0.0,0.0,0.0,0.0,0.0,0.0,0.0,0.0,0.0,0.0,0.0,0.0,0.0,0.0,0.0,0.0,0.0,0.0,0.0,0.0,0.0,0.0,0.0,0.0,0.0,0.0,0.0,0.0,0.0,0.0,0.0,0.0,0.0,0.0,0.0,0.0,0.0,0.0,0.0,0.0,0.0,0.0,0.0,0.0,0.0,0.0,0.0,0.0,0.0,0.0,0.0,0.0,0.0,0.0,0.0,0.0,0.0,0.0,0.0,0.0,0.0,0.0,0.0,0.0,0.0,0.0,0.0,0.0,0.0,0.0,0.0,0.0,0.0,0.0,0.0,0.0,0.0,0.0,0.0144,0.0152,0.0557,0.1616,0.1708,0.2027,0.2835,0.2764,0.264,0.2499,0.0,0.0,0.0,0.0,0.0,0.0,0.0,0.0,0.0,0.0,0.0,0.0,0.0,0.0,0.0,0.0,0.0,0.0,0.0,0.0,0.0,0.0,0.0,0.0,0.0,0.0,0.0,0.0,0.0,0.0,0.0,0.0,0.0,0.0,0.0,0.0,0.0,0.0,0.0,0.0,0.0,0.0,0.0,0.0,0.0,0.0,0.0,0.0,0.0,0.0,0.0,0.0,0.0,0.0,0.0,0.0,0.0,0.0,0.0,0.0,0.601,0.0,0.0,0.0,0.0,0.0,0.0,0.0,0.0,0.0,0.0,0.0,0.0,0.0,0.0,0.0,0.0,0.0,0.0,0.0,0.0,0.0,0.0,0.0,0.0,0.0,0.0,0.0,0.0,0.0,0.0,0.0,0.0,0.0,0.0,0.0,0.0,0.0,0.0,0.0,0.0,0.0,0.1148,0.127,0.1654,0.2689,0.2698,0.2682,0.2868,0.269,0.2525,0.2496,0.3007,0.0,0.0,0.0,0.0,0.0,0.0,0.0,0.0,0.0,0.0,0.0,0.0,0.0,0.0,0.0,0.0,0.0,0.0,0.0,0.0,0.0,0.0,0.0,0.0,0.0,0.0,0.0,0.0,0.0,0.0,0.0,0.0,0.0,0.0,0.0,0.0,0.0,0.0,0.0,0.0,0.0,0.0,0.0,0.0,0.0,0.0,0.0,0.0,0.0,0.0,0.0,0.0,0.0,0.0,0.0,0.0,0.0,0.0,0.0,0.0,0.6268,0.0,0.0,0.0,0.0,0.0,0.0,0.0,0.0,0.0,0.0,0.0,0.0,0.0,0.0,0.0,0.0,0.0,0.0,0.0,0.0,0.0,0.0,0.0,0.0,0.0,0.0,0.0,0.0,0.0,0.0,0.0,0.0,0.0,0.0,0.0,0.0,0.0,0.0,0.0,0.0,0.151,0.197,0.2664,0.374,0.3748,0.3832,0.4261,0.3943,0.3709,0.3661,0.3788,0.0,0.0,0.0,0.0,0.0,0.0,0.0,0.0,0.0,0.0,0.0,0.0,0.0,0.0,0.0,0.0,0.0,0.0,0.0,0.0,0.0,0.0,0.0,0.0,0.0,0.0,0.0,0.0,0.0,0.0,0.0,0.0,0.0,0.0,0.0,0.0,0.0,0.0,0.0,0.0,0.0,0.0,0.0,0.0,0.0,0.0,0.0,0.0,0.0,0.0,0.0,0.0,0.0,0.7584,0.7645,0.7712,0.7584,0.7562,0.7468,0.7095,0.679,0.6552,0.0,0.0,0.0,0.0,0.0,0.0,0.0,0.0,0.0,0.0,0.0,0.0,0.0,0.0,0.0,0.0,0.0,0.0,0.0,0.0,0.0,0.0,0.0,0.0,0.0,0.5976,0.5969,0.0,0.0,0.0,0.0,0.0,0.0,0.0,0.0,0.0,0.0,0.0,0.0,0.2099,0.2756,0.3658,0.4896,0.4853,0.5005,0.5748,0.5332,0.5015,0.4894,0.4662,0.4491,0.0,0.0,0.0,0.0,0.0,0.0,0.0,0.0,0.0,0.0,0.0,0.0,0.0,0.0,0.0,0.0,0.0,0.0,0.0,0.0,0.0,0.0,0.0,0.0,0.0,0.0,0.0,0.0,0.0,0.0,0.0,0.0,0.6824,0.6715,0.0,0.0,0.0,0.0,0.0,0.0,0.0,0.0,0.0,0.0,0.0,0.0,0.0,0.7394,0.7692,0.7957,0.8113,0.8204,0.8411,0.8411,0.818,0.8211,0.8079,0.7901,0.784,0.0,0.6858,0.6722,0.0,0.0,0.0,0.0,0.0,0.0,0.0,0.0,0.0,0.0,0.0,0.0,0.0,0.0,0.0,0.0,0.0,0.0,0.0,0.0,0.0,0.0,0.6238,0.6238,0.6252,0.6252,0.0,0.5225,0.4389,0.4378,0.0,0.0,0.0,0.0,0.0,0.0,0.0,0.0,0.4156,0.4395,0.4942,0.6132,0.5865,0.566,0.5806,0.5277,0.4908,0.4887,0.4662,0.4491,0.4491,0.4491,0.0,0.0,0.0,0.0,0.0,0.0,0.0,0.0,0.0,0.0,0.0,0.0,0.0,0.0,0.0,0.0,0.0,0.0,0.0,0.0,0.0,0.0,0.0,0.0,0.0,0.0,0.0,0.0,0.0,0.679,0.6889,0.6903,0.6964,0.7004,0.0,0.0,0.0,0.0,0.0,0.0,0.0,0.0,0.0,0.7889,0.7957,0.818,0.856,0.875,0.8907,0.9022,0.9069,0.9062,0.9015,0.89,0.8784,0.8655,0.8486,0.818,0.7773,0.7373,0.7021,0.6722,0.0,0.0,0.0,0.0,0.0,0.6647,0.6729,0.0,0.0,0.0,0.0,0.0,0.0,0.0,0.0,0.0,0.0,0.0,0.0,0.0,0.0,0.6634,0.6695,0.6756,0.6756,0.608,0.5432,0.0,0.4389,0.3695,0.3724,0.0,0.0,0.0,0.0,0.3893,0.4593,0.5121,0.5689,0.6329,0.6023,0.58,0.58,0.5332,0.4975,0.4894,0.4714,0.458,0.4491,0.4491,0.4491,0.0,0.0,0.0,0.0,0.0,0.0,0.0,0.0,0.0,0.0,0.0,0.0,0.0,0.0,0.0,0.0,0.0,0.0,0.0,0.0,0.0,0.0,0.0,0.0,0.0,0.0,0.0,0.0,0.6926,0.7068,0.7092,0.72,0.7233,0.0,0.0,0.0,0.0,0.0,0.0,0.7868,0.8018,0.8289,0.8696,0.875,0.8967,0.9381,0.9381,0.9496,0.972,0.9605,0.9571,0.9605,0.9374,0.9303,0.9255,0.8933,0.8737,0.8554,0.7916,0.7434,0.7051,0.697,0.6869,0.6824,0.6896,0.6943,0.6957,0.7058,0.7024,0.693,0.6898,0.0,0.6593,0.6296,0.0,0.0,0.0,0.0,0.6302,0.6538,0.0,0.7054,0.7088,0.7139,0.7213,0.7213,0.6932,0.6546,0.0,0.5464,0.4868,0.4868,0.0,0.0,0.0,0.0,0.4826,0.5115,0.5721,0.62,0.6395,0.603,0.58,0.58,0.5352,0.5036,0.4894,0.4775,0.4648,0.4498,0.4491,0.4491,0.4491,0.0,0.0,0.0,0.0,0.0,0.0,0.0,0.0,0.0,0.0,0.0,0.0,0.0,0.0,0.0,0.0,0.0,0.0,0.0,0.0,0.0,0.0,0.0,0.0,0.0,0.0,0.0,0.0,0.0,0.7112,0.7469,0.0,0.0,0.0,0.0,0.7921,0.7948,0.8143,0.8628,0.8743,0.9022,0.9327,0.9476,0.97,0.9936,0.9943,0.995,0.9963,0.9957,0.9815,0.9612,0.9591,0.951,0.9361,0.9255,0.9049,0.8804,0.8106,0.7706,0.7536,0.72,0.7078,0.7078,0.7085,0.7085,0.7085,0.7092,0.7092,0.7105,0.7292,0.7231,0.7038,0.6883,0.6776,0.0,0.0,0.6842,0.6953,0.7238,0.7378,0.7387,0.7529,0.757,0.7577,0.7577,0.7333,0.6937,0.0,0.6175,0.5942,0.5942,0.0,0.5636,0.5656,0.5969,0.6242,0.6391,0.6451,0.6512,0.6661,0.6152,0.58,0.58,0.5352,0.5036,0.4894,0.4775,0.4648,0.4498,0.4491,0.4491,0.4491,0.4491,0.0,0.0,0.0,0.0,0.0,0.0,0.0,0.0,0.0,0.0,0.0,0.0,0.0,0.0,0.0,0.0,0.0,0.0,0.0,0.0,0.0,0.0,0.0,0.0,0.0,0.0,0.0,0.0,0.7665,0.8113,0.0,0.8241,0.8282,0.8397,0.8548,0.8703,0.8872,0.913,0.9374,0.9646,0.9951,1.01,1.0276,1.048,1.048,1.048,1.048,1.029,1.0141,1.0032,0.9836,0.9713,0.9652,0.9408,0.9273,0.9178,0.8621,0.8248,0.8018,0.7909,0.7807,0.7671,0.7671,0.7671,0.7671,0.7671,0.7604,0.755,0.7414,0.7265,0.7085,0.7038,0.6984,0.7014,0.717,0.721,0.7265,0.7468,0.7584,0.7672,0.7726,0.7733,0.7733,0.7733,0.7577,0.7387,0.7231,0.6722,0.6349,0.6444,0.6261,0.6159,0.6349,0.639,0.6457,0.6504,0.6511,0.6497,0.6463,0.6139,0.5908,0.5813,0.5481,0.5176,0.4908,0.4775,0.4648,0.4498,0.4491,0.4491,0.4491,0.4491,0.4263,0.0,0.0,0.0,0.0,0.0,0.0,0.0,0.0,0.0,0.0,0.0,0.0,0.0,0.0,0.0,0.0,0.0,0.0,0.0,0.0,0.0,0.0,0.0,0.0,0.0,0.0,0.8113,0.8265,0.8737,0.9015,0.9015,0.8967,0.9062,0.9367,0.9381,0.951,0.9815,1.0019,1.0215,1.0426,1.0568,1.067,1.0717,1.0717,1.0697,1.0636,1.0399,1.0256,1.0195,0.9937,0.9822,0.9808,0.9564,0.9429,0.9354,0.9001,0.8716,0.8479,0.833,0.8208,0.8113,0.8008,0.7988,0.7988,0.7988,0.7921,0.7855,0.7658,0.7489,0.7321,0.7321,0.7287,0.7326,0.7475,0.7516,0.7556,0.7706,0.7821,0.7889,0.7889,0.7889,0.7889,0.7889,0.7773,0.7672,0.7672,0.7143,0.6729,0.6831,0.6607,0.6478,0.6668,0.6661,0.6627,0.6627,0.658,0.6552,0.6457,0.6179,0.5932,0.5813,0.5623,0.5338,0.4914,0.487,0.4728,0.4498,0.4539,0.4566,0.4566,0.4621,0.4245,0.3457,0.0,0.0,0.0,0.0,0.0,0.0,0.0,0.0,0.0,0.0,0.0,0.0,0.0,0.0,0.0,0.0,0.0,0.0,0.0,0.0,0.0,0.0,0.0,0.7834,0.8221,0.8628,0.8885,0.9367,0.9639,0.9652,0.9517,0.9673,1.0263,1.0032,1.012,1.0704,1.0731,1.0724,1.0724,1.0799,1.0799,1.0724,1.0717,1.0643,1.0493,1.0351,1.0202,0.999,0.989,0.9822,0.9815,0.9666,0.9517,0.9367,0.9268,0.9062,0.8838,0.8459,0.834,0.8275,0.8119,0.8008,0.7995,0.7995,0.7995,0.7988,0.7988,0.7887,0.7821,0.7821,0.7726,0.7645,0.778,0.7821,0.7855,0.7948,0.7988,0.7988,0.7988,0.7988,0.7988,0.7988,0.7874,0.7821,0.7821,0.7415,0.7105,0.7105,0.6905,0.6715,0.6715,0.6844,0.0,0.6883,0.6797,0.6702,0.6702,0.6308,0.5939,0.582,0.5806,0.5549,0.4935,0.5015,0.4918,0.4511,0.4634,0.4687,0.4694,0.4836,0.4477,0.3611,0.0,0.0,0.0,0.0,0.0,0.0,0.0,0.0,0.0,0.0,0.0,0.0,0.0,0.0,0.0,0.0,0.0,0.0,0.0,0.0,0.0,0.8031,0.8296,0.8296,0.8777,0.9286,0.9633,1.0046,1.0337,1.0496,1.0541,1.0629,1.09,1.0839,1.0867,1.1029,1.0941,1.082,1.082,1.0819,1.0765,1.0717,1.0717,1.0697,1.0656,1.0399,1.0256,1.0209,0.9944,0.9822,0.9808,0.9551,0.9422,0.9361,0.9103,0.8974,0.8871,0.8804,0.8757,0.8737,0.8581,0.8391,0.8208,0.8208,0.8133,0.7988,0.7988,0.7961,0.7928,0.7928,0.7901,0.788,0.7914,0.7928,0.7934,0.7982,0.7988,0.7988,0.7988,0.7988,0.7988,0.7988,0.7955,0.7928,0.7928,0.7706,0.7434,0.7326,0.7149,0.6977,0.6977,0.7011,0.0,0.6903,0.6797,0.6702,0.6702,0.6491,0.6247,0.5952,0.5867,0.5596,0.5069,0.4911,0.4755,0.4662,0.4593,0.4607,0.4687,0.4735,0.4427,0.0,0.0,0.0,0.0,0.0,0.0,0.0,0.0,0.0,0.0,0.0,0.0,0.0,0.0,0.0,0.0,0.0,0.0,0.0,0.0,0.0,0.0,0.8526,0.8927,0.9173,0.9442,0.9829,1.0213,1.0541,1.0799,1.1104,1.1077,1.1124,1.1341,1.1233,1.1234,1.1234,1.1084,1.0982,1.0793,1.0826,1.0785,1.0717,1.0717,1.0717,1.0717,1.0419,1.0283,1.027,0.9958,0.9822,0.0,0.9639,0.953,0.9456,0.9218,0.9083,0.0,0.0,0.0,0.0,0.0,0.8506,0.8402,0.834,0.8214,0.8126,0.8008,0.7988,0.7988,0.7988,0.7988,0.7988,0.7988,0.7988,0.7988,0.7988,0.7988,0.7988,0.7988,0.7988,0.7988,0.7988,0.7988,0.7988,0.7988,0.0,0.0,0.7495,0.7285,0.7098,0.7098,0.7098,0.7065,0.0,0.6831,0.6702,0.6702,0.6451,0.6193,0.5956,0.5854,0.0,0.0,0.0,0.4945,0.4877,0.4789,0.0,0.0,0.0,0.4763,0.0,0.0,0.0,0.0,0.0584,0.0,0.0,0.0,0.0,0.0,0.0,0.0,0.0,0.0,0.0,0.0,0.0,0.0,0.0,0.0,0.0,0.0,0.9062,0.9605,1.0101,1.0127,1.024,1.0717,1.084,1.1111,1.1389,1.1294,1.1328,1.1599,1.1369,1.1206,1.1192,0.0,0.0,0.0,0.0,1.0793,1.0724,1.0717,1.0717,1.0717,1.0439,1.0297,1.027,0.9978,0.9836,0.9822,0.9802,0.9727,0.9598,0.9442,0.935,0.918,0.8845,0.8737,0.8716,0.8581,0.852,0.0,0.0,0.0,0.0,0.8113,0.8015,0.8015,0.7995,0.7988,0.7988,0.7988,0.7988,0.7988,0.7988,0.7988,0.7988,0.7988,0.7988,0.7988,0.7988,0.7988,0.7988,0.7988,0.7902,0.7746,0.7617,0.736,0.7119,0.7098,0.7098,0.0,0.7098,0.6885,0.6709,0.6722,0.0,0.0,0.584,0.5827,0.5637,0.515,0.527,0.527,0.5083,0.5076,0.5083,0.5096,0.5264,0.5277,0.5123,0.3502,0.2709,0.2643,0.0852,0.0,0.0,0.0,0.0,0.0,0.0,0.0,0.0,0.0,0.0,0.0,0.0,0.0,0.0,0.0,0.0,0.9002,0.953,1.0032,1.0365,1.0622,1.0853,1.105,1.1212,1.1375,1.1558,1.1552,1.1558,1.1613,1.1565,1.1477,1.1355,1.1226,0.0,1.084,1.0812,1.0751,1.0717,1.0717,1.0717,1.0717,0.0,0.0,1.0276,1.0086,0.9876,0.9815,0.97,0.9632,0.9598,0.9442,0.935,0.9193,0.896,0.8838,0.8838,0.8804,0.8771,0.8662,0.8635,0.8547,0.8418,0.8275,0.8228,0.8201,0.8029,0.7988,0.0,0.7988,0.7988,0.7988,0.7988,0.7988,0.7988,0.7988,0.7988,0.7988,0.7988,0.7988,0.7988,0.7988,0.7821,0.7631,0.7604,0.7448,0.7285,0.7112,0.7098,0.7098,0.7098,0.6885,0.6749,0.6871,0.6586,0.6274,0.5973,0.5946,0.5793,0.5378,0.523,0.5076,0.4935,0.4928,0.4982,0.5096,0.513,0.5223,0.5351,0.3571,0.2709,0.2643,0.0835,0.0,0.0,0.0,0.0,0.0,0.0,0.0,0.0,0.0,0.0,0.0,0.0,0.7794,0.8099,0.0,0.9083,0.9589,0.9978,1.0351,1.0575,1.0739,1.0907,1.105,1.1185,1.1335,1.1491,1.1504,1.1538,1.1613,1.1619,1.1518,1.1287,1.1275,1.1063,1.0839,1.0758,1.0717,1.0717,1.0717,1.0717,1.0717,1.0568,1.0453,1.0378,1.0092,0.9943,0.9862,0.9781,0.9713,0.9707,0.9557,0.9361,0.92,0.9076,0.9001,0.8885,0.8885,0.8838,0.8804,0.8648,0.8594,0.8547,0.8248,0.8208,0.8241,0.8085,0.7988,0.7988,0.7988,0.7988,0.7988,0.7988,0.7988,0.7988,0.7988,0.7988,0.7988,0.7988,0.7988,0.7988,0.7988,0.7874,0.7794,0.7719,0.7645,0.7489,0.7139,0.7098,0.7098,0.7098,0.6885,0.6729,0.6803,0.6478,0.6159,0.5935,0.5779,0.5603,0.5405,0.5324,0.5216,0.5142,0.5142,0.5176,0.5243,0.5243,0.5317,0.5392,0.4018,0.3113,0.2676,0.1276,0.0404,0.0,0.0,0.0,0.0,0.0,0.0,0.0,0.7414,0.7543,0.7699,0.7991,0.8285,0.8723,0.9191,0.9639,1.0094,1.0344,1.0582,1.0704,1.0853,1.0873,1.084,1.1056,1.1212,1.1335,1.1375,1.1443,1.1565,1.1599,1.1497,1.1219,1.1179,1.1043,1.0772,1.0738,1.0717,1.0717,1.069,1.069,1.0717,1.0534,1.0453,1.0439,1.0175,0.997,0.9936,0.9876,0.9822,0.9815,0.97,0.9469,0.9255,0.9255,0.9089,0.8885,0.8885,0.8885,0.8851,0.8655,0.8628,0.8642,0.8255,0.8194,0.8241,0.8085,0.7988,0.7988,0.7988,0.7988,0.7988,0.7988,0.7988,0.7988,0.7988,0.7988,0.7988,0.7988,0.7988,0.7988,0.7988,0.7968,0.7907,0.7834,0.7787,0.7638,0.72,0.7139,0.7132,0.7098,0.6885,0.6702,0.6702,0.6322,0.6003,0.582,0.559,0.5426,0.5399,0.5392,0.5392,0.5392,0.5392,0.5392,0.5392,0.5426,0.544,0.544,0.449,0.3679,0.2969,0.1812,0.0839,0.7139,0.7098,0.7159,0.7482,0.7461,0.7468,0.0,0.0,0.8011,0.8167,0.854,0.8893,0.9125,0.9585,1.0039,1.0222,1.05,1.0704,1.0717,1.0853,1.0833,1.0765,1.0995,1.1241,1.1185,1.1314,1.1396,1.1416,1.1545,1.1545,1.1375,1.124,1.109,1.086,1.0792,1.0717,1.0717,1.0582,1.0582,1.0717,1.0439,1.0304,1.0297,1.0127,0.9916,0.9842,0.9829,0.9822,0.9822,0.9802,0.9625,0.9354,0.9354,0.9184,0.8885,0.8885,0.8885,0.8878,0.8844,0.8811,0.8682,0.8492,0.8357,0.8241,0.8085,0.7988,0.7988,0.7988,0.7988,0.7988,0.7988,0.7988,0.7988,0.7988,0.7988,0.7988,0.7988,0.7988,0.7988,0.7988,0.788,0.7828,0.7814,0.7706,0.7556,0.7373,0.7346,0.7292,0.7112,0.6885,0.6702,0.6702,0.6424,0.6156,0.5827,0.5657,0.5542,0.5405,0.5392,0.5392,0.5392,0.5392,0.5392,0.5392,0.5528,0.5562,0.5562,0.462,0.4131,0.3993,0.2169,0.0839,0.7139,0.7227,0.7441,0.757,0.7746,0.7943,0.8133,0.8309,0.8472,0.8628,0.9015,0.9401,0.9632,1.0019,1.0358,0.0,1.0636,1.0717,1.0717,1.0629,1.0534,1.0473,1.0493,1.0656,1.1002,1.1016,1.107,1.1246,1.1314,1.1287,1.1145,1.107,1.0968,1.0819,1.0751,1.0677,1.0588,1.0521,1.048,1.0466,1.0337,1.0283,1.0276,1.012,0.9903,0.9822,0.9822,0.9822,0.9815,0.9734,0.9571,0.9374,0.9344,0.9123,0.8885,0.8885,0.8885,0.8871,0.8838,0.8764,0.8669,0.8438,0.8368,0.8241,0.8085,0.7988,0.7988,0.7988,0.7988,0.7988,0.7988,0.7988,0.7988,0.7988,0.7988,0.7988,0.7988,0.7988,0.7988,0.7988,0.7941,0.7894,0.7894,0.7847,0.7801,0.7651,0.7482,0.7346,0.7285,0.7014,0.6763,0.6586,0.6302,0.6078,0.5942,0.5725,0.5596,0.5616,0.5576,0.5569,0.5616,0.5616,0.5616,0.5616,0.5677,0.5711,0.5711,0.5316,0.4885,0.4349,0.2893,0.1759,0.7224,0.74,0.7631,0.7753,0.8058,0.8415,0.8538,0.871,0.894,0.9089,0.9449,0.9795,0.995,1.0263,1.048,1.0629,1.0656,1.0656,1.0656,1.0439,1.0249,1.0161,1.0019,1.0051,1.0523,1.069,1.0806,1.1023,1.1118,1.1118,1.1016,1.09,1.0833,1.0785,1.0744,1.0649,1.0493,1.0453,1.0385,1.0276,1.0195,1.0175,1.0209,1.0059,0.9862,0.9822,0.9781,0.9761,0.9754,0.9605,0.9456,0.9306,0.9255,0.9062,0.8885,0.8885,0.8885,0.8865,0.8764,0.8682,0.8608,0.835,0.8241,0.8187,0.8022,0.7988,0.7988,0.7988,0.7988,0.7988,0.7988,0.7988,0.7988,0.7988,0.7988,0.7988,0.7988,0.7988,0.7988,0.7988,0.7988,0.7988,0.7988,0.7988,0.7955,0.7889,0.7658,0.7461,0.7426,0.7115,0.681,0.6545,0.6281,0.6118,0.6,0.5833,0.5739,0.58,0.5705,0.5691,0.58,0.58,0.58,0.58,0.584,0.5867,0.5867,0.5867,0.5534,0.4868,0.3531,0.2578,0.7326,0.7482,0.7706,0.814,0.8364,0.8587,0.9084,0.9303,0.9401,0.9557,0.9768,0.9977,0.9984,1.0181,1.0331,1.0473,1.05,1.05,1.05,1.0371,1.0168,0.9869,0.9707,0.9686,0.0,1.0378,1.0724,1.0731,1.1002,1.1227,1.1158,1.1023,1.088,1.0873,1.0799,1.0649,1.0493,1.0358,1.0283,1.0276,0.9978,0.991,0.999,0.9897,0.9829,0.9815,0.968,0.9618,0.9605,0.9449,0.93,0.9214,0.9214,0.9062,0.8885,0.8885,0.8885,0.8865,0.8764,0.8615,0.8465,0.8368,0.8167,0.7995,0.7988,0.7988,0.7988,0.7988,0.7988,0.7988,0.7988,0.7988,0.7988,0.7988,0.7988,0.7988,0.7988,0.7988,0.7988,0.7988,0.7988,0.7988,0.7988,0.7988,0.7988,0.7982,0.7896,0.7692,0.7453,0.7115,0.681,0.6545,0.6504,0.6342,0.602,0.5986,0.5919,0.5813,0.58,0.5793,0.58,0.58,0.58,0.58,0.5912,0.5986,0.5986,0.5986,0.5986,0.5905,0.3853,0.2868,0.757,0.7848,0.8153,0.8601,0.8899,0.9144,0.9401,0.9564,0.9659,0.9618,0.9686,0.9727,0.9625,0.9734,0.9917,1.0161,1.0283,1.0385,1.048,1.0371,1.0134,0.9727,0.9639,0.0,0.0,0.0,0.0,1.0548,1.0663,1.0765,1.0867,1.0819,1.0799,1.0799,1.0649,1.05,1.0351,1.0202,1.008,0.9971,0.9869,0.9849,0.9897,0.9842,0.9768,0.968,0.9632,0.9551,0.9449,0.935,0.9255,0.92,0.9049,0.892,0.8798,0.8844,0.8817,0.8798,0.8845,0.8696,0.8472,0.8425,0.8241,0.7988,0.7988,0.7988,0.7988,0.7988,0.7988,0.7988,0.7988,0.7988,0.7988,0.7988,0.7988,0.7988,0.7988,0.7988,0.7988,0.7988,0.7988,0.7988,0.7988,0.7988,0.7955,0.7902,0.7767,0.7597,0.7446,0.7115,0.6849,0.6783,0.6593,0.647,0.6335,0.6146,0.6051,0.6143,0.601,0.5996,0.6143,0.6143,0.6143,0.6143,0.6197,0.6179,0.6179,0.6179,0.6179,0.6179,0.4746,0.3696,0.7868,0.8235,0.8601,0.8994,0.9279,0.949,0.9585,0.9639,0.9625,0.9476,0.9361,0.9259,0.9157,0.9178,0.9306,0.9545,0.9734,0.9903,1.0209,1.008,0.989,0.9707,0.9639,0.9571,0.0,0.0,0.0,1.031,1.0432,1.0534,1.0636,1.069,1.0717,1.0717,1.0622,1.0507,1.0358,1.0209,1.0025,0.9822,0.9822,0.9822,0.9822,0.9822,0.9741,0.9605,0.9551,0.9442,0.9286,0.9137,0.9076,0.9069,0.8974,0.879,0.8723,0.8818,0.8757,0.8642,0.8743,0.8648,0.8465,0.8357,0.8194,0.7988,0.7988,0.7988,0.7988,0.7988,0.7988,0.7988,0.7988,0.7988,0.7988,0.7988,0.7988,0.7988,0.7988,0.7988,0.7988,0.7988,0.7988,0.7988,0.7988,0.7988,0.7955,0.7909,0.7767,0.7604,0.7446,0.7204,0.7048,0.6896,0.6702,0.6573,0.6518,0.6254,0.6152,0.6293,0.6166,0.6159,0.6293,0.63,0.63,0.63,0.63,0.63,0.63,0.63,0.63,0.6261,0.5196,0.4336,0.8228,0.8635,0.8986,0.934,0.9517,0.9618,0.9598,0.9476,0.9313,0.9207,0.8879,0.8676,0.0,0.0,0.8567,0.8831,0.8905,0.9121,0.9761,0.9618,0.9544,0.0,0.0,0.0,0.0,0.0,0.0,0.999,0.0,1.0487,1.05,1.0643,1.0717,1.0717,1.0711,1.0636,1.0493,1.0344,1.012,0.9822,0.9822,0.9822,0.9822,0.9822,0.9741,0.9598,0.9449,0.935,0.92,0.8994,0.8885,0.8885,0.8885,0.8838,0.8703,0.871,0.8608,0.8472,0.8472,0.8479,0.8431,0.8147,0.8002,0.8002,0.7988,0.7988,0.7988,0.7988,0.7988,0.7988,0.7988,0.7988,0.7988,0.7988,0.7988,0.7988,0.7988,0.7988,0.7988,0.7988,0.7988,0.7988,0.7988,0.7988,0.7988,0.7988,0.7916,0.7719,0.7467,0.7419,0.7258,0.693,0.6803,0.6647,0.6538,0.6395,0.6306,0.63,0.63,0.63,0.63,0.63,0.63,0.63,0.63,0.63,0.63,0.63,0.63,0.6261,0.5234,0.4763,0.8811,0.9178,0.951,0.9802,0.9822,0.9707,0.949,0.9239,0.8974,0.871,0.8418,0.8123,0.8058,0.8099,0.0,0.8797,0.9218,0.0,1.0093,1.029,0.0,0.9957,0.0,1.0066,0.9889,0.9909,0.0,0.0,1.029,1.0432,1.0649,1.0697,1.0717,1.0717,1.0609,1.0527,1.0493,1.0236,1.0012,0.9822,0.9822,0.9822,0.9822,0.9822,0.9741,0.9598,0.9449,0.935,0.92,0.8994,0.8885,0.8885,0.8885,0.8777,0.8554,0.8669,0.8547,0.8374,0.8374,0.8391,0.8452,0.8269,0.8214,0.8187,0.8022,0.7988,0.7988,0.7988,0.7988,0.7988,0.7988,0.7988,0.7988,0.7988,0.7988,0.7988,0.7988,0.7988,0.7988,0.7988,0.7988,0.7988,0.7988,0.7988,0.7988,0.7988,0.7955,0.7875,0.7577,0.7441,0.7299,0.7065,0.6916,0.681,0.6654,0.6545,0.6416,0.6306,0.63,0.63,0.63,0.63,0.63,0.63,0.63,0.63,0.63,0.63,0.63,0.63,0.6022,0.5473,0.9218,0.9625,0.9924,0.9963,0.9869,0.9707,0.9286,0.8954,0.8635,0.8262,0.795,0.7719,0.7631,0.7685,0.7902,0.0,0.0,0.0,0.9897,1.0127,1.0236,0.0,1.0317,0.0,1.0168,1.0209,1.0276,0.0,1.0371,1.0446,1.0609,1.0683,1.0717,1.0717,1.0636,1.0561,1.0493,1.0263,1.0073,0.9862,0.9849,0.9822,0.9822,0.9822,0.9741,0.9598,0.0,0.935,0.92,0.8994,0.8885,0.8878,0.8811,0.873,0.8581,0.8601,0.8465,0.832,0.832,0.8323,0.8364,0.8214,0.8167,0.8167,0.8147,0.814,0.814,0.814,0.814,0.8126,0.8008,0.7988,0.7988,0.7988,0.7988,0.7988,0.7988,0.7988,0.7988,0.7988,0.7988,0.7988,0.7988,0.7988,0.7988,0.7988,0.7988,0.7907,0.7726,0.7563,0.7414,0.7258,0.7054,0.6822,0.6715,0.6559,0.6477,0.6402,0.6334,0.6327,0.6388,0.6334,0.63,0.63,0.63,0.63,0.63,0.63,0.63,0.63,0.63,0.5983,0.9625,0.9985,1.027,1.012,0.9937,0.9639,0.8986,0.8642,0.8269,0.7841,0.7536,0.7339,0.7339,0.7405,0.7489,0.7841,0.0,0.8648,0.9571,0.97,0.9903,1.046,1.0521,1.0473,1.0351,1.0453,1.0521,1.0521,1.0521,1.0521,1.0521,1.0649,1.0717,1.0717,1.0717,1.0636,1.0466,1.0344,1.0188,0.9957,0.9883,0.9822,0.9822,0.9822,0.9754,0.9625,0.0,0.0,0.9228,0.9008,0.8885,0.8865,0.8771,0.871,0.8689,0.852,0.8391,0.8347,0.8327,0.832,0.8248,0.8092,0.8002,0.8092,0.8208,0.8255,0.832,0.8248,0.8255,0.8241,0.8106,0.8022,0.8022,0.8022,0.8035,0.8042,0.8022,0.8035,0.8049,0.8049,0.8049,0.8042,0.8022,0.8022,0.8015,0.7995,0.7988,0.7941,0.7862,0.7719,0.7563,0.7433,0.7143,0.6919,0.6749,0.6607,0.6566,0.6545,0.6429,0.6416,0.6538,0.6422,0.6361,0.6361,0.634,0.6327,0.6327,0.6306,0.63,0.63,0.63,0.63,0.9903,1.0209,1.0419,1.0276,0.9944,0.949,0.8886,0.8323,0.7834,0.7516,0.7305,0.7139,0.7139,0.7285,0.7637,0.8255,0.852,0.8994,1.0019,1.0161,1.029,0.0,1.0677,1.067,1.0643,1.0663,0.0,0.0,0.0,1.0677,1.0677,1.0704,1.0717,1.0717,1.0717,1.0588,1.0317,1.029,1.0141,0.9863,0.9836,0.9822,0.9822,0.9822,0.9808,0.9768,0.0,0.0,0.932,0.9049,0.8885,0.8865,0.8771,0.871,0.8676,0.8404,0.8364,0.8431,0.8361,0.832,0.8248,0.8092,0.8126,0.8214,0.8113,0.8167,0.8241,0.8113,0.8174,0.832,0.8235,0.8228,0.8228,0.8228,0.8323,0.837,0.8255,0.8323,0.8404,0.8404,0.8404,0.837,0.8248,0.8228,0.8187,0.8008,0.7988,0.7982,0.7955,0.7868,0.7672,0.7446,0.7371,0.7183,0.6869,0.6822,0.6797,0.6668,0.6634,0.6634,0.6661,0.6634,0.6627,0.6627,0.6538,0.6477,0.6477,0.6354,0.63,0.63,0.63,0.63,1.0107,1.0385,1.0555,1.0337,0.9944,0.9429,0.875,0.8187,0.7706,0.7326,0.7146,0.7098,0.7098,0.7333,0.7631,0.8065,0.833,0.8791,0.9686,0.9883,1.01,1.0548,1.067,1.0717,1.0717,1.0717,1.0717,0.0,0.0,1.0717,1.0717,1.0717,1.0683,1.0602,1.0602,1.05,1.0283,1.0202,1.0086,0.9876,0.9863,0.9822,0.9822,0.9822,0.9822,0.9802,0.951,0.0,0.9361,0.9062,0.8885,0.8865,0.8771,0.8757,0.8804,0.8581,0.854,0.8587,0.852,0.8397,0.8306,0.818,0.8153,0.8153,0.816,0.8214,0.8255,0.818,0.8269,0.8364,0.834,0.8374,0.8377,0.8377,0.8431,0.8465,0.8397,0.8431,0.8479,0.8479,0.8425,0.835,0.8333,0.8201,0.8126,0.8002,0.7988,0.7988,0.7988,0.7928,0.7841,0.7624,0.7461,0.7278,0.7011,0.693,0.6883,0.6932,0.6783,0.677,0.6919,0.6783,0.6702,0.6702,0.6552,0.6511,0.6511,0.6368,0.63,0.63,0.63,0.63,1.0236,1.0493,1.0643,1.031,0.9869,0.932,0.8601,0.8065,0.7604,0.7173,0.7098,0.7098,0.7098,0.7366,0.7617,0.7828,0.8065,0.8492,0.9273,0.951,0.9815,1.0378,1.0609,0.0,1.0717,1.0717,0.0,0.0,0.0,0.0,1.0717,1.069,1.0616,1.0493,1.046,1.0378,1.0236,1.0107,0.997,0.9936,0.9876,0.9822,0.9822,0.9822,0.9822,0.9802,0.951,0.0,0.0,0.9062,0.8885,0.8865,0.8771,0.8804,0.8858,0.873,0.8703,0.8757,0.8723,0.856,0.8364,0.8364,0.8214,0.8015,0.818,0.8241,0.832,0.832,0.837,0.8465,0.8384,0.8445,0.854,0.8574,0.8554,0.854,0.8574,0.8581,0.8581,0.8581,0.8492,0.8391,0.8381,0.8241,0.8103,0.8002,0.8015,0.8029,0.7995,0.7988,0.7941,0.7875,0.7624,0.7407,0.7206,0.7092,0.7078,0.7186,0.7021,0.698,0.7139,0.6966,0.6831,0.6797,0.6647,0.6573,0.6573,0.6463,0.6395,0.6395,0.6395,0.6395,1.0236,1.0493,1.0616,1.0118,0.9632,0.9091,0.8477,0.7883,0.736,0.7132,0.7098,0.7098,0.7098,0.7278,0.7529,0.7901,0.7988,0.837,0.9259,0.951,0.9781,1.0243,0.0,0.0,1.0717,1.0717,0.0,0.0,0.0,0.0,1.0717,1.0588,1.0507,1.0493,1.0365,1.0222,1.0011,0.9997,0.9916,0.9842,0.9829,0.9822,0.9822,0.9822,0.9822,0.9802,0.0,0.0,0.0,0.9062,0.8885,0.8865,0.8771,0.8804,0.8851,0.8608,0.8676,0.8844,0.8757,0.8696,0.8669,0.8669,0.8384,0.7988,0.8008,0.816,0.832,0.832,0.837,0.8513,0.8635,0.8682,0.8723,0.8811,0.8791,0.873,0.8811,0.8844,0.8844,0.8844,0.8831,0.8791,0.8513,0.8567,0.8513,0.8049,0.816,0.8201,0.8008,0.7988,0.7982,0.7968,0.7868,0.7712,0.757,0.7543,0.7543,0.7556,0.7529,0.7468,0.7353,0.7371,0.7244,0.7058,0.6916,0.6842,0.6842,0.6736,0.6661,0.6661,0.6661,0.6661,1.0025,1.0358,1.0493,1.0141,0.9537,0.8893,0.8384,0.7849,0.7326,0.7125,0.7098,0.7098,0.7098,0.7265,0.7461,0.7733,0.7773,0.0,0.8737,0.8893,0.9198,0.9917,1.0188,0.0,0.0,0.0,0.0,0.0,0.0,0.0,1.0717,1.0575,1.0453,1.0365,1.0222,1.0066,0.9856,0.9849,0.9883,0.9822,0.9822,0.9822,0.9822,0.9822,0.9822,0.9808,0.0,0.0,0.0,0.915,0.9015,0.8878,0.8817,0.8831,0.8871,0.8804,0.8832,0.8871,0.8811,0.8784,0.871,0.871,0.8526,0.8289,0.8208,0.8221,0.832,0.832,0.837,0.852,0.8669,0.8777,0.8811,0.8871,0.8838,0.8838,0.8811,0.8817,0.8858,0.8818,0.8804,0.8764,0.8642,0.8594,0.8486,0.8221,0.8235,0.8214,0.8008,0.7988,0.7988,0.7988,0.7902,0.7787,0.7733,0.7651,0.7638,0.7719,0.7645,0.7611,0.7638,0.7556,0.7434,0.7285,0.7085,0.697,0.6883,0.6776,0.6702,0.6702,0.6702,0.6702,0.9646,1.0032,1.0209,0.993,0.9293,0.8682,0.8235,0.7706,0.7272,0.7119,0.7098,0.7098,0.7098,0.7305,0.7475,0.7584,0.0,0.7889,0.8357,0.8492,0.8798,0.9476,0.0,1.0025,0.0,0.0,0.0,0.0,0.0,0.0,0.0,1.0514,1.0385,1.0283,1.0086,0.9869,0.9822,0.9822,0.9822,0.9822,0.9822,0.9822,0.9822,0.9822,0.9822,0.9815,0.0,0.0,0.0,0.9275,0.9069,0.8885,0.8885,0.8885,0.8885,0.8885,0.8885,0.8885,0.8885,0.8811,0.8777,0.8777,0.8703,0.8587,0.8445,0.837,0.8343,0.8391,0.8506,0.8642,0.875,0.8804,0.8885,0.8885,0.8885,0.8851,0.8804,0.8811,0.8851,0.8798,0.8777,0.8764,0.8716,0.8655,0.8554,0.8364,0.8381,0.8282,0.8126,0.8015,0.7988,0.7988,0.7894,0.7875,0.7875,0.7787,0.7773,0.7875,0.7787,0.7753,0.7807,0.7678,0.7529,0.7419,0.7217,0.7045,0.695,0.6885,0.6831,0.6831,0.6831,0.6831,0.9139,0.949,0.972,0.933,0.8873,0.837,0.7916,0.7422,0.7098,0.7098,0.7098,0.7098,0.7098,0.7394,0.7597,0.7597,0.7841,0.0,0.8248,0.8526,0.8771,0.0,0.0,0.9564,0.0,0.0,0.0,0.0,0.0,0.0,0.0,1.0358,1.0283,1.0283,0.9985,0.9822,0.9822,0.9822,0.9822,0.9822,0.9822,0.9822,0.9822,0.9822,0.9822,0.0,0.0,0.0,0.0,0.9275,0.9069,0.8885,0.8885,0.8885,0.8885,0.8885,0.8885,0.8885,0.8885,0.8885,0.8885,0.8885,0.8878,0.8851,0.875,0.8601,0.8513,0.8662,0.8818,0.8878,0.8878,0.8885,0.8885,0.8885,0.8885,0.8885,0.8885,0.8885,0.8885,0.8885,0.8885,0.8831,0.8737,0.8832,0.8832,0.8526,0.8479,0.8431,0.834,0.8133,0.7988,0.7988,0.7988,0.7988,0.7988,0.7988,0.7988,0.7988,0.7988,0.7921,0.7821,0.7678,0.7529,0.7419,0.7217,0.7098,0.7092,0.7092,0.7092,0.7092,0.7092,0.7092,0.8463,0.8723,0.8872,0.873,0.8357,0.7963,0.7719,0.7394,0.7098,0.7098,0.7098,0.7098,0.7098,0.7173,0.7353,0.7563,0.7678,0.0,0.0,0.0,0.0,0.9184,0.9863,1.0351,0.0,0.0,0.0,0.0,0.0,0.0,0.0,1.0358,1.0236,1.0127,0.9924,0.9822,0.9822,0.9822,0.9822,0.9822,0.9822,0.9822,0.9822,0.9822,0.0,0.0,0.0,0.0,0.0,0.9275,0.9069,0.8885,0.8885,0.8885,0.8885,0.8885,0.8885,0.8885,0.8885,0.8885,0.8885,0.8885,0.8885,0.8871,0.8824,0.8757,0.8648,0.8696,0.8818,0.8885,0.8885,0.8885,0.8885,0.8885,0.8885,0.8858,0.8804,0.8811,0.8851,0.8804,0.8811,0.8865,0.8817,0.8851,0.8817,0.8669,0.8635,0.8547,0.8354,0.8228,0.816,0.8002,0.7988,0.7988,0.7988,0.7988,0.7988,0.7988,0.7988,0.7968,0.7921,0.7874,0.7828,0.7678,0.7529,0.74,0.7299,0.7146,0.7098,0.7098,0.7098,0.7098,0.7801,0.8119,0.8303,0.8241,0.7977,0.7692,0.755,0.7319,0.7098,0.7098,0.7098,0.7098,0.7098,0.7146,0.7305,0.7556,0.7645,0.7767,0.0,0.0,0.0,0.9289,0.0,0.0,0.0,0.0,0.0,0.0,0.0,0.0,0.0,1.0243,1.012,0.9909,0.9869,0.9822,0.9822,0.9822,0.9822,0.9822,0.9822,0.9822,0.9822,0.9768,0.0,0.0,0.0,0.0,0.0,0.9275,0.9069,0.8885,0.8885,0.8885,0.8885,0.8885,0.8974,0.9015,0.8905,0.8974,0.9008,0.8898,0.8885,0.8885,0.8885,0.8817,0.8798,0.8798,0.8811,0.8885,0.8885,0.8885,0.8885,0.8885,0.8885,0.8858,0.8818,0.8817,0.8858,0.8818,0.8817,0.8885,0.8885,0.8885,0.8851,0.8811,0.875,0.8642,0.8459,0.8384,0.8296,0.814,0.8126,0.8106,0.7995,0.7988,0.7988,0.7988,0.7988,0.7988,0.7988,0.7934,0.7909,0.7814,0.7672,0.755,0.7455,0.7305,0.7152,0.7098,0.7098,0.7098,0.0,0.7611,0.7847,0.7767,0.7645,0.7516,0.7373,0.7238,0.0,0.7098,0.7098,0.7098,0.7112,0.7272,0.7421,0.759,0.7726,0.7862,0.0,0.833,0.0,0.0,0.0,0.0,0.0,0.0,0.0,0.0,0.0,0.0,0.0,0.0,0.9916,0.9829,0.9822,0.9822,0.9822,0.9822,0.9822,0.9822,0.9822,0.9815,0.9802,0.9673,0.0,0.0,0.0,0.0,0.0,0.9262,0.9062,0.8898,0.8885,0.8885,0.8885,0.8892,0.9028,0.918,0.8994,0.9035,0.9173,0.8981,0.8885,0.8885,0.8885,0.8885,0.8885,0.8885,0.8885,0.8885,0.8885,0.8885,0.8885,0.8885,0.8885,0.8885,0.8885,0.8885,0.8885,0.8885,0.8892,0.8898,0.8885,0.8892,0.8898,0.8885,0.8818,0.8723,0.871,0.8587,0.8445,0.8354,0.834,0.8221,0.8022,0.7995,0.7988,0.7988,0.7988,0.7988,0.7988,0.7902,0.7828,0.7828,0.7685,0.7611,0.7597,0.7455,0.7312,0.7125,0.7125,0.7125,0.6675,0.0,0.6858,0.6939,0.7027,0.7075,0.0,0.7045,0.7098,0.7098,0.7098,0.7132,0.7292,0.7346,0.7455,0.7719,0.7787,0.7862,0.7968,0.0,0.0,0.9625,0.0,0.0,0.0,0.0,0.0,0.0,0.0,0.0,0.0,0.0,0.9916,0.9829,0.9822,0.9822,0.9822,0.9822,0.9822,0.9822,0.9822,0.9768,0.9659,0.9625,0.0,0.0,0.0,0.0,0.9361,0.9096,0.9035,0.9089,0.8981,0.8885,0.8898,0.9062,0.9055,0.9001,0.9076,0.9055,0.8981,0.8892,0.8885,0.8885,0.8885,0.8885,0.8885,0.8885,0.8885,0.8885,0.8885,0.8885,0.8885,0.8885,0.8885,0.8885,0.8885,0.8885,0.8885,0.8885,0.9028,0.9069,0.8905,0.9028,0.9062,0.8898,0.8851,0.8845,0.8723,0.8676,0.8601,0.8452,0.8431,0.8377,0.8228,0.8106,0.7988,0.7988,0.7988,0.7988,0.7988,0.7955,0.7934,0.7934,0.7834,0.7706,0.7597,0.7563,0.7529,0.7489,0.7489,0.7428,0.7117,0.6881,0.6702,0.6783,0.6876,0.6984,0.6984,0.7045,0.7098,0.7098,0.7098,0.7146,0.7346,0.7312,0.7387,0.7753,0.7753,0.0,0.0,0.0,0.934,0.9768,0.0,0.0,0.0,0.0,0.0,0.0,0.0,0.0,0.0,0.0,0.9849,0.9822,0.9822,0.9822,0.9822,0.9754,0.9754,0.9822,0.9754,0.9686,0.9605,0.9537,0.0,0.0,0.0,0.0,0.9361,0.9062,0.8988,0.9049,0.8967,0.8885,0.8892,0.9028,0.9049,0.9042,0.9049,0.9001,0.8885,0.8885,0.8885,0.8885,0.8885,0.8885,0.8885,0.8885,0.9035,0.911,0.8919,0.8988,0.9022,0.8898,0.8885,0.8885,0.8885,0.8885,0.8885,0.8885,0.9055,0.9187,0.9049,0.9157,0.9232,0.915,0.9083,0.9008,0.8927,0.8852,0.8757,0.8601,0.8587,0.8499,0.834,0.8194,0.8113,0.7995,0.7988,0.7988,0.7988,0.7988,0.7988,0.7988,0.7907,0.7841,0.7699,0.7699,0.7665,0.7597,0.7597,0.7556,0.7812,0.7367,0.6876,0.6829,0.6943,0.7065,0.7065,0.7078,0.7098,0.7098,0.7112,0.7217,0.0,0.7299,0.0,0.0,0.0,0.0,0.8567,0.8893,0.9208,0.0,0.0,0.0,0.0,0.0,0.0,0.0,0.0,0.0,0.0,0.0,0.0,0.9822,0.9822,0.9808,0.9788,0.9673,0.968,0.9822,0.968,0.9598,0.9571,0.9442,0.9429,0.0,0.0,0.0,0.9327,0.9049,0.8898,0.8967,0.8892,0.8885,0.8885,0.8905,0.9049,0.9193,0.9015,0.8898,0.8885,0.8885,0.8885,0.8885,0.8885,0.8898,0.8974,0.8974,0.915,0.9286,0.9008,0.9049,0.9173,0.8974,0.8885,0.8885,0.8885,0.8885,0.8885,0.8885,0.9055,0.9207,0.9207,0.9337,0.9381,0.9381,0.933,0.9234,0.9214,0.9049,0.8913,0.8764,0.8743,0.8635,0.8364,0.8316,0.8241,0.8035,0.8002,0.7988,0.7988,0.7988,0.7988,0.7988,0.7988,0.7928,0.7848,0.7848,0.7787,0.7665,0.7665,0.7651,0.7925,0.745,0.6822,0.6607,0.6756,0.6916,0.6916,0.7011,0.7098,0.0,0.0,0.0,0.0,0.7556,0.7733,0.0,0.0,0.8601,0.0,0.0,0.0,0.0,0.0,0.0,0.0,0.0,0.0,0.0,0.0,0.0,0.0,0.0,0.0,0.9822,0.9822,0.9761,0.9646,0.9618,0.968,0.9822,0.968,0.9544,0.9415,0.9395,0.9259,0.0,0.0,0.9035,0.9234,0.9008,0.9008,0.9166,0.8988,0.8885,0.8898,0.9076,0.9187,0.9207,0.9187,0.9042,0.8885,0.8885,0.8885,0.8885,0.8885,0.9022,0.918,0.918,0.9207,0.9207,0.8981,0.9049,0.9173,0.8974,0.8885,0.8885,0.8885,0.8885,0.8885,0.8885,0.9055,0.9207,0.9207,0.9337,0.9381,0.9381,0.9361,0.9357,0.9228,0.9187,0.9062,0.8865,0.8851,0.8832,0.8655,0.8526,0.8391,0.8241,0.8113,0.7988,0.7988,0.7988,0.7988,0.7988,0.7988,0.7975,0.7955,0.7955,0.7941,0.7921,0.7921,0.7902,0.9525,0.8292,0.7077,0.8321,0.8335,0.7878,0.7192,0.757,0.7908,0.7379,0.0,0.0,0.0,0.0,0.7889,0.8133,0.0,0.0,0.0,0.0,0.0,0.0,0.0,0.0,0.0,0.0,0.0,0.0,0.0,0.0,0.0,0.0,0.0,0.0,0.9707,0.9639,0.949,0.9401,0.9435,0.9585,0.9435,0.9327,0.9316,0.9316,0.9184,0.9049,0.0,0.9022,0.92,0.8994,0.8981,0.9028,0.896,0.8885,0.8898,0.9096,0.9262,0.9323,0.9234,0.9166,0.9042,0.8905,0.8885,0.8885,0.8885,0.8988,0.9055,0.9187,0.933,0.9367,0.9218,0.9225,0.9239,0.9089,0.8994,0.8885,0.8885,0.8885,0.8885,0.8885,0.9055,0.9234,0.9316,0.9401,0.953,0.9605,0.9551,0.9483,0.9408,0.9327,0.9218,0.9069,0.9055,0.896,0.873,0.8648,0.8472,0.8167,0.8029,0.7988,0.7988,0.7988,0.7988,0.7988,0.7988,0.7988,0.7988,0.7988,0.7988,0.7988,0.7988,0.7955,1.0973,0.9415,0.7972,0.9898,0.9495,0.8446,0.7738,0.8108,0.8409,0.7625,0.0,0.0,0.0,0.7868,0.0,0.8513,0.0,0.0,0.0,0.0,0.0,0.0,0.0,0.0,0.0,0.0,0.0,0.0,0.0,0.0,0.0,0.0,0.0,0.0,0.9557,0.9483,0.9327,0.9268,0.9289,0.9381,0.9282,0.9207,0.9207,0.9207,0.9193,0.9096,0.8988,0.9001,0.9096,0.8981,0.8885,0.8885,0.8885,0.8905,0.9008,0.915,0.9337,0.9361,0.9303,0.9241,0.9187,0.8988,0.8885,0.8892,0.8981,0.8988,0.9028,0.9211,0.9429,0.9571,0.9422,0.9408,0.9395,0.9303,0.9123,0.9035,0.8994,0.8988,0.8981,0.8892,0.9028,0.915,0.93,0.9422,0.9564,0.9741,0.968,0.9612,0.9612,0.951,0.9374,0.9282,0.9228,0.9091,0.8737,0.8676,0.8506,0.8167,0.8029,0.7988,0.7988,0.7988,0.7988,0.7988,0.7988,0.7988,0.7988,0.7988,0.7988,0.7988,0.7988,0.7988,1.1385,1.0746,1.0011,1.0156,0.8708,0.7539,0.8694,0.8322,0.7698,0.7753,0.0,0.0,0.0,0.8045,0.8384,0.8777,0.0,0.0,0.0,0.0,0.0,0.0,0.0,0.0,0.0,0.0,0.0,0.0,0.0,0.0,0.0,0.0,0.0,0.0,0.0,0.9327,0.9228,0.9214,0.9289,0.9381,0.9282,0.9207,0.9207,0.9207,0.9083,0.8898,0.8892,0.8892,0.8898,0.8885,0.8885,0.8885,0.8885,0.9022,0.9214,0.9306,0.9374,0.9381,0.9367,0.933,0.9187,0.8988,0.8885,0.8905,0.9096,0.9193,0.9255,0.9496,0.9591,0.9571,0.9422,0.949,0.9557,0.9401,0.9354,0.9313,0.9228,0.9193,0.9096,0.896,0.8892,0.9001,0.92,0.9234,0.9344,0.9578,0.9618,0.9612,0.9612,0.9598,0.9537,0.9381,0.9296,0.9091,0.8737,0.8581,0.8486,0.8452,0.8194,0.7988,0.7988,0.7988,0.7988,0.7988,0.7988,0.7988,0.7988,0.7988,0.7988,0.7988,0.7988,0.7988,1.2569,1.1702,1.091,1.2289,1.0582,0.8695,0.9134,0.9703,0.9711,0.8231,0.8221,0.0,0.0,0.0,0.8662,0.0,0.0,0.0,0.0,0.0,0.0,0.0,0.0,0.0,0.0,0.0,0.0,0.0,0.0,0.0,0.0,0.0,0.0,0.0,0.0,0.9171,0.9022,0.9022,0.9049,0.9103,0.9049,0.9022,0.9022,0.9022,0.8988,0.8885,0.8885,0.8885,0.8885,0.8885,0.8885,0.8885,0.8885,0.9083,0.9357,0.9361,0.9496,0.9639,0.9551,0.9422,0.9273,0.9123,0.9076,0.9083,0.9193,0.9275,0.934,0.9551,0.9612,0.9618,0.9646,0.9632,0.9598,0.9537,0.9449,0.9367,0.9306,0.9275,0.9221,0.9205,0.9137,0.9123,0.9266,0.9374,0.9476,0.9591,0.9686,0.9741,0.9741,0.9741,0.9686,0.9537,0.9357,0.9069,0.8866,0.871,0.8581,0.8486,0.8201,0.8029,0.818,0.8092,0.7988,0.7988,0.7988,0.7988,0.7988,0.7988,0.7988,0.7988,0.7988,0.7988,1.3133,1.2486,1.1859,1.3058,1.196,1.0557,1.0391,1.0907,1.1166,1.0092,0.9701,0.9568,0.9463,0.0,0.0,0.0,0.0,0.0,0.0,0.0,0.0,0.0,0.0,0.0,0.0,0.0,0.0,0.0,0.0,0.0,0.0,0.0,0.0,0.0,0.0,0.9042,0.8885,0.8885,0.8885,0.8885,0.8885,0.8885,0.8885,0.8885,0.8885,0.8885,0.8885,0.8885,0.8885,0.8885,0.8885,0.8885,0.8885,0.9117,0.9381,0.9381,0.9564,0.9802,0.9659,0.951,0.9354,0.9262,0.9207,0.9221,0.9268,0.9334,0.9483,0.9632,0.968,0.97,0.9795,0.9747,0.968,0.968,0.9598,0.951,0.9462,0.9367,0.9313,0.9367,0.9316,0.9262,0.9354,0.9429,0.9496,0.9598,0.9693,0.9754,0.9754,0.9795,0.9747,0.9557,0.9347,0.9144,0.8898,0.8798,0.8682,0.8628,0.8343,0.8208,0.832,0.8167,0.8113,0.8113,0.8015,0.7988,0.7988,0.7988,0.7988,0.7988,0.7988,0.7988,1.2878,1.2986,1.2961,1.194,1.2371,1.2915,1.2697,1.1723,1.1492,1.3477,1.2614,1.1431,1.114,0.9922,0.0,0.0,0.0,0.0,0.0,0.0,0.0,0.0,0.0,0.0,0.0,0.0,0.0,0.0,0.0,0.0,0.0,0.0,0.0,0.0,0.0,0.0,0.8885,0.8878,0.8878,0.8885,0.8885,0.8885,0.8885,0.8885,0.8885,0.8885,0.8885,0.8885,0.8885,0.8885,0.8885,0.8885,0.8885,0.9117,0.9381,0.9381,0.9564,0.9795,0.9659,0.951,0.9354,0.9262,0.9214,0.9241,0.9334,0.949,0.9639,0.9781,0.9822,0.9822,0.9822,0.9822,0.9822,0.9822,0.9822,0.9781,0.9639,0.9612,0.9564,0.9415,0.9316,0.9262,0.9354,0.9316,0.9316,0.9564,0.9612,0.9612,0.9612,0.9734,0.9707,0.9408,0.9381,0.9259,0.8905,0.8798,0.8777,0.8871,0.8655,0.8425,0.8333,0.832,0.832,0.832,0.8119,0.7988,0.7988,0.7988,0.7988,0.7988,0.7988,0.7988,1.3454,1.3097,1.2698,1.2396,1.2484,1.2855,1.3931,1.3007,0.0,0.0,1.2805,1.1745,1.1859,0.0,0.0,0.0,0.0,0.0,0.0,0.0,0.0,0.0,0.0,0.0,0.0,0.0,0.0,0.0,0.0,0.0,0.0,0.0,0.0,0.0,0.0,0.0,0.8885,0.8723,0.8669,0.8777,0.8777,0.8832,0.8885,0.8885,0.8885,0.8885,0.8885,0.8885,0.8885,0.8885,0.8885,0.8885,0.8885,0.9055,0.9275,0.9275,0.9347,0.9523,0.9585,0.9442,0.9289,0.935,0.9313,0.93,0.9296,0.9476,0.9747,0.9686,0.9741,0.9822,0.9822,0.9822,0.9822,0.9822,0.9822,0.9808,0.9768,0.968,0.9625,0.968,0.9571,0.949,0.9537,0.9585,0.9618,0.9612,0.9693,0.972,0.9618,0.9646,0.9557,0.9309,0.9313,0.9259,0.8905,0.8844,0.8845,0.8784,0.8798,0.8689,0.8431,0.8374,0.8221,0.8113,0.8015,0.7988,0.7988,0.7988,0.7988,0.7988,0.7988,0.7988,1.276,1.2416,1.2213,1.2093,1.2234,1.2908,1.471,0.0,0.0,0.0,1.4505,1.2975,1.3054,0.0,0.0,0.0,0.0,0.0,0.0,0.0,0.0,0.0,0.0,0.0,0.0,0.0,0.0,0.0,0.0,0.0,0.0,0.0,0.0,0.0,0.0,0.0,0.8757,0.8574,0.8526,0.8621,0.8621,0.8669,0.8757,0.8818,0.8824,0.8885,0.8885,0.8885,0.8885,0.8885,0.8885,0.8885,0.8885,0.9028,0.9207,0.9207,0.9309,0.9401,0.9557,0.9408,0.9234,0.9334,0.934,0.9344,0.9309,0.9476,0.9734,0.97,0.9754,0.9822,0.9822,0.9822,0.9822,0.9822,0.9822,0.9822,0.9822,0.9754,0.97,0.9734,0.9666,0.9591,0.953,0.9639,0.9686,0.9544,0.9537,0.9571,0.9605,0.9557,0.9449,0.9323,0.9381,0.9374,0.9137,0.9062,0.8981,0.8893,0.892,0.8825,0.8581,0.8431,0.8309,0.8214,0.8049,0.7988,0.7988,0.7988,0.7988,0.7988,0.7988,0.7988,1.1432,1.1324,1.1514,1.1389,1.2073,1.3282,1.5417,1.7721,1.9417,1.9332,0.0,1.4607,1.4501,0.0,0.0,0.0,0.0,0.0,0.0,0.0,0.0,0.0,0.0,0.0,0.0,0.0,0.0,0.0,0.0,0.0,0.0,0.0,0.0,0.0,0.0,0.0,0.8486,0.8459,0.8445,0.0,0.8465,0.8465,0.8465,0.8621,0.8771,0.8865,0.8865,0.8871,0.8885,0.8885,0.8885,0.8885,0.8885,0.9022,0.9187,0.9187,0.9275,0.9367,0.953,0.9395,0.9234,0.9334,0.9357,0.9275,0.9327,0.949,0.9652,0.9768,0.9808,0.9822,0.9822,0.9822,0.9822,0.9822,0.9822,0.9822,0.9822,0.9822,0.9781,0.9639,0.9612,0.9557,0.9408,0.9496,0.9544,0.9401,0.9323,0.9323,0.9537,0.9456,0.9374,0.9361,0.951,0.9551,0.9395,0.9296,0.9207,0.9207,0.9015,0.8817,0.8737,0.8574,0.8479,0.8465,0.8187,0.7988,0.7988,0.7988,0.7988,0.7988,0.7988,0.7988,1.2165,1.1224,1.0696,1.1546,1.3536,1.5797,1.7742,1.884,1.9305,1.9065,1.6833,1.4911,0.0,0.0,0.0,0.0,0.0,0.0,0.0,0.0,0.0,0.0,0.0,0.0,0.0,0.0,0.0,0.0,0.0,0.0,0.0,0.0,0.0,0.0,0.0,0.8404,0.8479,0.8255,0.8194,0.0,0.8368,0.8368,0.8374,0.8465,0.8615,0.8757,0.8757,0.8825,0.8885,0.8885,0.8885,0.8885,0.8885,0.8905,0.8988,0.8988,0.9008,0.9069,0.934,0.9306,0.9234,0.9334,0.9442,0.9469,0.9323,0.9469,0.9761,0.968,0.9734,0.9822,0.9822,0.9822,0.9822,0.9822,0.9822,0.9822,0.9822,0.9822,0.9781,0.9639,0.9612,0.9557,0.9408,0.9408,0.9422,0.9388,0.9354,0.9313,0.9316,0.9327,0.9334,0.9268,0.9449,0.9551,0.9395,0.9296,0.9207,0.9207,0.9015,0.8871,0.8838,0.8628,0.8431,0.8368,0.8133,0.7988,0.7988,0.7988,0.7988,0.7988,0.7988,0.7988,1.2254,1.1677,1.1695,1.3106,0.0,1.7146,1.8404,1.8838,1.8905,1.8744,1.7131,0.0,0.0,0.0,0.0,0.0,0.0,0.0,0.0,0.0,0.0,0.0,0.0,0.0,0.0,0.0,0.0,0.0,0.0,0.0,0.0,0.0,0.0,0.0,0.8361,0.8269,0.8269,0.8069,0.8029,0.816,0.816,0.816,0.8167,0.8384,0.8486,0.8506,0.8648,0.8757,0.8832,0.8851,0.8885,0.8885,0.8885,0.8885,0.8885,0.8885,0.8981,0.9062,0.9218,0.9275,0.9221,0.9303,0.9279,0.9286,0.9266,0.9429,0.9625,0.9693,0.9768,0.9822,0.9822,0.9822,0.9822,0.9822,0.9822,0.9822,0.9822,0.9822,0.9754,0.9544,0.9557,0.9517,0.9218,0.9225,0.9357,0.9367,0.932,0.9303,0.9221,0.9344,0.932,0.9228,0.9429,0.9551,0.9395,0.9296,0.9207,0.9207,0.9015,0.8885,0.8885,0.8716,0.852,0.8377,0.8153,0.7988,0.7988,0.7988,0.7988,0.7988,0.7988,0.7988,1.2105,1.2307,1.3088,1.4619,1.6302,0.0,1.8223,1.841,1.849,1.849,0.0,0.0,0.0,0.0,0.0,0.0,0.0,0.0,0.0,0.0,0.0,0.0,0.0,0.0,0.0,0.0,0.0,0.0,0.0,0.0,0.0,0.0,0.8831,0.8584,0.8584,0.8419,0.7988,0.7988,0.7988,0.7988,0.7988,0.7988,0.7995,0.8296,0.8357,0.8333,0.8526,0.8662,0.8723,0.8845,0.8858,0.8885,0.8885,0.8885,0.8885,0.8912,0.9049,0.9214,0.9241,0.9248,0.9248,0.9248,0.911,0.9069,0.934,0.9422,0.9476,0.9747,0.9822,0.9822,0.9822,0.9822,0.9822,0.9822,0.9822,0.9822,0.9822,0.9822,0.9734,0.9442,0.9442,0.9374,0.8946,0.9055,0.9248,0.9286,0.9275,0.9207,0.9207,0.9344,0.9334,0.9262,0.9442,0.9551,0.9395,0.9296,0.9207,0.9207,0.9015,0.8885,0.8885,0.8791,0.8648,0.8526,0.8255,0.8056,0.8029,0.8029,0.8015,0.7988,0.7988,0.7988,1.207,0.0,1.3438,0.0,1.5859,1.7609,0.0,0.0,1.849,0.0,0.0,0.0,0.0,0.0,0.0,0.0,0.0,0.0,0.0,0.0,0.0,0.0,0.0,0.0,0.0,0.0,0.0,0.0,0.0,0.0,0.0,1.1521,1.0913,0.9789,0.9789,0.9187,0.7988,0.7988,0.7988,0.7988,0.7988,0.7988,0.7988,0.8029,0.816,0.8327,0.8316,0.8472,0.871,0.873,0.8818,0.8885,0.8885,0.8885,0.8898,0.9076,0.9193,0.9228,0.9364,0.9354,0.9354,0.9354,0.934,0.9354,0.9523,0.9578,0.9612,0.9774,0.9822,0.9822,0.9822,0.9822,0.9822,0.9822,0.9822,0.9822,0.9822,0.9822,0.9734,0.9442,0.9191,0.8952,0.8892,0.9055,0.9173,0.9015,0.9089,0.9207,0.9207,0.9344,0.9374,0.9354,0.9503,0.9551,0.9395,0.9296,0.9207,0.9207,0.9015,0.8885,0.8885,0.8791,0.8703,0.8682,0.8513,0.8364,0.8241,0.8241,0.8174,0.7988,0.7988,0.7988,1.3163,1.3428,1.397,0.0,1.5768,1.6727,1.7273,0.0,1.7542,0.0,0.0,0.0,0.0,0.0,0.0,0.0,0.0,0.0,0.0,0.0,0.0,0.0,0.0,0.0,0.0,0.0,0.0,0.0,0.0,0.0,1.3006,1.2328,1.1658,1.1072,1.0386,0.9706,0.9114,0.8386,0.7988,0.7988,0.7988,0.7988,0.7988,0.7988,0.8029,0.8147,0.8235,0.8391,0.8587,0.8676,0.8798,0.8885,0.8885,0.8885,0.8892,0.9008,0.9083,0.9207,0.9137,0.9184,0.9239,0.9157,0.913,0.9178,0.9408,0.9483,0.953,0.9754,0.9822,0.9822,0.9822,0.9822,0.9822,0.9822,0.9822,0.9822,0.9822,0.9822,0.9734,0.9442,0.9144,0.8885,0.8885,0.9055,0.9103,0.8905,0.9062,0.9207,0.9207,0.9344,0.9381,0.9381,0.9517,0.951,0.933,0.9248,0.9173,0.9042,0.8974,0.8885,0.8885,0.8817,0.8838,0.8838,0.8601,0.8452,0.8391,0.8361,0.8235,0.8167,0.8029,0.7988,1.3761,0.0,1.4202,1.515,1.5618,1.6005,0.0,0.0,0.0,0.0,0.0,0.0,0.0,0.0,0.0,0.0,0.0,0.0,0.0,0.0,0.0,0.0,0.0,0.0,0.0,0.0,0.0,0.0,0.0,0.0,1.4364,1.3451,1.2727,1.2425,1.1502,1.0828,1.0485,0.9164,0.8336,0.7988,0.7988,0.7988,0.7988,0.7988,0.7988,0.7995,0.816,0.8316,0.8492,0.8608,0.8764,0.8885,0.8885,0.8885,0.8885,0.8981,0.9062,0.9193,0.9028,0.9062,0.9193,0.9028,0.8967,0.8946,0.9334,0.9415,0.9442,0.9741,0.9822,0.9822,0.9822,0.9822,0.9822,0.9822,0.9822,0.9822,0.9822,0.9795,0.9693,0.9435,0.9171,0.8981,0.8892,0.9028,0.9076,0.9001,0.9055,0.9137,0.9309,0.9334,0.9395,0.9435,0.9544,0.9503,0.9289,0.9234,0.9166,0.9001,0.8905,0.8885,0.8885,0.8885,0.8885,0.8885,0.8716,0.8581,0.854,0.8431,0.8343,0.832,0.8153,0.8029,0.0,1.3413,0.0,1.4095,1.5003,1.5798,0.0,0.0,0.0,0.0,0.0,0.0,0.0,0.0,0.0,0.0,0.0,0.0,0.0,0.0,0.0,0.0,0.0,0.0,0.0,0.0,0.0,0.0,0.0,0.0,1.5689,1.5642,1.5045,1.3824,1.3728,1.3102,1.1804,1.0534,0.9262,0.7988,0.7988,0.7988,0.7988,0.7988,0.7988,0.7988,0.7995,0.8214,0.8479,0.8492,0.8669,0.8885,0.8885,0.8885,0.8898,0.9089,0.92,0.9207,0.92,0.92,0.9207,0.92,0.9049,0.8966,0.9462,0.9496,0.9442,0.9741,0.9822,0.9822,0.9822,0.9822,0.9822,0.9822,0.9822,0.9822,0.9822,0.9713,0.9571,0.9415,0.9309,0.9096,0.8905,0.8892,0.8994,0.918,0.9028,0.9103,0.953,0.9462,0.9435,0.9585,0.9605,0.9544,0.9381,0.9296,0.9207,0.92,0.9015,0.8885,0.8885,0.8885,0.8885,0.8885,0.8865,0.8845,0.8696,0.8689,0.854,0.832,0.8313,0.818,0.0,0.0,0.0,1.4055,1.4536,1.5084,1.5458,0.0,0.0,0.0,0.0,0.0,0.0,0.0,0.0,0.0,0.0,0.0,0.0,0.0,0.0,0.0,0.0,0.0,0.0,0.0,0.0,0.0,0.0,0.0,1.5784,1.5784,1.5581,1.514,1.4316,1.3247,1.1901,1.1463,1.0583,0.9262,0.9262,0.8825,0.7988,0.7988,0.7988,0.7988,0.7988,0.8153,0.835,0.8445,0.8608,0.8804,0.8844,0.8885,0.8892,0.8994,0.9015,0.9015,0.9015,0.9015,0.9015,0.9015,0.8981,0.8946,0.9354,0.9422,0.9442,0.9741,0.9754,0.9707,0.9795,0.9754,0.9707,0.9802,0.9754,0.9686,0.9686,0.9564,0.9415,0.9323,0.9117,0.9028,0.9069,0.9076,0.9096,0.92,0.9166,0.9171,0.9429,0.9415,0.9476,0.972,0.9747,0.9686,0.9537,0.9476,0.9361,0.9221,0.9103,0.9035,0.8885,0.8885,0.8885,0.8885,0.8885,0.8858,0.8804,0.8757,0.8608,0.8404,0.8404,0.833,1.3293,0.0,0.0,0.0,1.4309,1.4616,1.5017,0.0,0.0,0.0,0.0,0.0,0.0,0.0,0.0,0.0,0.0,0.0,0.0,0.0,0.0,0.0,0.0,0.0,0.0,0.0,0.0,0.0,0.0,0.0,1.5784,1.5784,1.5784,1.5784,1.4997,1.3884,1.2571,1.2571,1.194,1.0632,1.0632,1.019,0.9312,0.9312,0.9065,0.8676,0.8676,0.8521,0.8333,0.8425,0.8574,0.8723,0.8824,0.8885,0.8885,0.8885,0.8885,0.8885,0.8885,0.8885,0.8885,0.8885,0.8885,0.8939,0.9293,0.9381,0.9435,0.968,0.968,0.9632,0.9727,0.9713,0.9707,0.9795,0.9713,0.9612,0.9612,0.949,0.9334,0.9241,0.9117,0.9103,0.92,0.9207,0.9228,0.9275,0.9144,0.9171,0.9422,0.9415,0.9496,0.9788,0.9822,0.9781,0.9686,0.9639,0.9503,0.9303,0.9234,0.9089,0.8892,0.8885,0.8885,0.8885,0.8885,0.8885,0.8885,0.8838,0.8682,0.8486,0.8533,0.8479,0.0,0.0,0.0,0.0,0.0,0.0,1.4509,0.0,0.0,0.0,0.0,0.0,0.0,0.0,0.0,0.0,0.0,0.0,0.0,0.0,0.0,0.0,0.0,0.0,0.0,0.0,0.0,0.0,0.0,1.5784,1.5784,1.5784,1.5784,1.5784,1.5784,1.5201,1.3968,1.3968,1.3295,1.195,1.195,1.195,1.1901,1.1901,1.1219,1.0051,1.0051,0.9414,0.8378,0.847,0.8567,0.8716,0.8817,0.8878,0.8885,0.8885,0.8885,0.8885,0.8885,0.8885,0.8885,0.8885,0.8885,0.8939,0.9286,0.9374,0.9408,0.9557,0.9598,0.9598,0.9598,0.9713,0.9822,0.9822,0.9707,0.9605,0.9605,0.949,0.9334,0.9248,0.933,0.9327,0.9241,0.9214,0.9262,0.9354,0.913,0.9047,0.9544,0.9469,0.9496,0.9788,0.9822,0.9822,0.9822,0.9693,0.9551,0.9395,0.9303,0.9096,0.8898,0.8885,0.8885,0.8885,0.8885,0.8885,0.8885,0.8885,0.8784,0.8492,0.8642,0.8628,1.368,0.0,0.0,0.0,0.0,0.0,1.4162,1.4108,0.0,0.0,0.0,0.0,0.0,0.0,0.0,0.0,0.0,0.0,0.0,0.0,0.0,0.0,0.0,0.0,0.0,0.0,0.0,0.0,1.5784,1.5784,1.5784,1.5784,1.5784,1.5784,1.5784,1.5629,1.5296,1.5296,1.4615,1.3343,1.3343,1.2861,1.1901,1.1901,1.1707,1.1365,1.1365,1.0668,0.9448,0.867,0.8418,0.856,0.8716,0.8838,0.8885,0.8885,0.8885,0.8885,0.8885,0.8885,0.8885,0.8885,0.8885,0.8919,0.9157,0.9275,0.9303,0.9401,0.9367,0.9364,0.9415,0.9632,0.9822,0.9822,0.9625,0.9476,0.9585,0.9401,0.9296,0.9364,0.9323,0.9296,0.9306,0.9282,0.9221,0.9268,0.92,0.9178,0.9415,0.9408,0.9496,0.9788,0.9822,0.9822,0.9822,0.9788,0.97,0.9557,0.9401,0.9252,0.9096,0.8994,0.8885,0.8885,0.8885,0.8885,0.8885,0.8885,0.8838,0.8648,0.8689,0.8689,1.4362,1.4656,0.0,0.0,0.0,0.0,1.3895,1.364,1.348,0.0,0.0,0.0,0.0,0.0,0.0,0.0,0.0,0.0,0.0,0.0,0.0,0.0,0.0,0.0,0.0,0.0,0.0,0.0,1.5712,1.5698,1.5771,1.5784,1.5784,1.5784,1.5784,1.5784,1.5784,1.5784,1.5439,1.4698,1.4698,1.4268,1.3547,1.3547,1.3258,1.2716,1.2716,1.1989,1.0739,1.007,0.9305,0.8499,0.8648,0.8804,0.8885,0.8885,0.8885,0.8885,0.8885,0.8885,0.8885,0.8885,0.8885,0.8967,0.9166,0.9255,0.9309,0.9337,0.9275,0.9248,0.934,0.9557,0.9734,0.9734,0.9551,0.9408,0.9496,0.9374,0.933,0.9361,0.9361,0.9374,0.9462,0.9401,0.932,0.9316,0.9248,0.9241,0.933,0.934,0.9469,0.9707,0.9788,0.9822,0.9822,0.9822,0.9761,0.9618,0.9523,0.9408,0.9309,0.9103,0.9028,0.9028,0.8967,0.8885,0.8885,0.8885,0.8838,0.8804,0.8676,0.8682,1.5075,1.5223,1.5324,0.0,1.4522,0.0,1.368,1.3373,1.3133,0.0,0.0,0.0,0.0,0.0,0.0,0.0,0.0,0.0,0.0,0.0,0.0,0.0,0.0,0.0,0.0,0.0,1.5458,1.5712,1.5524,1.5511,1.5718,1.5758,1.5784,1.5784,1.5784,1.5784,1.5784,1.5784,1.5784,1.5784,1.5784,1.5784,1.5784,1.5784,1.5188,1.4112,1.4112,1.3343,1.2134,1.2134,1.0756,0.8703,0.8842,0.8893,0.8885,0.8885,0.8989,0.9099,0.894,0.8989,0.9099,0.894,0.8885,0.8905,0.9089,0.9225,0.9306,0.9221,0.92,0.9241,0.932,0.9483,0.9612,0.9612,0.949,0.9388,0.9401,0.9381,0.9367,0.9401,0.9517,0.9612,0.9612,0.9598,0.9537,0.9401,0.9323,0.9234,0.9234,0.9313,0.9456,0.9598,0.9734,0.9822,0.9822,0.9822,0.9768,0.9639,0.9618,0.9551,0.9415,0.9316,0.9228,0.9207,0.9015,0.8885,0.8885,0.8885,0.8885,0.8878,0.8662,0.8676,0.0,0.0,0.0,0.0,0.0,0.0,1.372,1.3373,1.32,0.0,0.0,0.0,0.0,0.0,0.0,0.0,0.0,0.0,0.0,0.0,0.0,0.0,0.0,0.0,0.0,0.0,1.5115,1.5124,1.5297,1.5418,1.5484,1.5698,1.5784,1.5784,1.5784,1.5784,1.5784,1.5784,1.5784,1.5784,1.5784,1.5784,1.5784,1.5784,1.5689,1.5439,1.5439,1.4711,1.3488,1.3488,1.2143,1.0032,1.0064,0.9594,0.8885,0.8885,0.9644,1.0507,0.932,0.9699,1.046,0.9265,0.8885,0.8892,0.8974,0.9001,0.9022,0.8988,0.9062,0.9214,0.9248,0.9401,0.9612,0.9612,0.949,0.9415,0.9537,0.9367,0.933,0.9517,0.9591,0.9612,0.9612,0.951,0.9415,0.9388,0.9354,0.934,0.934,0.9469,0.9578,0.9605,0.9734,0.9822,0.9822,0.9822,0.9808,0.9781,0.9673,0.9598,0.9564,0.9415,0.9337,0.9214,0.9015,0.8885,0.8885,0.8885,0.8885,0.8885,0.8824,0.8824,0.0,0.0,0.0,1.507,0.0,0.0,0.0,1.34,1.3066,0.0,0.0,0.0,0.0,0.0,0.0,0.0,0.0,0.0,0.0,0.0,0.0,0.0,0.0,0.0,0.0,0.0,1.4736,1.4736,1.515,1.5391,1.5391,1.5671,1.5784,1.5784,1.5784,1.5784,1.5784,1.5784,1.5784,1.5784,1.5784,1.5784,1.5784,1.5784,1.5784,1.5784,1.5784,1.5439,1.4854,1.4854,1.3883,1.2289,1.0958,1.0139,0.9751,0.9127,0.9809,1.1,1.0241,1.0945,1.1973,1.046,1.0021,0.9864,0.9099,0.8885,0.8898,0.9028,0.9049,0.9083,0.9225,0.932,0.9401,0.9476,0.9381,0.9344,0.9367,0.932,0.9334,0.9564,0.9666,0.9713,0.9713,0.9652,0.9578,0.9503,0.9496,0.9442,0.9344,0.9401,0.9496,0.9496,0.9625,0.9741,0.9815,0.9822,0.9822,0.9822,0.9754,0.9713,0.9713,0.9503,0.9273,0.9049,0.8974,0.8885,0.8885,0.8885,0.8885,0.8885,0.8885,0.8885,0.0,0.0,0.0,0.0,0.0,1.4563,0.0,0.0,0.0,0.0,0.0,0.0,0.0,0.0,0.0,0.0,0.0,0.0,0.0,0.0,0.0,0.0,0.0,0.0,0.0,0.0,1.4442,1.4442,1.4923,1.5257,1.5311,1.5591,1.5765,1.5784,1.5784,1.5784,1.5784,1.5784,1.5784,1.5784,1.5784,1.5784,1.5784,1.5784,1.5784,1.5784,1.5784,1.5784,1.5784,1.5784,1.5399,1.4577,1.2167,1.1203,1.1059,1.014,1.0672,1.1919,1.1592,1.2453,1.348,1.2028,1.1319,1.0836,0.9375,0.8885,0.8905,0.9083,0.9028,0.8939,0.9232,0.9245,0.9282,0.9354,0.9306,0.9296,0.9296,0.9313,0.9429,0.9578,0.97,0.9788,0.9815,0.9822,0.9781,0.9666,0.9625,0.951,0.9289,0.9364,0.9367,0.934,0.9503,0.9652,0.9768,0.9802,0.9822,0.9822,0.9822,0.9822,0.9822,0.9564,0.93,0.9028,0.8994,0.8967,0.8885,0.8885,0.8885,0.8885,0.8885,0.8885,0.0,0.0,0.0,0.0,1.5164,0.0,0.0,0.0,0.0,0.0,0.0,0.0,0.0,0.0,0.0,0.0,0.0,0.0,0.0,0.0,0.0,0.0,0.0,0.0,0.0,0.0,0.0,1.4135,1.4442,1.4736,1.5048,1.5284,1.5565,1.5771,1.5784,1.5784,1.5784,1.5784,1.5784,1.5784,1.5784,1.5784,1.5784,1.5784,1.5784,1.5784,1.5784,1.5784,1.5784,1.5784,1.5923,1.5947,1.4616,1.3644,1.2965,1.2822,1.3696,1.4716,1.348,1.3965,1.4931,1.3534,1.2191,1.0836,0.9375,0.8885,0.8885,0.8905,0.8898,0.8892,0.8925,0.9171,0.9361,0.9374,0.9469,0.9557,0.9557,0.9462,0.9429,0.9578,0.9618,0.9673,0.9802,0.9822,0.9815,0.9802,0.9693,0.9551,0.9374,0.9367,0.9327,0.9248,0.9435,0.9618,0.9632,0.9747,0.9822,0.9822,0.9822,0.9822,0.9822,0.9666,0.9503,0.9334,0.9198,0.9062,0.8885,0.8885,0.8885,0.8885,0.8885,0.8885,0.0,0.0,0.0,0.0,0.0,0.0,1.4266,0.0,1.3854,0.0,0.0,0.0,0.0,0.0,0.0,0.0,0.0,0.0,0.0,0.0,0.0,0.0,0.0,0.0,0.0,0.0,0.0,0.0,0.0,1.4576,1.4696,1.515,1.5444,1.5578,1.5738,1.5784,1.5784,1.5784,1.5784,1.5784,1.5784,1.5784,1.5784,1.5784,1.5784,1.5784,1.5784,1.5784,1.5784,1.5784,1.6005,1.6237,1.5753,1.4963,1.4011,1.3495,1.4094,1.5106,1.4672,1.5476,1.6446,1.4984,1.3534,1.2082,1.0617,1.0186,1.0021,0.9154,0.8885,0.8905,0.9042,0.9096,0.9144,0.9225,0.9232,0.9266,0.9442,0.9429,0.9449,0.9686,0.9734,0.9747,0.9808,0.9822,0.9822,0.9822,0.97,0.9557,0.9401,0.9381,0.9354,0.935,0.9483,0.9646,0.9727,0.9788,0.9822,0.9822,0.9822,0.9741,0.9571,0.9591,0.9496,0.9309,0.933,0.9259,0.9198,0.9198,0.9198,0.9191,0.9022,0.8981,1.5752,0.0,0.0,0.0,0.0,0.0,0.0,0.0,0.0,0.0,0.0,0.0,0.0,0.0,0.0,0.0,0.0,0.0,0.0,0.0,0.0,0.0,0.0,0.0,0.0,0.0,0.0,0.0,0.0,0.0,1.4522,1.5003,1.5311,1.5391,1.5671,1.5784,1.5784,1.5784,1.5784,1.5784,1.5784,1.5784,1.5784,1.5784,1.5784,1.5784,1.5784,1.5784,1.5784,1.5784,1.6005,1.6335,1.6366,1.5866,1.5028,1.4541,1.4884,1.5655,1.5923,1.6711,1.7371,1.5902,1.4716,1.3588,1.2127,1.1701,1.1374,0.9911,0.9478,0.9452,0.9174,0.9049,0.9022,0.9187,0.9137,0.9178,0.9395,0.9476,0.9564,0.9781,0.9822,0.9822,0.9822,0.9822,0.9822,0.9822,0.97,0.9571,0.9456,0.9408,0.9381,0.9381,0.9517,0.9652,0.9754,0.9795,0.9822,0.9822,0.9822,0.9727,0.951,0.9605,0.9544,0.9344,0.9388,0.9422,0.9381,0.9381,0.9381,0.9374,0.9117,0.9055,0.0,0.0,0.0,1.5471,0.0,0.0,0.0,0.0,1.4496,0.0,0.0,0.0,0.0,0.0,0.0,1.4122,0.0,0.0,0.0,0.0,0.0,0.0,0.0,0.0,0.0,0.0,0.0,0.0,0.0,0.0,1.4509,1.4816,1.511,1.5391,1.5671,1.5784,1.5784,1.5784,1.5784,1.5784,1.5784,1.5784,1.5784,1.5784,1.5784,1.5784,1.5784,1.5784,1.5784,1.5784,1.6005,1.6348,1.658,1.6526,1.6304,1.689,1.7103,1.7194,1.7423,1.7582,1.7371,1.5902,1.5358,1.5091,1.3642,1.321,1.294,1.1428,1.1055,1.0672,0.9272,0.9049,0.9207,0.9207,0.9374,0.9591,0.9598,0.9707,0.9808,0.9822,0.9822,0.9822,0.9822,0.9822,0.9822,0.9822,0.97,0.9605,0.9605,0.9469,0.9381,0.9381,0.9517,0.9612,0.9618,0.9741,0.9822,0.9822,0.9822,0.9815,0.9808,0.9815,0.9747,0.9598,0.9598,0.953,0.9381,0.9381,0.9381,0.9374,0.9275,0.9207,0.0,0.0,1.5765,1.5471,0.0,0.0,0.0,0.0,0.0,0.0,0.0,0.0,0.0,0.0,1.4723,1.4416,1.4215,0.0,0.0,0.0,0.0,0.0,0.0,0.0,0.0,0.0,0.0,0.0,0.0,0.0,0.0,1.4509,1.4803,1.5142,1.5391,1.5631,1.5784,1.5784,1.5784,1.5784,1.5784,1.5784,1.5784,1.5784,1.5784,1.5784,1.5784,1.5784,1.5784,1.5784,1.6005,1.6335,1.638,1.6473,1.6633,1.7221,1.7194,1.6927,1.7408,1.7582,1.7529,1.7041,1.6869,1.6605,1.5144,1.4716,1.418,1.1755,1.1109,1.0781,0.9265,0.8974,0.9035,0.9187,0.9289,0.9361,0.9564,0.9646,0.9707,0.9802,0.9822,0.9822,0.9822,0.9822,0.9822,0.9822,0.97,0.9612,0.9612,0.9564,0.953,0.953,0.9659,0.9747,0.9747,0.9795,0.9822,0.9822,0.9822,0.9781,0.9686,0.9774,0.9754,0.9612,0.97,0.9727,0.9673,0.9673,0.9673,0.9666,0.9523,0.9401,1.5784,1.5784,0.0,1.5605,1.5471,0.0,1.5164,0.0,0.0,0.0,0.0,0.0,0.0,0.0,0.0,1.4589,1.4362,0.0,0.0,1.328,0.0,0.0,0.0,0.0,0.0,0.0,0.0,0.0,0.0,0.0,0.0,0.0,1.4656,1.4995,1.5244,1.5538,1.5784,1.5784,1.5784,1.5784,1.5784,1.5784,1.5784,1.5784,1.5784,1.5784,1.5784,1.5784,1.5784,1.5939,1.6099,1.6348,1.6549,1.6633,1.6767,1.7248,1.7248,1.7074,1.7448,1.7582,1.7582,1.7582,1.7582,1.7424,1.6446,1.6168,1.5559,1.2627,1.181,1.1411,0.9359,0.8933,0.9028,0.9069,0.9157,0.9344,0.949,0.9571,0.9652,0.9795,0.9822,0.9822,0.9822,0.9822,0.9822,0.9822,0.9741,0.9686,0.9686,0.9686,0.9686,0.9686,0.9768,0.9822,0.9822,0.9822,0.9822,0.9822,0.9822,0.9781,0.9686,0.9774,0.9802,0.9768,0.9802,0.9849,0.9903,0.9849,0.9822,0.9815,0.9673,0.953]}]]